GFSGBSN_prec_cthk_000.txt.gz
RH
27 30 27 26 25 27 26 26 25 23 26 29 42 48 50 53 61 60 57 55 53 52 53 55 48 48 54 57 61 60 54 47 44 53 54 54 62 66 67 72 70 58 51 50 49 48 44
27 30 32 27 27 27 26 30 28 24 24 28 42 50 56 61 67 66 64 60 62 57 54 54 52 52 54 59 54 53 53 48 45 49 58 58 59 70 71 73 72 61 58 53 52 51 49
27 26 32 33 29 27 28 27 29 25 23 26 39 50 56 64 73 73 71 67 62 62 58 58 66 67 66 56 52 49 46 45 44 46 50 57 63 80 76 77 77 68 64 62 54 52 50
26 26 31 35 32 29 29 30 29 28 26 25 35 48 57 64 76 81 78 74 72 67 65 67 76 76 69 61 57 54 52 50 47 48 48 58 69 84 91 80 80 74 70 65 54 55 50
23 34 33 35 35 33 32 31 33 30 29 26 31 45 56 69 68 79 80 81 81 73 77 82 84 82 74 64 60 58 57 54 54 55 52 61 72 85 93 87 87 81 72 61 60 55 51
20 28 34 35 37 36 34 34 32 32 30 26 28 40 59 72 74 85 85 85 90 91 92 95 92 92 75 68 64 64 66 69 65 71 67 73 74 88 94 91 83 80 71 61 59 54 47
28 20 31 36 37 37 35 36 32 34 34 28 26 34 52 63 76 84 92 93 94 94 94 89 89 86 79 73 69 70 75 78 72 80 77 78 85 87 84 88 78 72 63 62 56 53 51
43 29 24 34 37 38 38 38 35 37 38 31 27 28 44 56 72 84 96 96 94 95 97 95 95 92 90 85 76 71 79 78 76 81 91 90 85 79 95 88 82 73 66 62 63 54 52
42 46 32 33 37 38 38 39 38 42 42 38 32 30 43 55 70 83 92 98 98 98 98 95 97 96 94 86 72 79 79 75 75 84 95 91 74 87 91 86 88 77 70 63 63 60 58
44 47 46 33 38 43 40 39 39 46 48 46 41 36 43 50 66 83 92 97 98 98 98 91 95 95 95 88 72 71 85 76 81 87 97 87 86 94 90 88 85 78 70 70 68 72 66
50 46 51 36 36 47 46 42 42 48 53 54 50 43 41 43 66 78 90 98 98 98 96 84 92 93 89 79 70 76 86 80 80 91 97 85 93 96 92 84 83 76 73 68 71 74 66
65 54 55 44 36 46 49 49 49 53 57 61 58 47 39 46 58 71 93 98 98 98 94 94 96 93 92 78 75 86 90 82 89 91 94 82 93 95 87 87 85 81 74 74 69 70 66
76 61 66 53 39 47 50 50 51 57 60 64 65 53 42 44 59 71 96 98 98 97 94 98 97 97 93 70 69 93 89 81 95 97 96 93 96 94 87 94 88 81 79 93 89 81 62
85 76 60 63 49 49 52 51 53 60 63 65 67 58 53 45 60 78 98 98 98 93 96 95 95 96 93 75 78 92 85 79 92 87 81 98 99 96 82 87 88 79 73 69 72 64 54
98 94 74 71 52 51 53 53 56 62 64 65 67 60 49 46 60 82 98 98 91 97 95 96 94 90 86 75 78 93 71 74 87 87 87 97 98 93 85 80 83 89 81 69 64 59 56
99 96 69 77 65 53 56 56 58 62 65 66 68 58 48 53 67 93 98 98 97 96 96 70 64 73 72 69 80 86 66 69 79 85 90 83 96 90 90 89 86 85 76 77 66 67 62
96 96 77 75 71 57 57 56 60 63 65 67 66 63 57 61 76 95 98 97 96 95 82 53 55 58 60 63 76 66 57 72 70 79 89 84 80 83 84 85 86 78 85 78 64 58 54
98 99 85 73 74 61 59 58 61 64 65 68 60 68 62 65 81 93 97 97 96 93 72 51 52 56 55 64 78 65 54 73 66 77 82 81 72 87 77 72 76 75 68 70 70 65 55
97 98 89 76 77 66 59 59 62 64 66 68 59 70 68 71 85 95 96 97 96 88 71 68 62 63 58 61 70 63 65 68 74 78 78 74 71 80 87 80 75 79 68 66 58 53 54
95 97 91 75 72 69 60 60 63 65 67 70 61 72 73 70 92 98 98 97 97 83 72 80 71 74 70 63 61 56 68 79 86 81 79 74 68 59 62 58 58 61 61 64 60 65 60
95 97 91 80 72 69 62 61 64 66 69 71 57 67 66 69 91 98 98 96 96 93 84 88 73 70 66 70 73 68 68 81 79 87 82 79 68 65 60 57 57 59 63 61 59 58 58
89 97 97 81 76 69 63 61 65 67 70 72 59 56 65 62 81 94 98 97 96 97 94 95 88 74 72 65 59 70 68 77 78 82 80 79 74 65 64 62 59 58 58 60 59 61 55
87 97 98 87 74 70 61 61 65 66 68 74 72 51 55 51 70 91 96 96 96 95 96 95 94 83 72 69 70 73 80 82 79 80 79 79 74 72 69 64 63 64 54 56 53 53 54
88 98 98 93 79 70 68 65 62 65 65 75 74 56 48 47 69 87 89 95 98 94 96 95 86 80 73 74 73 80 85 85 84 84 82 81 76 75 75 69 71 52 53 52 51 48 50
82 97 98 98 91 77 68 68 64 64 64 74 78 63 53 56 70 85 86 96 96 95 94 86 78 76 76 77 82 84 86 92 87 84 84 83 86 85 76 90 62 53 56 55 54 49 43
79 97 98 98 90 88 70 64 64 62 63 72 77 71 53 56 71 79 84 95 96 93 86 84 79 74 71 75 82 86 91 84 89 86 84 86 89 94 89 72 63 56 57 52 49 41 38
73 96 98 98 96 87 66 69 65 62 62 69 77 73 58 56 74 75 75 89 96 95 85 84 84 84 84 77 77 82 77 71 77 82 87 82 82 93 81 82 62 59 59 60 58 52 52
75 95 98 98 98 82 69 69 66 60 59 66 77 72 68 55 75 73 71 86 93 94 90 82 88 90 95 91 84 83 79 68 67 69 73 80 76 72 81 94 91 63 63 61 58 59 56
78 92 98 99 98 80 71 68 65 59 57 64 75 73 76 59 73 74 68 78 85 87 92 87 87 89 92 93 84 86 82 80 70 73 74 75 69 70 70 67 68 69 66 63 59 55 55

GFSGBSN_prec_cthk_003.txt.gz
RH
29 28 29 33 31 26 25 25 26 24 22 21 26 37 44 48 51 54 54 57 57 55 51 54 54 54 54 58 59 60 52 47 48 50 54 53 45 52 61 60 65 64 54 56 54 52 49
25 28 28 32 33 32 26 25 25 28 24 20 24 33 46 52 57 59 62 61 61 61 57 56 61 62 61 63 58 62 59 54 52 53 55 55 53 51 59 67 69 66 61 60 57 54 49
21 23 26 29 33 36 32 29 26 27 27 21 21 28 43 49 59 63 65 65 68 63 62 58 63 67 68 61 60 58 54 49 49 52 52 53 59 59 58 66 63 74 68 67 59 59 51
26 21 22 25 34 37 37 36 32 29 28 27 23 25 40 49 61 66 69 69 69 67 63 61 66 70 74 68 66 63 58 53 46 42 44 51 60 57 67 75 74 70 76 73 62 60 54
29 27 25 30 32 34 38 39 38 34 32 30 29 24 30 45 59 67 70 71 75 73 67 68 73 76 76 70 66 65 64 59 56 52 49 50 57 60 63 79 82 88 76 71 71 61 57
32 29 37 36 32 32 36 39 39 39 34 34 34 27 26 37 52 68 72 75 77 81 80 84 86 87 77 74 72 67 67 63 62 61 59 54 61 63 65 81 83 79 74 70 73 64 59
40 32 39 39 38 32 34 37 40 40 38 36 39 33 27 31 43 59 64 74 80 86 89 86 83 80 80 77 76 72 67 67 65 63 62 62 65 69 49 61 73 79 78 71 69 64 62
50 38 36 41 41 39 34 36 39 41 42 38 42 36 30 31 39 57 65 72 81 87 91 93 91 89 88 86 83 80 75 72 71 68 64 77 81 56 43 59 86 80 76 70 72 69 59
66 52 42 42 42 46 40 37 38 40 43 43 42 42 38 36 43 58 66 71 86 91 95 91 91 93 93 94 90 86 80 73 68 68 71 79 62 56 59 65 91 76 83 74 72 71 56
72 70 58 42 46 50 59 44 41 42 44 47 45 45 46 45 45 52 61 75 86 95 96 85 85 90 96 97 92 89 85 77 76 75 78 78 76 87 69 72 89 85 70 72 73 72 61
86 86 70 59 56 51 54 57 48 48 50 52 55 50 50 49 48 54 60 72 88 98 95 83 89 91 94 96 85 79 72 78 78 77 84 70 70 84 80 72 85 91 86 74 77 68 73
97 98 85 66 65 54 54 66 49 49 53 57 60 63 56 51 47 55 55 73 91 98 94 92 94 94 94 95 86 78 68 71 85 87 88 71 80 88 73 90 89 84 83 76 79 71 66
96 99 99 93 64 65 53 69 53 52 56 60 66 69 68 51 50 61 64 78 97 97 90 97 97 95 93 93 87 83 81 84 88 91 98 90 92 95 90 96 96 91 90 90 83 77 58
68 91 99 98 70 71 60 75 59 56 60 65 71 75 71 60 54 65 68 87 98 85 89 97 97 98 98 90 78 75 90 94 82 89 96 92 92 94 88 93 95 87 88 66 69 64 53
75 95 99 98 79 70 76 82 62 61 63 69 76 77 72 63 62 65 73 92 93 89 95 98 97 96 98 91 64 63 85 93 75 82 99 87 90 91 95 92 88 93 89 69 63 54 58
67 93 98 99 87 81 88 79 63 64 67 71 79 79 74 65 65 68 78 96 94 92 97 96 79 80 90 84 66 73 78 71 72 83 92 93 92 85 93 91 89 90 76 73 62 62 59
73 86 98 98 91 86 89 85 64 65 69 74 79 78 72 69 72 70 78 97 94 94 96 71 62 64 72 64 63 71 70 62 66 78 93 97 97 96 96 91 91 91 86 70 58 56 56
78 86 96 97 97 95 95 79 68 66 70 74 78 77 71 75 74 71 92 97 95 96 94 62 59 57 58 56 61 70 70 64 62 75 96 95 97 99 91 74 80 84 76 64 62 62 54
69 87 92 94 98 92 97 80 68 68 71 75 79 75 72 76 75 76 95 97 96 95 87 58 54 54 52 57 59 64 60 55 70 74 91 86 92 97 96 82 84 78 74 68 65 57 54
82 85 91 97 95 89 99 79 67 69 74 77 78 75 76 77 72 82 97 97 97 92 81 63 61 57 56 57 51 53 60 62 68 73 88 86 78 74 69 62 67 72 71 62 58 58 53
81 88 90 97 97 94 99 80 68 71 77 79 78 72 74 72 77 86 97 96 98 96 79 72 82 68 56 53 50 56 61 71 69 71 79 84 76 68 64 59 61 61 63 68 64 60 55
79 81 93 97 96 93 99 83 71 73 79 79 77 68 74 70 70 73 94 96 98 96 88 82 86 68 66 58 43 53 62 70 79 75 73 79 77 68 67 64 62 62 62 60 58 57 58
74 83 90 95 94 91 89 90 74 75 76 75 82 77 67 59 61 66 83 95 96 96 94 86 87 78 72 64 60 66 69 75 80 74 79 82 80 70 70 65 64 63 53 54 54 52 54
68 78 87 96 96 84 81 84 74 77 75 78 82 82 78 53 48 57 78 95 97 96 95 94 92 87 83 76 73 67 77 78 80 84 79 84 81 76 76 67 73 53 51 50 51 52 52
66 76 89 95 96 83 93 84 75 75 76 79 82 81 81 58 48 62 84 96 97 98 96 94 94 92 90 84 83 88 85 86 86 87 86 84 85 83 85 82 70 57 53 54 53 52 49
63 79 88 97 97 94 98 80 75 75 76 77 80 83 85 64 51 66 89 96 97 97 94 94 94 91 84 82 85 92 95 92 94 93 92 90 90 90 83 74 74 58 54 52 55 52 47
59 80 88 96 98 88 87 81 78 77 79 75 77 83 86 72 54 71 86 93 98 94 93 92 86 82 83 82 87 85 86 85 92 91 91 94 93 94 92 89 69 61 58 55 55 54 51
59 79 83 94 98 95 83 89 77 77 81 74 74 83 85 75 60 76 83 89 98 97 88 87 84 86 90 88 87 80 76 74 74 76 82 84 92 88 92 96 84 67 65 62 64 61 60
60 71 84 88 98 91 91 95 82 78 76 71 71 81 84 79 67 75 80 83 96 98 92 90 88 83 86 85 75 76 77 66 64 70 69 79 65 67 68 70 69 68 71 68 65 64 62

GFSGBSN_prec_cthk_006.txt.gz
RH
26 18 24 28 29 29 26 30 28 27 27 26 23 23 29 40 45 47 49 50 50 51 50 49 53 52 51 54 56 59 53 49 49 48 52 55 57 52 53 56 58 52 53 53 50 49 52
31 25 19 22 27 35 32 27 29 28 27 29 25 21 25 37 46 50 54 55 54 55 55 55 58 61 62 60 55 55 59 55 54 57 56 59 60 56 52 57 61 61 56 54 54 52 52
39 30 25 23 21 31 35 34 34 31 29 28 28 23 22 30 43 50 55 56 57 58 56 57 60 62 66 61 60 60 61 61 57 55 58 64 61 65 61 58 62 64 70 61 53 54 56
46 37 30 27 26 27 33 35 36 37 35 32 29 29 22 27 38 45 54 65 59 62 62 61 58 64 66 61 60 60 58 55 54 53 53 57 63 63 65 68 65 67 70 74 47 55 54
48 47 38 30 29 36 35 34 36 39 39 39 34 34 31 27 32 39 53 62 62 65 65 67 60 66 66 61 61 61 65 61 58 56 55 51 56 58 69 68 76 71 70 64 59 55 60
60 52 48 39 29 36 39 38 34 37 40 41 39 39 41 28 31 34 44 58 65 63 67 71 71 72 64 68 68 65 64 66 65 62 61 63 62 59 57 67 64 64 74 62 61 53 58
56 62 63 52 39 33 38 40 40 38 38 42 42 37 45 36 34 38 44 50 56 62 68 68 69 69 73 73 71 69 65 68 68 67 66 66 71 62 51 50 51 59 64 72 61 62 62
42 62 67 65 54 41 36 40 44 45 42 40 44 39 43 40 40 43 46 50 60 66 69 73 74 78 78 81 76 73 73 74 72 69 69 75 74 49 52 54 62 59 72 73 66 68 65
27 44 66 78 72 55 39 41 52 50 51 43 43 42 43 43 47 50 47 55 66 67 73 71 73 79 83 85 82 82 82 81 76 74 73 73 48 61 66 62 67 61 67 72 65 67 68
23 34 64 80 85 71 55 47 51 52 52 57 46 47 44 46 52 51 53 57 60 69 75 68 73 80 87 89 87 88 89 89 84 73 77 80 61 65 64 63 60 61 46 66 77 82 78
31 28 39 72 70 77 71 59 56 60 60 70 51 51 48 49 59 62 54 58 62 74 79 70 82 85 87 91 90 86 89 92 86 80 83 76 65 63 62 58 57 51 50 62 75 94 81
46 36 23 52 86 89 83 68 62 64 64 72 63 54 56 59 62 64 58 58 67 80 78 78 89 90 90 90 94 93 86 91 87 89 84 72 76 74 67 63 63 52 56 68 96 96 91
50 58 45 31 80 98 99 82 69 67 66 73 71 60 63 66 67 60 60 66 77 76 68 93 94 92 91 94 93 96 91 88 85 88 89 90 75 82 86 90 81 73 68 94 99 98 88
62 61 55 41 75 96 99 86 72 73 71 78 71 65 68 74 76 70 65 73 76 56 81 94 96 96 96 94 96 96 93 89 81 82 90 86 74 73 75 85 83 79 83 99 93 94 71
66 69 61 56 77 98 98 93 75 80 77 83 75 68 72 82 80 74 68 75 60 78 92 97 97 96 86 93 97 93 86 95 79 77 98 97 87 79 75 84 91 87 96 89 98 61 64
76 75 70 57 88 98 99 96 82 84 80 84 77 73 75 88 85 78 73 70 68 87 96 97 96 69 77 88 88 83 76 72 80 84 85 89 97 81 88 94 84 86 81 98 93 67 71
76 76 72 59 95 98 98 93 81 96 84 86 76 75 75 89 86 79 75 66 82 93 96 97 71 64 67 76 73 62 61 69 72 74 85 96 97 95 92 88 88 98 98 95 89 70 63
70 74 74 83 96 97 99 89 86 98 93 88 76 77 77 85 85 77 77 71 94 95 96 95 68 63 56 73 69 70 75 80 69 76 88 96 98 98 86 78 88 91 91 90 74 71 61
69 73 85 96 98 99 97 93 91 93 91 78 76 78 81 83 81 80 74 88 96 97 96 90 57 49 55 58 64 64 75 72 73 82 88 96 98 95 91 96 95 96 90 76 74 65 66
67 83 95 95 97 98 97 98 98 93 85 75 77 82 83 83 81 81 78 90 97 96 95 81 55 52 56 57 58 82 67 71 71 72 84 97 95 98 93 78 72 87 81 71 72 68 59
59 74 85 94 96 97 94 95 99 98 80 76 77 76 77 83 82 77 84 90 97 98 93 80 59 53 56 59 61 57 70 67 71 73 83 96 97 90 74 68 73 77 75 71 67 62 61
48 65 80 97 95 98 96 93 96 98 81 80 79 75 80 83 82 79 74 80 97 97 97 84 69 66 63 55 54 53 58 68 66 78 82 88 91 79 72 70 70 70 69 66 65 64 59
38 56 89 91 90 98 96 98 99 96 77 78 76 75 80 82 81 76 72 76 95 97 96 91 78 72 71 61 63 56 61 61 75 75 78 84 85 76 72 64 63 63 61 60 60 58 58
31 49 76 85 90 96 94 98 99 92 80 80 78 81 86 84 75 66 64 71 93 96 97 94 86 85 77 74 68 67 76 70 72 80 74 75 77 79 72 64 72 58 54 51 53 55 52
37 60 71 81 90 96 97 98 97 80 78 81 82 85 87 85 83 65 53 75 91 96 98 96 94 86 81 76 79 79 95 88 82 78 81 81 80 81 82 77 69 61 55 52 52 52 50
35 53 71 75 84 91 94 98 93 88 79 83 83 85 87 86 85 70 57 89 97 98 98 97 96 90 92 92 84 89 88 87 91 89 86 84 83 89 85 82 80 62 54 51 51 56 51
32 49 63 78 84 91 90 92 92 87 82 82 84 84 87 85 87 75 66 89 97 98 98 96 96 96 95 91 85 86 85 76 86 86 91 93 93 93 93 87 76 63 60 54 57 59 52
29 44 53 76 82 87 88 97 98 87 81 81 82 83 84 85 87 74 66 89 96 98 96 93 95 96 97 93 88 86 81 81 84 82 88 88 89 86 92 89 83 66 67 63 63 58 56
28 39 55 73 86 89 87 97 99 83 83 79 82 80 83 87 88 74 68 88 93 97 97 95 94 91 89 87 83 83 77 74 77 90 81 85 77 81 79 72 69 67 69 66 65 63 64

GFSGBSN_prec_cthk_009.txt.gz
RH
48 38 31 24 24 26 31 35 35 34 29 26 25 23 20 23 33 38 43 46 46 45 46 46 48 49 53 53 57 58 53 51 50 49 49 55 55 54 52 52 51 50 46 47 39 39 41
49 49 44 35 27 27 23 32 37 34 36 31 28 28 22 21 28 37 44 48 48 46 47 49 50 53 57 58 49 51 55 56 56 55 55 54 56 57 57 54 55 55 53 46 45 43 44
50 53 50 48 38 28 28 27 34 36 37 37 32 28 26 21 24 32 41 48 53 48 47 49 49 53 58 54 53 57 61 60 59 56 56 59 59 64 62 56 52 54 54 51 45 43 45
45 56 56 53 50 37 29 31 36 34 36 39 39 34 29 26 22 28 35 45 51 57 55 53 51 52 55 52 50 56 60 62 60 59 60 60 63 59 63 63 56 58 57 59 54 50 42
40 42 54 62 58 48 40 30 38 41 37 37 41 40 33 34 26 29 31 40 47 52 57 57 53 52 50 49 48 51 57 60 57 56 58 54 57 62 62 68 68 68 66 67 60 54 59
20 28 44 55 61 61 50 41 33 39 43 49 40 41 40 40 33 32 33 38 44 53 55 56 53 56 50 53 53 55 62 65 64 63 63 59 55 56 61 72 72 67 70 61 64 53 63
20 20 25 40 66 62 70 55 42 38 45 50 52 51 40 41 40 35 38 40 44 47 50 50 51 48 50 54 60 64 65 72 73 71 70 63 65 65 62 59 64 62 61 62 54 58 66
28 26 19 28 46 69 71 69 58 44 42 47 52 54 51 40 41 39 45 46 42 46 52 55 54 56 56 62 67 70 74 75 75 76 76 72 64 66 60 58 59 59 66 60 59 65 73
27 32 34 24 37 54 65 74 70 54 45 47 49 55 55 48 40 45 48 51 50 53 57 54 48 53 59 67 75 80 81 80 80 83 80 72 65 65 68 67 67 64 66 60 59 61 72
33 32 36 36 22 50 55 87 86 69 56 57 58 59 56 48 45 46 52 51 55 58 59 53 56 61 67 78 80 85 84 85 88 86 87 77 73 68 74 71 68 68 54 57 60 68 77
37 43 35 40 42 29 58 97 94 91 69 64 62 62 57 48 54 50 53 56 59 58 63 56 62 63 75 83 82 82 87 92 90 87 91 80 74 75 74 58 75 61 60 62 65 68 81
41 49 53 54 53 41 49 87 98 99 86 76 69 65 63 53 63 61 60 59 63 63 65 63 60 72 84 89 90 88 90 94 97 97 94 86 83 80 68 65 68 65 69 69 71 76 94
42 54 67 63 61 53 39 65 92 98 89 79 78 71 68 64 71 64 63 60 69 66 53 65 69 84 89 91 89 85 93 96 98 99 97 92 85 81 80 77 68 77 80 83 92 90 74
46 66 78 75 83 72 58 55 86 87 98 81 92 83 76 72 74 65 63 69 69 54 58 60 79 88 96 87 79 83 93 98 96 95 93 93 80 76 69 70 69 67 75 78 87 66 54
51 76 87 83 83 82 67 58 86 97 99 87 98 91 71 78 81 69 70 70 61 62 58 77 94 97 91 76 80 88 92 97 84 83 80 84 78 68 65 65 76 68 76 50 88 71 74
52 79 85 87 87 72 76 87 90 98 98 94 99 79 80 86 83 78 73 64 67 61 68 93 97 93 73 73 82 88 83 79 78 72 75 83 91 85 88 84 82 74 54 75 90 84 80
50 71 88 98 94 76 80 96 97 99 94 90 95 78 91 87 84 81 71 74 74 64 81 96 96 89 70 74 77 75 64 62 66 73 86 92 96 87 96 82 76 93 87 66 72 90 97
51 69 80 90 84 84 95 94 98 92 87 97 96 76 90 91 83 73 76 78 74 76 92 95 95 85 68 72 74 67 57 55 76 80 88 94 98 97 88 87 77 87 93 63 70 81 97
47 69 73 79 74 93 95 97 95 90 90 98 98 87 90 88 79 75 77 82 74 89 96 96 94 74 60 64 76 62 56 62 69 88 96 97 98 97 97 98 94 85 79 78 64 86 94
45 56 64 65 92 98 97 95 95 92 91 99 90 98 92 86 73 75 82 84 81 95 96 96 90 72 61 61 63 67 63 67 79 83 93 97 98 99 95 80 74 81 82 87 97 97 68
44 46 59 70 93 98 96 94 95 98 99 98 94 96 78 78 75 78 83 83 86 97 96 96 86 70 60 56 63 66 66 68 81 82 93 96 97 96 89 86 79 75 88 94 98 84 63
42 33 47 74 96 95 94 96 89 88 97 88 85 90 83 79 77 89 86 82 88 96 97 95 92 67 64 61 57 58 65 69 72 87 88 93 98 98 89 91 89 88 91 90 81 70 65
46 41 43 69 85 94 98 98 96 89 99 95 85 75 76 76 78 90 88 76 64 92 95 94 90 83 72 59 60 56 64 67 70 77 83 92 96 93 87 83 88 86 78 74 71 67 63
40 39 42 64 81 95 94 97 99 98 90 95 81 83 92 79 81 89 86 78 68 86 94 93 94 88 73 66 77 63 71 69 69 79 78 84 88 86 84 76 81 67 64 67 66 62 59
50 36 40 58 80 88 92 97 98 99 95 91 84 74 84 82 88 88 85 70 59 87 97 96 94 85 83 84 84 83 85 76 75 78 79 77 82 84 86 82 71 62 57 56 58 56 54
45 38 37 57 76 81 90 95 97 98 97 88 84 83 83 86 89 88 88 86 68 88 97 96 97 92 90 89 84 91 90 89 87 80 80 79 80 83 85 79 75 59 52 53 53 58 53
42 47 40 52 72 80 88 96 98 95 94 86 79 81 85 86 87 88 88 82 78 93 98 98 97 94 91 88 85 87 86 83 90 89 90 89 89 85 83 85 72 64 57 55 61 57 52
44 53 42 53 73 78 86 95 98 98 97 84 79 85 88 82 86 88 88 79 84 94 97 97 98 95 93 93 95 90 81 82 85 81 84 82 90 91 87 86 82 64 63 58 59 56 54
53 39 38 46 68 74 84 95 95 98 94 85 78 85 85 82 85 89 90 75 83 94 97 97 98 95 92 92 88 90 81 82 78 82 77 84 79 81 80 76 68 66 66 65 62 59 61

GFSGBSN_prec_cthk_012.txt.gz
RH
54 62 60 52 48 44 32 31 29 36 40 38 37 30 26 21 23 29 33 39 40 42 42 41 40 41 40 45 49 53 53 51 51 56 56 53 53 52 46 45 45 48 43 41 42 40 41
47 55 59 60 56 51 48 34 32 30 37 39 38 36 31 25 22 27 32 38 43 44 42 42 42 44 48 50 45 49 54 58 57 56 56 53 50 51 53 49 48 46 47 47 45 41 42
17 30 43 48 56 68 58 49 35 36 34 36 38 40 38 29 23 25 29 35 44 48 44 41 42 44 48 44 45 44 49 55 58 60 57 57 55 61 61 57 52 52 52 51 47 46 48
19 16 17 38 41 55 70 58 49 38 39 39 39 39 42 33 28 25 28 33 38 50 48 48 46 46 44 41 43 46 48 51 53 58 60 64 65 63 64 64 63 61 57 59 47 50 49
19 21 19 16 33 34 54 71 65 49 40 45 48 48 43 40 35 28 33 32 35 40 47 49 49 49 43 39 39 41 48 50 52 55 57 65 67 64 65 68 69 69 67 60 56 50 56
25 26 23 25 17 32 47 56 70 64 52 48 48 52 51 44 40 34 37 36 38 40 47 50 48 46 39 39 42 43 48 52 55 56 56 62 66 66 66 70 67 65 63 58 56 59 58
24 25 26 26 27 22 35 46 54 71 65 53 47 50 55 54 49 40 40 41 42 42 44 42 42 40 39 43 43 45 48 54 59 62 66 66 69 64 60 61 65 65 64 60 61 63 60
25 29 30 30 29 28 21 41 59 63 75 72 54 54 56 56 56 50 41 43 42 41 42 42 44 46 49 53 52 51 52 58 62 68 72 76 73 65 64 60 61 61 66 64 61 62 63
29 26 36 34 34 28 36 32 55 86 78 75 64 58 58 60 57 53 45 46 46 47 48 46 44 50 52 55 59 59 61 66 71 74 78 80 68 63 67 68 70 64 64 62 61 53 55
35 34 36 39 38 44 36 30 48 88 85 86 75 60 65 62 58 53 51 53 53 52 54 46 49 53 56 60 63 65 69 73 80 80 86 84 76 71 71 74 73 71 65 64 63 67 68
37 41 39 43 55 57 56 45 38 45 84 89 89 75 69 62 55 49 52 57 58 58 50 47 55 59 61 61 64 68 76 82 87 86 89 84 78 81 77 73 77 74 71 69 69 72 77
41 47 44 53 71 69 63 59 34 59 92 98 99 96 72 67 53 52 57 63 67 66 55 55 58 62 65 68 71 77 84 89 90 90 85 84 85 85 77 76 74 81 83 82 81 81 85
45 43 43 70 81 80 71 70 52 71 98 98 99 96 78 69 55 59 68 72 69 70 49 61 62 66 63 71 79 86 85 81 83 87 89 97 93 89 87 88 83 82 87 94 97 92 73
50 46 50 72 86 86 93 88 53 60 96 94 98 95 92 71 64 69 75 71 74 53 55 60 65 65 71 78 88 70 72 76 81 91 98 96 95 92 80 80 84 84 81 87 92 90 66
52 49 53 76 97 95 95 92 75 72 90 95 95 92 98 86 74 70 73 75 63 54 58 66 66 73 85 89 70 68 76 76 77 84 93 96 92 78 73 75 81 83 93 64 85 82 87
50 46 60 78 89 97 95 91 69 69 85 91 93 95 86 88 80 77 79 73 65 62 72 69 69 80 89 78 67 76 77 64 71 76 81 73 77 65 69 76 76 74 69 90 87 93 78
47 51 68 76 83 89 89 98 82 81 76 90 99 94 97 93 85 82 80 75 70 74 73 70 78 93 87 67 65 67 60 55 59 64 73 81 87 87 88 83 81 86 88 81 67 70 88
54 46 68 65 78 78 98 98 77 82 90 97 99 99 96 96 93 80 86 75 76 79 75 74 87 95 78 61 67 69 61 55 56 65 86 84 97 96 88 85 90 81 71 71 76 63 64
57 46 60 56 66 65 93 97 91 82 90 98 98 98 99 93 91 83 84 74 78 82 78 88 95 94 71 62 68 67 64 56 65 79 88 96 97 97 93 94 88 95 75 69 73 63 68
56 50 42 47 56 64 92 97 98 96 98 99 94 99 97 89 98 92 80 73 79 84 83 92 96 91 73 67 62 66 67 65 74 81 91 97 97 96 90 98 86 84 79 73 80 73 71
55 53 42 31 49 73 90 94 93 97 98 91 96 96 77 85 87 88 79 73 82 86 91 96 97 86 77 65 61 68 70 75 81 87 96 98 98 98 96 91 97 96 84 90 92 75 72
54 52 49 31 43 74 87 90 95 98 95 97 97 97 88 79 84 89 77 77 82 87 93 97 98 87 78 66 55 59 64 72 82 91 96 97 97 98 93 89 91 84 82 81 87 92 89
54 53 50 36 46 69 89 93 98 98 95 98 96 95 90 91 89 83 81 83 85 81 86 95 95 90 80 66 60 61 66 73 78 84 95 97 99 99 98 90 96 97 88 89 96 96 95
44 53 52 44 49 68 88 91 96 97 97 97 98 93 95 94 90 76 83 89 89 77 73 92 96 94 83 72 62 60 71 76 72 74 81 93 95 93 98 97 85 74 84 90 93 94 93
48 48 51 55 52 66 78 92 97 98 96 99 91 84 83 83 77 77 84 90 89 69 66 92 96 95 92 79 76 80 67 73 73 70 78 85 88 92 91 87 73 68 70 83 85 78 74
47 49 48 50 50 62 85 92 95 97 97 98 99 95 84 80 85 80 87 89 90 84 73 92 96 97 96 88 88 87 77 73 77 78 75 80 83 86 90 85 78 62 59 63 63 68 61
47 50 53 43 45 58 81 92 97 97 98 99 98 98 86 85 86 84 88 89 88 79 78 94 97 99 97 91 90 89 79 77 82 73 80 82 89 87 88 88 77 67 59 59 64 59 54
52 52 52 39 47 58 72 88 96 98 98 98 97 97 91 81 79 88 87 89 88 80 92 96 98 99 97 98 93 85 80 79 79 76 79 79 84 83 86 87 82 67 61 59 58 56 56
46 45 50 42 37 51 67 86 96 97 98 99 97 92 81 79 85 88 86 89 91 77 90 97 97 98 97 93 88 82 87 84 77 85 76 77 74 80 78 75 69 68 66 63 59 59 59

GFSGBSN_prec_cthk_015.txt.gz
RH
22 25 34 45 56 65 65 59 45 44 38 34 39 40 40 35 27 30 32 35 40 43 44 44 42 40 39 46 47 45 45 47 48 52 56 61 58 56 53 49 45 49 43 42 42 42 44
17 16 19 24 29 50 55 69 68 49 45 38 33 45 40 39 34 27 33 34 40 44 46 47 45 45 45 44 37 43 47 48 49 53 57 59 55 54 56 53 51 47 47 45 45 43 43
18 20 19 16 17 28 31 57 75 69 55 49 39 44 44 42 40 31 32 34 39 43 47 47 45 44 46 41 39 39 46 48 49 51 51 53 54 58 63 59 55 53 51 46 46 44 45
21 23 23 24 20 16 24 35 55 76 71 54 45 46 43 47 43 35 29 34 38 44 48 50 48 48 45 40 38 40 40 46 48 51 51 50 57 58 63 66 65 64 61 58 43 43 47
19 21 24 26 26 26 20 27 38 50 72 70 57 51 49 50 45 39 34 36 37 40 46 49 50 48 46 45 40 39 40 42 45 49 51 55 57 60 59 66 69 66 67 65 58 51 51
25 24 24 25 26 27 27 24 33 39 55 74 71 57 60 55 56 46 36 45 43 40 44 50 50 48 41 38 38 38 38 44 46 49 52 53 58 61 64 67 65 68 76 67 63 56 57
24 24 24 23 26 27 27 25 24 36 49 71 80 72 65 64 55 56 47 49 46 45 46 46 45 43 41 42 41 41 40 44 47 49 53 52 60 63 62 67 68 71 72 73 65 61 60
32 33 32 35 33 29 30 32 24 24 40 53 76 82 77 62 70 60 56 52 45 44 46 46 47 46 44 44 44 46 46 49 52 56 57 60 60 56 59 64 67 68 72 68 64 61 60
36 36 42 39 38 36 35 41 37 31 31 46 59 85 84 78 66 67 59 55 53 51 48 42 44 48 49 50 51 50 51 52 55 60 61 61 54 57 62 65 70 71 74 70 66 58 55
34 37 38 42 41 47 47 57 53 42 32 57 60 82 92 86 79 68 62 60 57 59 61 48 49 49 48 53 52 50 54 57 62 66 70 68 62 67 69 70 75 74 73 72 71 72 72
38 44 46 44 39 62 80 78 67 54 42 54 89 88 98 86 71 73 58 63 63 65 63 49 55 55 56 57 55 57 61 64 66 70 74 70 71 73 75 72 76 76 75 76 77 80 76
42 47 51 53 43 68 79 80 72 59 47 54 97 99 99 99 81 71 68 64 69 67 62 61 60 60 61 60 60 61 66 70 74 80 80 77 76 77 74 74 79 83 86 87 88 86 81
43 46 55 51 47 71 85 94 84 66 52 62 89 98 98 96 86 70 64 69 74 69 52 60 58 62 62 64 64 69 72 76 81 86 80 78 75 73 75 76 80 87 95 98 98 98 82
52 53 51 55 64 79 93 97 92 84 71 67 81 96 98 98 94 75 64 72 70 52 58 58 61 68 67 63 65 72 77 76 69 75 79 79 76 77 77 77 85 89 88 94 94 91 81
57 59 59 54 76 87 93 88 96 93 69 61 81 99 98 99 97 88 68 75 62 51 57 63 67 72 67 66 71 80 70 60 57 64 76 82 81 73 80 85 89 98 97 73 87 83 97
57 58 57 61 75 78 86 93 98 91 74 67 78 97 98 99 94 91 75 66 59 56 61 65 70 65 67 71 82 70 55 51 60 59 69 72 80 67 72 73 77 80 80 97 98 96 92
57 56 57 62 64 73 76 91 98 89 92 86 96 98 98 98 95 94 73 67 61 63 69 73 71 70 73 83 76 55 54 48 51 55 64 75 79 75 77 71 66 76 76 82 88 88 83
58 56 58 53 58 62 67 82 91 97 98 97 91 98 98 99 98 89 73 65 65 75 79 78 73 72 80 88 72 60 56 53 51 60 74 78 88 90 80 79 83 84 76 80 94 80 69
55 56 58 50 54 51 60 78 81 90 97 96 94 96 99 97 91 85 77 70 78 81 84 79 76 78 93 88 71 58 57 52 54 60 75 87 96 96 95 94 96 98 94 86 71 84 76
53 54 59 55 45 43 59 75 74 88 98 96 95 98 98 98 94 85 73 79 86 82 83 82 84 89 96 87 70 57 61 58 61 74 83 93 97 97 93 96 97 96 89 78 73 75 61
51 53 57 59 40 37 63 75 75 94 94 87 92 98 92 91 92 90 87 83 85 79 87 88 87 96 97 79 74 63 64 73 81 84 90 97 97 98 97 97 98 98 84 70 62 49 62
51 48 57 58 51 36 65 82 91 96 92 94 98 98 92 91 88 90 93 90 79 80 90 91 94 95 96 79 65 57 62 73 81 90 94 97 97 98 94 93 94 90 87 77 63 58 63
52 51 57 59 54 41 62 72 87 91 95 98 97 94 91 93 83 91 89 90 82 85 87 88 95 98 95 82 68 61 65 74 84 86 97 98 98 98 98 98 94 93 84 81 78 78 80
53 53 60 60 50 49 60 76 88 92 97 96 97 98 97 93 81 81 90 87 87 92 87 80 91 97 92 82 70 64 68 72 76 79 88 96 98 99 98 98 98 90 93 88 86 88 91
54 54 53 60 57 45 56 73 85 87 90 95 97 99 98 93 84 93 90 86 96 96 91 77 76 93 94 89 76 67 74 72 69 75 82 86 91 98 97 92 83 82 96 96 96 95 92
54 53 54 53 53 49 51 73 87 88 89 89 93 94 97 96 94 92 88 84 96 97 95 86 77 93 97 96 87 77 76 68 74 71 77 86 89 90 90 92 77 67 77 85 92 89 83
51 54 45 43 50 39 54 71 88 92 90 91 94 98 92 87 88 84 81 85 91 94 94 82 81 95 96 95 92 84 79 71 78 76 70 76 78 83 77 86 77 68 60 69 83 65 66
46 51 42 47 46 37 49 74 90 94 94 94 92 97 95 92 88 87 84 89 92 94 93 86 97 98 98 97 92 87 80 75 73 74 78 77 82 83 77 84 77 69 61 63 60 57 59
44 52 37 37 41 40 49 70 90 93 94 94 99 98 98 96 91 87 85 91 92 93 90 83 95 98 96 96 88 87 84 77 73 77 75 76 74 80 75 73 68 69 65 60 60 61 62

GFSGBSN_prec_cthk_018.txt.gz
RH
17 19 19 16 16 25 29 47 56 59 67 54 51 41 50 46 42 37 30 31 34 38 43 46 46 44 44 50 49 46 45 47 49 56 62 59 56 55 51 49 47 49 43 40 37 37 36
17 17 20 20 16 16 17 21 43 48 55 75 63 56 51 50 46 41 33 32 34 39 42 47 49 50 48 49 43 46 48 47 51 56 59 59 61 61 59 57 54 50 47 45 43 39 38
17 19 17 19 23 21 17 17 17 29 51 73 75 66 55 58 46 44 40 33 35 38 42 46 50 50 50 46 45 44 49 48 50 55 61 62 61 55 55 56 53 53 53 50 45 39 40
20 23 22 24 22 24 26 24 21 17 38 59 82 73 64 60 58 49 44 36 37 41 44 47 50 53 48 43 42 44 46 48 48 49 50 50 52 54 55 54 57 59 59 60 49 44 41
26 25 26 26 25 26 27 27 26 26 20 45 62 82 75 62 70 57 49 39 39 43 49 49 50 53 51 47 46 44 44 43 47 47 48 49 50 51 52 55 57 55 60 61 60 54 52
27 26 26 26 27 30 28 27 27 28 25 25 46 74 84 78 73 69 59 46 50 47 45 50 48 50 45 42 40 41 44 44 43 44 48 50 52 55 56 58 60 56 61 59 59 58 57
33 33 37 28 30 29 36 34 35 34 35 24 39 53 60 78 79 78 67 60 57 55 47 46 46 43 39 41 40 39 39 43 45 47 51 50 54 57 56 56 56 60 63 66 62 59 61
36 40 39 49 46 38 33 40 45 39 42 31 29 41 76 86 88 83 71 60 58 48 46 45 45 44 43 44 44 44 42 43 49 52 51 53 53 50 51 57 59 60 62 63 59 58 56
39 32 41 47 43 44 33 49 54 56 58 47 29 36 81 88 95 88 76 63 58 55 51 42 43 46 46 48 49 47 48 49 53 57 58 55 48 47 53 57 62 63 66 66 63 58 55
29 33 41 42 40 47 42 59 72 70 65 57 39 27 65 97 99 92 82 80 62 58 61 50 49 45 46 52 50 48 49 51 57 57 60 60 52 56 59 63 66 68 63 67 69 74 71
32 41 44 51 53 52 46 68 80 79 70 60 43 26 65 98 99 95 81 84 66 60 72 53 58 57 56 51 50 52 54 58 59 62 63 58 60 61 67 64 72 71 71 76 78 82 81
40 44 51 57 55 61 60 76 92 95 85 72 43 40 57 96 99 98 93 82 69 68 69 61 60 62 64 59 58 60 61 62 64 63 62 59 64 69 69 71 76 81 84 87 90 90 87
44 43 53 56 62 63 77 82 95 96 92 75 52 78 62 77 98 98 96 87 77 75 55 61 59 60 62 64 63 62 65 69 68 72 73 73 72 73 73 74 77 82 91 91 94 93 76
42 46 54 55 69 67 73 88 90 93 99 84 65 76 91 86 99 98 93 84 77 58 60 58 58 60 61 60 64 68 68 68 73 76 75 73 66 62 64 64 71 81 85 95 95 90 81
45 49 56 56 66 68 66 88 86 94 98 82 68 87 97 91 99 97 93 89 66 55 56 58 62 62 65 65 65 65 67 68 60 61 65 65 59 56 60 65 74 84 88 73 93 91 97
44 52 57 57 61 70 61 73 84 84 97 83 74 83 91 96 99 97 89 81 58 55 59 59 60 57 65 65 67 70 67 52 49 49 57 59 68 57 61 66 63 74 85 96 97 97 93
43 59 58 57 63 63 58 64 80 79 96 84 74 84 90 90 98 98 89 79 57 62 59 60 61 64 62 67 69 70 68 48 45 49 59 66 73 72 73 74 73 83 79 81 84 94 92
47 59 57 55 66 56 52 68 72 84 92 88 82 86 92 98 98 97 89 79 65 65 65 63 62 65 69 71 74 80 75 49 47 53 60 64 80 86 78 77 80 83 83 83 86 74 74
50 59 56 55 68 54 45 68 72 79 94 91 89 89 94 97 96 88 85 84 68 69 68 68 74 73 72 75 82 86 68 47 52 57 63 68 87 94 89 88 89 97 91 89 86 89 76
48 59 56 61 65 57 35 65 76 80 89 92 91 93 99 98 96 89 87 75 72 71 78 79 82 78 79 83 90 83 68 55 57 66 79 85 94 95 95 91 97 98 97 98 98 95 71
50 56 54 60 69 55 38 60 72 86 90 98 97 95 94 91 91 89 87 78 76 84 81 84 87 79 87 96 94 86 68 57 68 80 90 94 95 97 96 97 98 98 95 93 88 76 74
51 54 51 58 59 50 44 53 78 94 97 95 98 99 95 91 92 91 89 80 85 87 84 84 84 85 94 97 88 71 66 60 69 84 93 94 94 98 96 94 98 94 86 78 74 71 65
54 54 53 52 57 59 55 64 85 95 97 97 97 98 95 94 94 93 87 88 87 82 76 76 85 94 97 96 89 73 65 64 78 81 90 97 98 97 89 96 98 98 86 80 77 73 68
53 54 54 52 53 60 51 63 81 97 95 98 98 96 96 98 95 87 88 91 92 87 86 89 93 96 95 96 91 80 69 70 70 76 86 95 98 99 96 98 98 92 93 84 79 76 82
48 52 55 44 45 64 48 56 75 87 88 94 98 98 97 96 93 87 90 92 89 88 92 94 83 81 87 94 92 82 76 71 61 70 79 89 95 95 99 97 89 83 96 94 92 84 77
42 36 50 43 47 56 45 56 72 81 84 91 94 98 98 96 86 82 85 89 89 95 98 96 94 81 89 97 96 89 74 71 70 76 83 88 90 95 95 95 90 80 89 92 88 92 82
42 39 43 39 36 49 46 50 67 79 84 92 96 94 93 95 93 85 89 90 85 90 96 97 94 85 92 98 98 96 84 71 73 80 82 85 88 87 86 85 81 73 76 83 82 73 74
38 36 37 34 32 44 47 49 59 77 84 88 90 91 96 97 93 91 86 84 88 90 96 96 93 91 96 96 97 95 89 78 76 75 78 76 80 88 82 85 75 66 69 67 62 59 65
29 34 35 33 31 38 46 52 60 79 85 86 88 93 95 96 89 87 86 90 90 93 96 95 88 90 97 98 96 93 92 83 76 75 76 80 73 78 76 75 69 71 67 62 59 60 60

GFSGBSN_prec_cthk_021.txt.gz
RH
22 23 23 21 18 16 17 16 17 23 41 62 64 59 68 53 65 54 45 37 29 35 39 42 43 43 46 53 51 50 49 50 51 54 61 60 53 46 45 44 44 46 40 38 36 35 33
22 23 24 23 27 26 23 25 19 16 19 26 55 46 58 68 57 66 50 42 33 37 40 43 45 48 50 52 48 48 50 50 52 55 63 62 63 58 56 55 54 50 49 46 43 40 37
29 24 26 28 28 27 27 27 27 26 22 20 26 48 67 72 65 66 56 46 37 39 42 43 45 48 52 49 46 45 49 53 54 55 57 64 62 61 61 61 58 56 54 48 45 43 41
30 29 29 29 28 27 24 26 27 26 27 27 22 35 64 75 76 70 71 54 44 45 50 44 44 47 50 48 47 48 50 53 55 59 58 62 64 63 61 56 56 57 56 52 47 48 44
30 31 32 29 29 29 29 28 30 32 35 28 26 24 62 75 79 80 73 67 51 47 51 51 47 46 49 51 50 46 48 52 53 54 53 53 54 54 53 55 55 54 55 56 48 45 49
36 39 41 40 37 32 34 30 29 33 35 34 32 25 37 72 81 85 83 75 63 49 55 59 50 47 43 46 47 48 49 52 54 55 55 52 51 50 50 52 54 53 57 53 50 46 48
42 39 40 41 39 44 42 36 33 34 40 46 41 36 23 53 88 89 86 78 71 61 54 47 48 46 41 42 42 44 45 50 50 48 51 51 53 52 49 50 49 52 55 56 54 50 50
34 40 38 38 40 41 42 43 43 38 54 53 57 46 29 27 79 98 94 79 66 52 53 46 51 50 46 44 44 46 43 47 48 50 51 52 53 48 49 49 52 54 57 54 52 50 50
36 38 38 38 41 44 45 44 49 58 75 68 55 54 40 24 81 98 92 89 72 63 55 46 45 49 49 47 46 46 46 47 48 51 51 52 47 46 52 55 56 56 60 58 56 55 52
41 42 38 37 41 44 51 51 62 73 80 76 66 59 42 29 57 98 97 97 80 70 62 52 48 46 50 51 49 46 47 47 52 52 51 51 50 52 56 57 58 62 58 60 62 66 61
40 35 35 38 44 49 53 57 73 78 83 87 83 68 48 34 45 96 97 97 91 76 61 54 59 57 53 52 45 51 51 52 55 53 54 53 55 59 60 57 61 61 59 63 68 74 71
38 36 38 44 51 51 57 68 75 78 93 98 93 73 50 39 66 96 98 97 91 84 70 62 61 62 60 59 56 56 56 58 58 59 58 57 58 59 60 61 65 68 72 75 80 82 81
37 36 39 46 55 54 63 71 70 81 92 99 95 93 59 46 84 98 98 98 95 83 61 63 60 65 63 62 61 62 66 66 64 68 67 64 62 63 59 60 61 67 78 83 84 87 72
39 35 42 54 57 57 67 69 61 73 79 96 89 93 68 54 86 97 99 98 93 70 64 60 58 63 64 62 63 65 65 67 64 65 71 70 57 53 54 51 54 61 63 68 75 75 66
37 40 49 58 60 59 63 71 66 71 89 98 93 82 66 71 95 98 98 97 86 67 59 60 64 64 64 62 62 61 63 62 60 70 72 62 55 51 54 59 65 77 76 67 80 70 84
42 48 57 60 59 64 58 63 58 79 89 97 90 88 74 82 96 98 98 94 80 69 60 57 64 63 65 64 67 66 63 58 62 59 53 56 61 50 55 65 69 79 77 84 90 87 79
46 50 57 60 58 66 54 54 65 83 92 94 78 90 88 90 90 98 98 91 82 76 64 58 58 62 59 63 65 67 65 56 57 54 51 56 58 55 62 68 73 91 92 96 96 94 88
45 49 56 59 67 67 53 54 69 79 92 96 92 90 87 91 98 98 97 87 82 77 68 61 61 60 64 65 70 67 70 67 60 56 55 53 64 68 64 66 75 82 85 89 97 83 91
43 45 55 55 66 57 51 51 67 72 91 86 91 96 91 86 97 98 94 87 83 80 67 61 62 60 63 68 73 71 73 70 67 54 56 61 78 84 75 82 85 94 90 92 96 95 93
42 46 54 55 56 55 44 46 64 76 88 86 96 98 97 97 96 94 88 90 90 77 67 63 68 66 72 74 71 75 80 74 65 56 60 76 86 86 80 81 94 98 94 97 98 96 81
46 46 51 53 55 55 47 49 56 82 98 98 97 95 98 97 95 89 86 85 89 74 69 71 79 79 79 81 81 84 85 78 66 63 76 84 88 93 89 88 93 98 92 89 85 77 83
43 45 44 55 50 52 55 56 75 92 98 99 97 98 93 93 93 87 87 80 74 76 77 85 85 80 81 83 87 88 75 72 68 68 82 88 90 95 91 92 97 96 94 83 73 72 70
41 39 40 48 42 58 56 55 76 89 90 93 98 96 95 92 91 84 86 83 75 84 86 82 81 82 84 86 88 86 76 68 69 78 84 90 96 96 87 88 97 97 93 82 70 70 69
39 37 34 43 39 57 58 54 68 83 94 96 96 98 97 91 85 87 86 83 85 88 88 86 84 82 88 90 90 83 79 74 76 73 82 87 93 97 93 95 97 96 92 86 84 80 77
38 35 33 40 35 47 53 49 63 82 92 95 97 97 98 93 93 90 86 86 90 92 92 90 85 87 89 90 86 84 80 80 67 70 77 83 90 97 97 97 92 91 94 94 95 93 78
32 33 32 37 31 41 49 47 60 72 86 94 98 99 99 97 92 85 88 91 93 92 95 97 93 89 84 83 92 90 82 81 68 73 84 86 88 95 96 98 97 84 86 92 89 83 79
26 31 29 35 32 37 49 45 50 64 79 90 92 96 98 98 90 80 82 87 89 93 96 98 97 96 91 88 95 95 87 81 74 75 84 87 89 89 90 94 85 78 76 84 79 77 77
23 24 25 27 22 26 42 45 45 56 73 86 92 91 94 97 91 82 84 90 87 88 95 98 97 93 92 95 96 96 89 82 75 72 77 78 81 88 83 86 84 72 74 72 70 72 74
18 23 22 28 32 24 39 45 43 53 69 79 89 87 89 97 94 90 89 88 84 87 92 96 97 95 91 97 96 95 91 83 77 74 74 78 71 75 77 74 69 70 70 66 64 65 72

GFSGBSN_prec_cthk_024.txt.gz
RH
24 26 27 26 30 29 29 27 26 24 19 16 18 29 55 63 61 59 68 53 47 33 34 37 41 40 47 51 52 49 48 48 48 63 60 54 49 46 43 41 42 39 33 35 35 34 32
24 25 29 26 29 31 31 29 27 26 26 27 22 26 42 62 59 62 67 69 54 41 36 40 42 47 49 50 50 52 53 51 55 59 64 61 61 56 48 46 45 42 40 38 37 35 36
25 27 31 32 32 31 30 29 29 28 25 26 25 26 22 34 59 55 66 77 61 51 37 42 44 47 53 50 46 49 52 55 57 64 63 64 64 65 62 57 55 51 48 43 41 40 39
33 33 34 34 36 35 33 30 28 30 27 28 33 31 23 26 49 74 75 80 71 57 43 44 44 46 50 47 48 50 54 60 62 63 69 66 64 68 63 59 56 52 49 46 42 42 41
34 36 34 37 40 41 39 42 39 33 30 30 33 35 28 23 38 74 83 80 83 63 54 51 48 48 48 50 50 50 58 62 62 64 65 65 67 63 64 62 56 52 44 46 44 41 41
35 34 35 42 42 42 45 48 50 47 36 34 39 44 39 33 27 70 88 89 88 75 65 61 55 49 46 49 52 53 57 62 63 61 61 60 56 54 52 53 46 43 47 42 40 39 40
36 35 37 44 43 39 36 46 47 47 45 42 57 54 48 37 27 68 98 99 87 82 65 61 50 47 45 46 50 56 59 63 66 64 62 60 57 48 43 44 44 45 46 44 41 42 41
36 36 37 35 39 38 42 45 50 52 51 62 78 69 54 42 34 53 98 97 79 73 72 58 52 52 49 48 50 50 53 54 56 58 59 55 52 43 44 44 45 47 48 46 41 40 42
37 36 37 39 40 45 47 54 51 54 73 78 81 82 69 47 39 57 96 98 96 86 73 63 52 53 54 50 49 49 49 50 50 51 50 46 44 42 45 47 49 47 49 48 48 47 45
37 37 37 39 43 47 58 58 57 68 63 80 88 94 91 52 40 57 87 97 98 91 89 70 58 50 53 53 50 49 49 50 51 49 49 49 47 48 48 49 49 49 45 48 51 54 54
36 36 36 39 51 58 67 64 65 71 73 89 92 94 93 66 46 47 67 95 99 97 95 67 64 58 53 50 49 53 52 52 51 49 49 49 49 51 54 49 51 52 50 52 55 57 60
38 41 42 51 57 65 68 62 70 69 68 84 93 94 90 77 55 48 76 98 99 98 86 72 65 62 57 53 52 56 56 54 54 52 51 48 50 53 53 54 57 60 60 60 60 66 70
40 44 50 52 61 66 63 65 69 66 62 70 80 89 96 80 50 55 98 98 98 95 76 75 62 65 61 60 57 54 56 58 55 62 60 58 55 56 58 60 56 61 65 61 69 72 49
45 46 52 56 60 60 66 64 58 61 68 76 92 83 91 69 57 74 98 99 97 83 76 68 64 64 65 60 60 59 62 63 59 60 58 59 57 55 58 53 51 55 58 58 62 52 45
43 46 51 58 56 59 70 57 54 69 73 84 89 93 90 66 57 92 96 98 90 74 72 66 68 65 69 64 61 64 63 61 60 61 64 63 57 46 47 47 50 59 66 60 75 65 77
43 48 49 56 52 61 59 54 57 66 82 90 94 94 82 59 85 88 97 98 79 75 73 67 67 59 62 64 64 61 60 55 57 56 56 65 60 46 48 52 54 60 63 83 94 87 79
43 49 50 53 54 60 55 53 50 74 84 95 98 88 71 87 92 98 97 96 88 81 72 66 66 64 59 60 59 61 58 53 52 55 61 59 54 49 55 55 53 72 83 94 88 89 79
43 48 49 45 57 59 57 41 57 71 83 91 97 76 80 97 93 98 92 91 87 81 73 64 61 64 59 58 59 60 58 56 54 57 63 58 57 53 56 58 64 67 77 85 96 90 93
44 45 46 44 59 53 50 36 50 74 82 90 98 93 92 98 98 97 98 95 88 84 77 68 60 62 58 61 64 60 62 60 60 61 61 60 62 65 68 73 75 84 80 83 89 87 88
41 43 40 39 52 46 48 41 59 86 94 92 96 98 90 91 93 91 91 95 94 85 76 72 65 64 65 62 61 66 67 66 66 68 65 58 61 74 71 72 82 97 91 91 91 87 77
37 41 35 35 50 48 50 36 63 88 98 97 96 93 88 93 91 87 89 90 86 83 74 66 62 62 64 67 70 71 71 70 76 70 65 66 80 78 82 83 89 92 92 93 88 74 81
36 40 35 35 46 45 59 46 61 79 90 95 89 84 87 91 85 81 87 85 83 77 65 62 64 72 72 76 73 77 77 78 69 68 72 79 81 87 91 84 87 94 95 92 83 73 70
33 35 32 32 38 43 55 55 57 72 86 88 85 80 89 87 90 85 82 75 73 70 66 73 79 77 78 77 80 80 84 72 64 70 77 80 88 95 91 84 87 95 94 90 85 83 72
33 31 32 31 32 38 54 60 55 68 84 88 85 80 88 85 83 82 78 73 72 75 79 81 79 77 81 83 84 83 82 76 78 74 76 81 91 96 95 93 96 95 94 95 95 83 78
28 25 30 28 30 32 43 50 55 67 82 89 88 90 90 85 78 77 78 74 82 84 85 83 85 83 83 85 86 85 72 78 75 73 76 82 88 96 98 97 83 89 87 93 92 88 79
29 24 23 23 24 19 34 42 47 60 78 92 94 93 92 89 82 80 78 78 83 85 82 87 88 81 82 79 82 88 75 73 73 74 82 89 89 94 97 97 90 81 85 84 86 77 81
28 26 23 23 22 22 24 38 46 54 73 88 94 94 93 90 84 83 80 86 87 88 93 96 97 94 93 90 85 91 78 80 74 71 84 88 91 91 92 94 79 74 78 82 79 77 78
24 27 25 20 17 23 28 36 40 44 66 81 89 92 90 92 87 78 81 83 84 88 90 96 96 95 95 89 94 93 91 80 78 67 73 77 83 89 89 88 82 71 72 75 76 78 80
26 26 27 24 13 17 16 26 35 44 57 71 85 86 91 90 86 81 80 83 83 83 91 96 96 94 92 93 93 94 91 81 77 68 72 77 69 71 75 70 69 70 70 69 69 72 77

GFSGBSN_prec_cthk_027.txt.gz
RH
21 22 23 25 24 27 28 29 29 27 25 24 24 25 25 17 33 42 53 58 72 65 48 35 36 38 45 51 55 51 49 47 47 59 58 50 42 42 39 34 33 38 35 34 34 36 36
24 26 30 28 29 32 31 31 30 28 29 27 26 26 26 24 23 58 63 61 68 70 54 42 40 42 48 53 55 55 52 53 51 56 63 61 53 49 46 45 42 42 39 35 37 33 32
33 33 32 32 31 31 33 34 34 34 32 32 27 27 27 26 21 43 66 65 65 70 65 44 44 47 53 52 51 53 55 56 58 56 68 70 65 59 53 48 46 44 43 40 34 34 36
34 33 33 31 34 41 39 38 37 42 40 38 31 30 32 31 24 33 52 62 66 76 72 51 46 52 52 50 53 50 53 60 60 66 67 74 69 70 68 60 51 47 45 43 36 37 38
35 35 35 35 35 37 39 44 47 48 50 52 38 34 35 41 36 28 38 61 61 80 75 64 52 52 52 46 50 55 55 64 63 65 77 81 75 72 68 65 58 53 49 46 44 43 42
31 37 37 36 36 43 43 50 49 48 52 54 51 44 49 52 48 36 31 57 86 98 81 80 62 55 49 49 54 54 59 69 65 68 71 75 74 71 69 68 59 51 50 48 45 41 41
37 37 36 36 37 42 50 50 51 58 59 63 65 65 73 66 55 41 34 62 99 95 90 74 58 53 52 50 54 57 63 72 70 69 67 68 67 65 58 56 52 47 44 44 41 41 36
37 37 36 36 41 47 51 55 60 67 66 67 80 85 83 75 54 43 41 76 99 99 96 82 65 60 51 53 57 62 65 67 68 69 67 66 62 57 52 48 45 43 42 40 35 34 33
37 39 38 39 45 52 56 60 68 65 67 85 80 87 91 88 69 45 48 88 98 99 97 89 76 61 56 57 56 59 62 68 70 68 67 64 57 51 48 45 46 42 41 39 39 36 35
39 39 45 46 50 56 58 67 68 65 72 80 74 93 96 97 80 44 58 78 98 98 98 85 80 65 57 57 56 54 55 62 59 57 56 53 49 45 43 45 44 43 42 45 47 48 45
39 45 46 51 53 58 60 66 65 67 74 70 77 88 94 86 87 56 47 71 84 99 97 86 83 70 58 56 56 55 55 58 54 51 51 51 47 48 49 45 45 47 47 47 48 52 53
40 47 46 50 56 55 59 71 67 63 65 75 79 73 79 85 81 62 72 78 98 99 97 92 84 70 61 55 55 58 57 55 53 51 50 50 50 48 48 47 49 52 51 54 54 55 57
41 47 45 49 57 54 63 69 62 55 65 74 69 68 72 85 82 59 86 91 98 97 86 89 77 72 64 55 56 57 60 58 53 62 60 53 50 49 49 53 55 56 61 56 62 66 48
42 46 45 49 56 57 63 60 56 53 71 75 73 79 81 85 85 63 94 98 97 91 81 75 74 71 69 59 56 56 58 59 53 51 52 57 58 50 56 55 56 55 53 47 50 47 39
44 44 48 49 53 59 54 58 52 56 68 83 85 93 98 92 77 87 98 97 98 79 77 74 77 75 78 63 59 57 54 53 50 50 59 55 58 51 56 51 48 54 59 47 55 48 56
44 44 47 46 49 53 45 53 49 62 78 89 87 97 95 89 71 82 95 99 86 79 74 71 75 67 67 66 62 61 57 52 54 54 54 60 62 52 52 50 48 49 51 64 74 74 67
44 44 44 43 47 43 47 47 48 66 73 90 98 96 95 76 61 91 98 98 88 84 80 73 65 64 59 61 60 60 59 55 56 55 58 56 54 57 53 47 43 55 65 71 70 85 76
42 42 39 40 47 39 45 43 58 70 89 90 88 82 79 82 96 97 96 97 87 87 82 72 64 64 57 58 63 60 59 55 54 53 57 55 55 59 49 40 49 60 71 76 90 78 86
43 35 36 32 45 39 42 48 78 82 88 78 90 98 98 91 94 96 97 95 90 87 76 71 68 67 60 59 63 58 57 56 52 53 56 60 65 62 54 57 64 69 74 77 86 88 90
42 36 35 34 42 34 42 46 74 82 88 81 79 93 94 90 93 88 94 96 92 85 79 69 66 66 64 62 61 60 60 58 55 58 62 64 62 54 57 64 74 90 85 87 97 95 82
38 36 33 31 41 33 45 49 72 79 83 74 67 83 86 87 85 83 88 92 89 82 77 73 69 65 67 64 61 63 62 62 63 64 69 68 68 66 72 74 83 88 89 89 98 96 94
34 36 30 27 40 32 45 49 65 80 78 77 73 83 89 84 80 80 83 88 84 80 73 69 67 65 69 68 68 69 64 66 68 75 72 65 76 83 85 80 80 86 85 91 95 91 88
33 29 34 25 31 33 40 44 55 68 74 70 74 80 87 82 80 77 78 80 78 70 67 64 64 66 71 72 71 71 72 73 74 69 67 79 87 89 86 82 83 87 96 96 95 93 88
34 30 26 25 19 25 39 42 44 57 70 69 71 79 80 80 76 74 74 70 66 66 65 64 70 73 79 76 75 74 76 77 75 71 74 78 87 93 96 86 88 82 84 87 91 88 77
36 29 28 24 19 16 25 40 42 46 65 70 68 74 83 82 74 73 69 63 63 68 72 74 78 78 78 76 81 75 78 80 69 78 77 82 87 95 95 84 76 80 81 82 90 89 84
38 25 27 26 19 18 19 37 41 39 56 72 73 74 79 79 70 66 65 64 72 78 79 79 79 79 78 81 81 79 84 70 72 80 80 87 90 95 93 93 86 77 78 78 83 84 83
39 30 23 25 17 13 13 21 39 39 53 68 75 78 79 78 77 76 68 74 79 83 85 88 92 87 86 84 82 77 81 72 73 69 76 87 91 96 92 93 76 71 75 81 86 78 84
40 35 25 23 19 17 20 15 26 40 50 64 79 80 82 81 81 79 77 80 85 87 89 93 94 96 96 92 81 82 86 76 75 69 67 75 83 87 89 91 83 68 69 71 73 75 76
41 38 32 27 22 22 20 19 17 35 47 62 78 82 82 85 85 80 81 84 86 86 90 93 96 95 94 89 84 86 88 77 76 75 66 71 66 77 73 71 70 71 72 70 70 68 73

GFSGBSN_prec_cthk_030.txt.gz
RH
23 25 25 28 30 26 28 30 28 28 28 32 32 32 30 29 29 24 24 36 46 59 74 73 40 38 40 48 51 50 49 49 55 60 53 46 38 37 38 34 38 39 37 33 31 30 34
25 31 35 34 34 34 34 40 38 36 33 35 34 35 31 29 30 28 25 33 42 57 74 68 55 41 44 49 53 50 51 51 51 56 59 58 48 41 41 39 42 40 39 37 34 30 30
33 31 36 36 36 37 43 36 38 39 44 43 43 38 36 30 31 36 27 34 52 61 73 76 61 51 49 48 51 49 54 51 57 60 68 68 62 52 49 48 50 48 47 41 37 31 31
39 32 36 37 41 41 38 40 40 46 49 49 50 52 50 37 33 41 39 29 64 72 75 74 65 52 56 49 49 49 52 53 58 58 66 78 70 61 57 53 52 47 48 48 32 31 30
33 39 40 37 37 38 43 45 49 51 57 58 63 63 59 49 50 51 48 34 58 76 73 83 74 66 49 47 48 51 51 57 61 70 68 84 82 73 68 60 59 54 56 49 44 37 36
41 37 39 40 41 44 44 49 52 59 66 67 71 70 66 65 59 68 55 38 41 84 77 87 85 73 52 44 46 48 55 62 62 70 90 87 81 73 68 66 64 60 60 56 51 48 42
35 40 43 44 47 44 47 56 59 69 71 69 71 76 73 78 76 68 57 43 38 86 81 83 73 62 47 44 44 49 57 64 65 68 74 88 82 78 69 64 62 62 58 53 50 46 43
37 42 45 50 48 51 54 58 68 70 71 68 78 92 79 95 91 83 60 48 49 64 86 86 89 73 60 48 50 55 59 63 66 73 72 74 75 69 67 64 61 56 54 52 46 41 39
41 44 50 47 50 50 58 57 69 68 68 67 83 83 83 94 98 91 62 42 48 89 89 95 96 76 62 53 51 54 62 65 71 76 75 71 67 63 60 58 56 52 50 48 44 39 36
44 45 51 46 50 50 55 60 68 74 67 63 82 78 87 88 91 96 67 44 70 98 99 98 95 83 66 59 56 58 65 69 72 77 78 75 69 62 57 59 51 50 45 45 43 43 47
47 46 50 47 48 49 59 58 68 66 61 53 74 78 75 78 81 88 72 51 78 98 98 97 91 88 68 62 57 63 67 65 69 72 73 68 62 61 56 46 45 45 43 43 45 48 47
48 47 48 47 47 49 56 57 60 58 57 59 71 69 67 66 77 82 83 66 77 96 97 97 94 88 70 68 60 58 62 60 62 65 62 60 53 48 47 46 46 47 46 46 48 53 61
46 48 47 43 44 49 47 49 60 53 60 61 66 65 64 73 83 83 93 83 85 97 97 94 88 83 67 67 61 59 60 59 58 69 68 56 52 48 47 49 48 51 52 66 71 69 58
45 48 45 39 39 49 44 57 50 56 64 73 85 79 77 82 92 75 86 88 97 97 98 88 88 82 71 67 61 61 62 61 55 53 60 60 55 49 49 49 54 56 58 65 62 63 50
46 46 43 37 38 44 44 56 47 57 71 84 82 87 98 93 96 69 94 81 87 89 85 87 89 89 81 72 59 60 59 57 53 51 57 59 57 50 52 52 54 60 62 48 58 44 55
46 42 39 36 39 41 44 50 60 82 89 87 88 85 97 89 72 78 96 97 98 84 80 83 84 75 78 73 60 58 58 53 53 50 50 56 59 53 56 53 52 52 49 64 65 70 59
48 42 35 36 39 37 41 54 80 87 89 88 85 88 94 80 81 95 97 99 92 84 79 77 70 71 67 69 59 58 54 50 49 49 50 52 56 64 61 58 52 54 56 57 61 69 78
46 42 35 33 40 34 42 65 79 86 78 98 75 87 74 78 86 91 98 98 91 86 79 69 67 63 61 63 62 55 55 55 53 54 59 61 60 68 59 46 45 51 56 59 75 74 79
47 43 37 26 41 28 45 59 76 85 75 88 86 83 84 77 91 97 98 95 93 85 78 70 71 62 60 65 67 63 60 58 58 58 58 59 63 68 64 58 56 57 57 66 77 81 79
43 37 37 25 36 31 43 50 70 80 68 81 83 77 88 91 87 96 97 96 92 82 79 69 68 67 61 66 64 64 64 61 55 57 57 57 61 67 71 70 64 72 75 77 85 92 83
42 33 33 33 28 33 39 45 57 66 68 70 76 80 82 87 84 87 92 94 86 80 78 72 71 72 64 65 64 62 60 62 57 57 60 63 74 71 60 53 64 73 79 84 94 94 94
39 34 30 28 23 23 34 41 42 57 63 66 71 77 77 76 77 82 91 96 84 78 72 70 66 68 65 60 62 60 59 60 62 63 65 68 79 71 66 70 80 83 82 83 88 93 93
39 35 31 28 23 20 22 35 38 50 58 64 65 75 80 72 72 74 77 74 74 70 71 68 67 63 70 72 67 66 67 68 69 69 68 71 72 80 82 80 82 90 83 89 91 90 92
40 37 34 31 26 21 19 29 35 39 56 64 70 77 77 72 69 71 67 67 68 68 63 61 64 64 73 71 72 72 72 69 71 73 66 69 84 89 95 89 95 82 81 84 87 88 92
42 39 36 33 27 22 18 18 32 32 49 58 64 67 68 73 67 65 65 62 60 63 64 65 66 70 71 71 74 76 76 74 75 72 70 78 87 92 97 91 80 78 82 82 86 90 88
44 41 37 36 31 23 21 11 14 28 37 62 64 65 71 74 67 68 62 58 61 65 68 73 74 75 74 75 73 73 76 76 84 75 82 88 90 96 97 96 91 78 79 81 87 95 84
46 43 39 37 34 30 25 21 16 22 36 48 69 66 67 74 72 68 65 66 66 72 78 78 79 82 76 74 73 72 71 71 76 79 87 88 92 93 95 94 81 72 73 78 88 83 81
48 44 42 39 37 33 28 23 21 18 31 46 62 75 75 74 75 74 74 70 74 78 81 85 86 88 89 87 82 72 73 76 77 71 79 75 85 91 92 91 87 71 72 77 73 73 77
52 46 42 41 39 35 30 25 23 22 22 43 62 77 78 82 82 78 79 74 78 81 85 88 93 93 95 94 85 80 82 80 77 76 73 72 69 82 79 75 69 72 73 72 71 72 74

GFSGBSN_prec_cthk_033.txt.gz
RH
34 37 34 38 39 40 41 44 46 42 41 42 42 42 44 41 36 32 32 30 31 51 52 58 66 61 39 43 38 46 50 49 53 51 46 38 41 40 41 34 34 37 33 34 32 27 33
39 41 38 40 42 44 43 40 39 41 42 47 52 49 47 45 42 32 29 30 29 47 51 61 70 64 48 44 37 45 50 52 60 67 63 53 42 39 38 36 38 37 38 37 35 31 33
35 42 43 43 43 43 42 45 44 42 49 52 59 58 56 50 48 37 31 35 35 32 41 59 74 69 61 38 48 47 47 49 52 57 64 62 61 46 41 42 42 42 42 39 33 32 32
38 44 43 43 42 47 49 46 43 48 55 61 66 72 72 67 61 52 48 47 43 34 44 63 84 67 57 48 47 47 50 53 53 57 64 69 69 62 53 49 44 44 45 48 35 32 30
46 44 42 44 50 50 49 52 50 57 63 72 76 77 81 78 70 73 69 53 44 33 47 69 82 80 70 50 50 48 49 53 55 59 66 77 81 73 63 57 52 50 54 48 43 37 38
40 43 46 47 50 49 53 49 58 57 68 70 75 77 75 73 74 72 61 65 41 35 59 93 88 88 64 51 46 52 53 57 60 66 69 80 85 84 76 72 68 55 55 52 50 44 44
47 47 47 51 49 48 48 48 53 58 67 71 75 74 81 79 89 89 80 61 40 47 67 94 80 75 56 55 47 52 60 59 65 79 75 77 83 92 94 70 63 58 63 53 48 44 41
51 50 46 51 47 49 46 47 55 57 63 69 70 80 84 88 94 95 95 80 47 75 96 97 82 76 68 62 50 54 65 62 65 69 77 83 84 79 77 75 69 65 62 56 51 47 44
52 50 46 48 46 48 48 50 52 60 63 56 58 76 79 87 85 90 98 76 51 79 98 93 85 78 76 63 52 55 61 66 69 71 68 71 71 82 81 71 66 63 63 59 53 46 41
51 48 47 45 45 42 50 50 56 60 61 55 59 77 80 79 78 81 92 67 44 82 98 99 87 86 80 66 59 63 66 64 68 74 72 68 64 66 68 70 66 65 58 53 48 47 48
50 44 45 43 43 41 46 50 59 58 56 60 65 70 68 68 70 77 86 53 58 81 96 95 98 84 78 66 57 69 69 64 65 67 69 71 68 68 67 64 65 64 54 49 46 47 46
47 39 45 42 40 41 44 48 63 54 53 62 66 65 64 64 70 80 87 70 73 88 94 99 95 83 84 69 62 66 69 63 63 66 68 68 66 68 70 65 60 53 49 46 46 49 58
44 37 41 40 42 40 41 49 60 59 72 74 83 88 74 69 75 78 88 64 77 94 97 98 87 84 80 73 66 68 68 62 63 74 74 70 69 61 58 57 53 51 52 62 62 61 55
42 40 36 38 43 42 38 60 79 82 85 85 81 87 85 79 83 83 72 77 87 95 99 91 85 87 85 72 70 72 66 65 60 58 69 68 64 56 51 52 55 55 51 59 61 68 58
40 38 37 37 42 39 41 72 74 76 87 75 81 88 93 92 77 83 87 86 95 99 97 92 92 87 86 72 68 72 63 58 55 52 56 62 60 54 52 51 51 58 61 55 61 53 62
40 38 37 31 42 38 46 64 66 82 78 76 83 85 87 76 81 89 96 96 97 98 91 85 89 81 83 71 71 64 58 53 51 49 50 55 62 58 57 55 55 55 50 62 62 64 62
41 35 38 31 35 35 44 60 66 79 71 72 77 72 75 91 95 96 97 99 96 95 89 84 81 75 68 69 69 62 59 53 48 49 53 54 53 59 59 59 59 59 55 52 55 61 68
40 33 34 32 32 35 43 55 62 75 72 64 58 74 85 92 96 98 99 99 97 92 79 74 70 74 71 69 70 57 55 52 50 50 53 53 58 70 63 54 51 51 54 56 66 56 68
41 34 30 29 25 29 34 43 50 64 68 62 64 72 81 91 98 97 96 94 92 83 75 71 65 66 64 70 64 54 55 52 52 55 55 57 63 69 65 58 53 57 58 60 62 72 79
43 37 30 26 21 23 28 38 41 53 60 66 65 70 78 85 87 94 95 94 88 80 75 71 64 64 64 69 64 64 61 57 58 60 58 59 65 62 69 65 62 63 59 63 78 91 78
45 39 32 27 27 20 24 34 36 48 53 57 68 71 74 82 88 90 88 86 82 79 71 70 70 67 68 71 68 67 66 63 61 62 60 61 63 68 63 59 58 56 66 78 87 85 93
47 41 35 30 26 21 21 29 32 47 51 51 58 69 72 77 78 78 77 77 74 71 71 70 70 69 62 63 63 59 62 61 59 60 61 64 71 75 68 60 61 80 82 82 88 87 86
47 43 38 33 29 23 15 22 27 40 52 55 59 65 67 65 70 72 71 69 67 66 66 64 63 68 67 67 65 63 59 60 61 63 65 67 73 74 69 65 82 89 86 87 87 87 89
46 43 41 36 32 27 21 13 19 28 51 57 64 66 66 66 65 68 64 64 66 63 60 63 63 62 70 70 65 65 67 68 70 69 66 69 68 75 86 89 93 83 81 82 87 86 89
49 43 42 39 37 31 26 22 17 21 35 57 59 62 63 68 68 64 62 64 63 60 56 58 63 65 68 71 76 78 77 75 74 73 72 65 76 90 97 95 82 82 83 82 89 86 83
54 45 42 42 42 38 30 28 22 18 21 46 60 61 62 67 67 70 65 61 60 59 61 64 63 66 68 72 73 74 78 74 76 77 75 75 87 95 97 98 91 80 77 80 86 92 79
63 49 44 42 44 40 37 33 28 24 17 25 58 63 62 67 70 69 67 65 56 61 67 68 70 72 72 74 72 73 72 70 77 82 78 87 94 93 97 97 84 73 74 78 84 72 75
69 52 45 43 45 41 39 37 37 31 25 19 34 63 67 64 67 67 72 70 61 66 75 76 77 78 79 79 75 72 68 68 73 79 81 84 89 90 97 96 88 75 78 81 73 71 72
73 57 50 41 45 44 41 37 35 40 28 27 21 49 71 73 69 71 71 72 69 75 80 83 86 85 86 85 82 79 76 76 77 80 74 85 73 82 88 80 72 75 75 74 71 69 70

GFSGBSN_prec_cthk_036.txt.gz
RH
34 35 44 44 43 46 44 43 43 46 43 44 49 57 63 61 51 52 46 40 34 29 31 51 61 74 65 61 42 47 44 41 46 43 38 35 38 39 38 35 33 36 33 31 28 27 29
39 42 48 42 43 47 44 45 43 42 43 45 57 64 70 70 68 59 55 43 36 37 30 54 65 77 59 68 43 48 49 52 50 53 45 41 40 38 37 35 36 35 31 31 31 30 31
44 49 42 42 49 50 46 44 45 47 48 54 61 71 75 72 80 73 63 49 42 46 33 52 68 81 65 64 52 49 53 60 58 62 60 50 50 46 39 39 38 39 40 39 35 29 31
48 47 46 49 49 48 43 42 40 42 45 57 65 69 77 77 79 79 73 73 51 49 39 42 68 88 72 66 64 54 54 54 62 70 74 67 67 56 45 45 44 44 44 45 35 31 30
47 47 47 49 48 43 41 43 44 51 51 61 68 70 72 79 83 74 74 73 66 55 40 40 61 74 68 74 62 59 58 55 57 61 74 74 73 67 57 52 50 48 52 48 40 34 33
50 46 50 47 45 41 43 45 48 55 57 67 69 70 70 79 83 85 79 77 67 52 40 37 68 91 83 66 62 59 59 62 61 64 72 84 82 79 71 64 62 53 50 46 45 40 40
50 49 49 44 43 41 43 47 52 61 62 69 64 59 74 82 93 95 92 80 64 52 39 42 73 88 86 76 65 66 58 63 68 73 70 80 90 87 72 69 64 60 58 55 49 42 39
51 48 46 42 40 39 45 45 52 65 71 71 64 56 69 80 84 85 90 95 74 58 47 60 76 89 78 79 73 60 70 66 75 84 78 78 80 86 94 84 82 70 63 55 49 47 45
50 48 43 42 40 39 43 45 56 67 74 66 62 64 72 78 73 73 78 87 71 47 55 71 79 87 85 78 60 57 70 67 70 80 79 77 74 84 86 92 86 73 63 57 55 52 47
50 45 44 39 35 43 41 47 58 67 56 60 65 65 64 66 66 73 78 85 54 49 97 96 98 96 90 75 61 60 70 72 71 77 82 91 76 80 83 84 73 69 60 57 57 54 54
49 45 46 37 35 42 43 46 59 64 73 74 66 67 68 72 66 75 88 66 51 88 97 99 99 95 86 68 63 72 74 71 77 70 68 69 70 71 77 76 71 66 60 57 53 52 50
49 47 43 34 34 40 43 56 65 82 80 88 83 85 84 72 70 84 72 59 80 96 97 98 91 88 81 74 65 75 73 67 76 79 73 69 68 66 63 62 63 62 60 60 54 52 57
51 45 37 34 33 40 43 59 68 67 71 76 81 75 70 77 89 80 64 77 83 95 94 99 90 77 78 74 70 76 71 69 75 78 81 71 71 66 65 68 64 61 60 60 59 62 52
51 46 36 28 34 43 43 58 67 59 65 72 77 72 78 83 88 76 73 81 90 92 95 94 85 82 83 72 72 74 70 73 68 66 74 77 82 70 65 61 61 59 51 54 52 62 56
52 43 33 28 30 42 42 51 64 57 61 65 69 72 78 91 84 88 89 90 95 97 99 92 89 87 87 76 74 74 75 67 63 59 64 73 70 61 56 54 49 55 58 50 58 57 63
53 42 33 27 25 36 40 46 56 52 51 55 58 69 80 89 92 91 92 97 93 92 87 84 86 82 86 73 72 70 68 62 60 59 55 54 66 57 53 51 50 52 53 64 65 64 56
51 44 35 27 20 32 37 40 49 55 53 57 63 71 80 91 95 90 91 93 94 89 81 78 83 75 77 72 66 67 67 56 55 53 51 49 51 59 55 54 56 58 58 55 56 58 62
52 44 37 27 15 30 34 39 43 51 52 52 57 66 81 96 90 94 96 93 90 87 80 75 73 74 72 70 67 65 58 57 49 49 50 47 54 64 61 54 52 55 59 57 62 52 67
55 45 37 28 21 26 32 35 40 46 46 53 57 60 66 76 84 92 92 88 83 80 75 72 71 68 64 65 66 59 52 49 51 50 51 48 54 63 59 57 56 58 54 54 57 63 77
60 48 39 25 17 11 24 28 35 45 44 46 53 57 58 67 71 79 84 84 78 71 64 60 63 63 64 64 61 58 52 53 51 54 53 51 58 57 64 60 59 60 59 59 63 84 81
65 54 42 28 21 12 15 23 29 43 46 48 53 60 66 71 71 73 74 75 71 70 67 61 65 62 66 72 68 61 54 55 57 59 57 57 64 66 63 62 63 64 58 62 79 78 85
65 63 52 36 23 18 10 17 25 40 42 45 52 60 64 66 68 64 66 70 70 70 67 69 67 67 67 74 68 63 60 61 60 61 62 62 70 69 67 61 65 63 65 78 80 79 80
62 66 56 46 28 22 17 11 19 33 43 48 55 59 63 59 62 65 64 62 62 62 64 66 70 69 69 68 68 63 60 59 59 61 63 64 71 73 70 63 69 82 84 85 84 84 85
68 70 60 50 38 28 23 18 18 20 42 50 55 59 61 59 59 60 57 59 57 58 61 61 60 63 73 68 67 67 68 67 66 64 64 69 68 69 72 74 87 83 79 80 84 83 84
76 74 67 53 46 39 30 30 24 15 21 47 54 59 62 62 61 59 59 59 57 56 57 59 61 63 68 73 73 74 74 73 72 73 70 68 67 75 89 94 87 85 82 84 86 82 80
79 75 73 57 51 45 42 37 34 30 14 24 52 57 59 62 59 63 62 55 56 54 52 54 60 64 64 75 79 79 79 73 83 81 75 72 73 87 96 97 95 82 78 79 82 86 74
82 76 75 62 48 47 46 44 40 37 33 18 31 53 61 60 57 63 65 60 55 54 56 61 63 65 67 73 76 79 78 76 84 79 82 80 86 94 95 97 85 74 77 76 81 71 72
91 83 80 69 53 46 48 48 47 48 39 35 25 37 52 61 60 62 68 69 62 56 57 63 67 71 73 74 74 76 75 74 78 79 83 79 88 94 96 98 92 77 79 81 75 72 69
92 82 85 76 61 49 49 49 45 50 50 41 34 28 40 56 61 67 71 73 70 66 63 69 73 75 78 78 77 79 77 76 76 78 78 82 80 83 83 84 76 74 76 76 74 70 68

GFSGBSN_prec_cthk_039.txt.gz
RH
44 52 50 48 47 49 47 47 43 39 39 39 46 52 55 59 62 71 74 67 60 47 36 30 56 67 80 73 58 62 46 31 42 45 41 44 41 38 38 36 34 35 34 31 28 27 27
48 55 53 52 50 50 46 43 40 38 39 46 51 56 66 66 76 82 83 76 67 53 44 32 54 63 91 83 70 63 64 44 44 53 46 44 42 38 36 35 36 34 33 32 32 30 27
55 56 57 52 50 45 44 42 40 45 45 55 58 66 70 67 78 86 89 82 71 55 47 50 49 63 71 93 68 57 65 60 53 60 46 41 41 45 40 37 37 35 37 34 30 28 30
59 61 56 55 50 45 44 41 43 48 49 62 65 75 74 67 77 87 88 84 88 81 59 53 54 59 78 90 69 59 68 73 76 69 62 53 51 50 46 41 39 41 42 44 33 30 31
60 61 59 53 47 48 41 44 45 49 55 69 71 76 65 68 82 86 86 80 81 79 62 56 56 62 69 85 65 64 75 80 88 91 85 74 69 63 52 50 50 47 51 45 37 33 33
60 62 55 49 47 45 40 44 47 54 64 70 75 66 59 78 89 96 95 95 79 73 61 53 51 73 77 77 70 71 67 78 82 90 97 89 85 79 68 59 57 53 46 42 41 35 36
60 60 57 47 44 42 42 46 50 53 68 76 73 56 60 69 86 86 92 92 86 74 63 43 47 79 73 90 81 75 69 71 75 78 85 92 90 83 71 62 57 52 51 48 42 39 37
61 59 55 50 41 41 45 48 50 59 79 74 67 64 61 72 82 79 77 84 92 82 59 44 66 76 75 79 95 77 74 71 79 80 80 86 88 87 81 73 69 66 62 59 50 44 42
62 57 53 48 37 44 48 53 60 65 72 78 79 65 69 68 71 66 74 81 86 76 62 47 63 84 86 87 86 70 71 76 80 88 81 76 84 92 85 86 80 74 68 62 55 49 46
60 56 51 45 35 41 49 51 62 62 71 85 90 93 79 66 73 77 77 88 74 65 59 63 86 90 97 93 87 69 81 81 86 94 92 78 73 81 91 95 91 82 71 61 56 55 57
62 55 48 43 34 43 49 53 56 56 72 75 78 74 83 87 83 77 87 74 56 69 62 80 92 97 93 77 80 71 83 85 80 86 84 86 73 81 85 91 87 81 73 65 61 59 53
62 56 44 43 35 44 43 49 50 59 67 70 67 73 66 67 73 79 59 50 76 85 92 87 89 91 81 82 72 73 84 85 80 75 85 91 86 80 74 80 76 74 69 64 63 58 60
65 55 44 41 31 42 39 45 46 56 66 71 71 73 72 70 62 57 57 78 95 96 87 90 90 82 86 79 75 81 82 82 89 83 81 82 81 73 70 71 70 68 66 64 55 64 51
66 53 43 34 27 35 37 41 48 50 61 73 76 82 69 52 55 58 80 87 95 94 97 97 94 93 89 79 79 82 83 77 81 81 78 76 78 69 68 69 71 65 63 62 46 58 55
60 52 44 33 25 31 35 41 48 48 54 63 71 75 80 73 75 80 88 96 98 97 98 93 88 90 89 79 74 85 78 72 68 67 76 78 78 72 68 67 62 67 67 57 57 54 60
58 48 43 34 25 29 38 38 44 46 49 53 68 75 71 75 73 72 85 93 93 88 88 80 82 79 79 82 77 81 74 76 68 65 63 65 78 71 68 66 62 58 54 58 57 47 50
65 52 43 33 26 24 31 33 40 41 44 51 61 70 72 69 69 68 74 84 87 80 77 69 70 71 76 71 67 71 68 61 61 61 58 56 62 69 61 58 60 56 57 56 56 57 56
52 54 43 36 23 18 21 30 37 39 39 49 57 62 68 62 66 66 71 74 73 73 70 65 66 72 72 66 63 58 62 56 56 56 57 54 59 68 59 57 55 56 56 57 57 53 65
55 56 48 40 25 18 15 26 33 40 39 42 48 53 60 69 74 70 72 70 73 64 67 67 67 66 68 68 64 63 65 53 52 54 55 51 56 65 60 57 55 56 57 58 57 58 64
51 59 57 44 32 20 14 17 28 38 40 42 45 53 52 57 64 70 72 69 66 65 65 64 65 66 63 62 59 61 54 52 51 51 52 50 55 53 58 54 56 62 58 55 58 67 67
48 59 63 49 38 25 15 13 22 34 40 41 48 57 61 64 63 63 65 65 63 64 61 60 63 61 63 68 64 64 55 53 53 55 55 54 58 63 60 59 62 60 58 59 58 64 81
47 52 72 56 45 34 21 14 13 31 38 40 46 58 61 62 59 59 61 63 63 63 60 60 62 64 68 73 70 64 54 54 53 55 56 57 69 68 65 60 62 65 58 59 69 80 80
54 57 86 66 52 40 33 20 14 17 38 41 48 54 60 61 61 60 58 57 60 59 60 63 66 71 76 77 72 62 57 59 58 59 62 64 70 69 71 65 66 63 60 70 80 80 80
67 68 84 84 64 48 41 33 23 15 26 46 50 54 56 56 59 60 58 56 54 54 57 61 62 62 68 72 74 68 65 64 64 63 63 69 70 69 71 66 71 62 73 80 84 83 84
64 74 82 83 78 56 50 41 34 28 17 29 50 53 56 58 58 56 59 60 57 54 56 56 58 60 67 71 73 75 79 73 71 70 69 66 69 73 73 77 72 79 83 86 88 83 81
64 69 76 82 87 66 57 51 42 39 31 22 32 50 55 58 58 60 62 60 60 58 57 57 57 58 61 71 76 73 77 70 78 76 72 74 72 70 81 91 94 91 84 82 86 89 78
72 68 73 84 87 74 62 56 50 46 43 35 31 35 46 57 52 59 62 62 61 60 57 56 56 60 62 68 76 80 76 72 79 79 83 82 78 77 87 96 88 81 78 86 87 78 75
82 79 76 82 90 82 68 61 62 55 52 46 43 42 43 47 44 59 62 64 66 63 63 61 60 62 66 67 71 75 78 78 78 76 77 77 79 83 93 96 93 81 87 87 79 77 74
90 87 86 79 94 85 75 67 60 63 65 60 51 48 45 43 40 53 58 64 66 74 68 66 67 66 67 68 68 73 75 78 77 79 77 85 78 82 87 85 78 86 82 78 78 76 72

GFSGBSN_prec_cthk_042.txt.gz
RH
51 56 57 60 60 59 59 53 45 45 47 48 47 55 57 67 68 72 77 78 78 79 70 55 41 42 62 75 72 68 71 53 37 41 45 48 45 43 43 41 39 38 36 33 32 32 31
50 53 57 59 63 58 55 47 45 49 49 55 52 65 73 71 76 74 77 85 90 89 78 58 47 55 66 82 92 76 72 65 40 40 46 53 49 45 41 37 37 35 35 33 31 31 29
50 53 56 59 60 59 52 45 44 52 52 61 65 76 80 76 71 74 80 86 86 83 75 60 61 65 69 66 86 96 64 67 49 44 50 52 51 47 44 40 37 38 37 34 30 31 31
50 54 54 60 56 58 48 44 47 53 54 65 74 81 78 66 76 81 83 85 84 89 93 67 72 64 67 72 82 92 64 79 59 56 57 54 53 52 48 44 41 42 41 43 33 29 28
51 54 56 60 55 48 45 46 50 50 49 61 78 84 60 66 79 89 92 88 78 81 92 86 75 64 69 61 86 90 70 82 73 81 74 67 54 54 52 50 50 48 50 45 38 33 31
56 56 57 60 53 42 49 48 52 51 55 66 76 71 52 63 69 88 91 92 83 83 83 76 68 65 65 58 92 89 74 88 86 96 91 87 75 66 58 54 56 52 47 42 40 33 34
57 60 58 54 47 43 46 49 50 55 62 74 75 75 63 60 70 80 78 75 83 88 82 69 56 64 56 62 90 81 81 91 92 99 93 90 88 71 61 55 50 49 48 45 40 37 36
59 59 56 50 44 44 44 48 52 57 69 79 87 90 92 63 64 72 68 72 83 90 78 62 60 80 69 74 94 84 79 90 90 97 97 97 89 82 78 70 64 59 56 52 46 42 40
56 56 56 50 42 44 42 48 53 60 73 80 77 75 86 94 62 68 74 77 85 81 73 57 72 83 77 83 94 80 70 80 83 89 91 97 97 89 89 80 73 70 64 59 55 50 47
54 59 50 45 41 39 42 47 52 62 76 82 73 78 70 90 86 76 76 84 78 73 64 56 93 84 81 90 93 82 77 79 81 84 86 82 85 91 89 92 83 76 65 64 60 55 58
49 63 46 41 32 37 37 42 51 59 74 78 63 66 64 70 74 75 80 64 66 61 56 69 81 75 89 89 93 92 83 89 83 88 89 87 83 91 96 93 90 84 75 71 63 62 57
52 54 46 39 31 31 33 40 46 55 65 69 59 52 56 52 51 52 57 67 73 73 80 90 91 85 80 83 89 76 90 88 86 93 93 88 77 78 90 92 91 86 84 78 75 67 66
44 52 39 40 34 31 33 40 46 53 56 55 58 54 59 72 83 72 78 85 78 85 93 98 98 93 92 91 84 77 94 91 90 93 97 93 90 78 74 80 88 83 86 84 63 63 56
46 58 42 37 37 29 34 38 43 51 51 53 59 58 61 72 87 76 82 80 73 77 89 98 93 90 94 87 83 82 96 91 83 86 94 96 97 83 78 77 81 78 73 72 51 56 54
55 53 52 37 37 21 28 29 36 43 51 51 54 62 61 66 77 78 71 66 75 78 80 86 80 85 87 84 77 90 88 90 82 69 73 81 87 80 71 70 65 68 71 62 67 64 63
48 53 54 38 34 22 19 27 34 39 48 50 49 56 60 62 69 73 70 84 91 87 83 76 78 81 85 80 81 84 85 78 79 77 72 73 84 76 73 69 66 63 65 68 67 55 45
51 54 47 48 33 25 15 24 31 39 46 54 53 53 60 61 63 64 69 76 78 80 77 75 77 73 75 72 71 80 73 74 65 66 67 71 70 79 70 69 71 69 68 61 57 57 52
47 48 48 52 39 32 17 16 26 35 38 42 54 61 60 59 64 65 66 69 68 69 64 59 62 67 70 68 68 69 69 63 66 64 64 62 65 72 70 62 60 58 59 54 56 55 63
47 43 43 51 43 41 27 12 18 31 34 38 46 55 60 59 67 69 69 64 63 63 60 56 59 60 63 61 61 60 63 62 61 57 60 57 59 68 64 59 57 58 57 57 57 58 63
46 45 52 50 54 46 35 18 11 23 36 36 44 54 57 60 66 67 68 67 64 60 60 57 57 59 61 63 59 59 60 60 52 54 55 53 56 55 57 53 55 62 59 59 60 66 59
45 50 58 59 69 56 41 27 15 15 32 37 41 54 59 65 63 66 65 63 62 65 61 60 62 61 61 64 63 61 60 58 54 55 56 55 59 60 56 54 59 61 60 62 59 55 59
49 52 58 69 75 76 48 37 22 15 25 37 42 50 59 60 59 60 61 63 63 61 59 61 64 65 64 65 61 63 55 52 52 54 54 56 66 62 60 59 62 65 61 62 60 59 73
51 48 57 71 78 83 66 45 34 22 19 36 45 47 57 59 58 57 59 58 58 58 60 57 60 66 72 72 69 66 54 52 54 58 60 61 66 66 67 64 67 65 60 56 60 69 76
45 50 55 63 73 81 78 53 44 36 26 25 45 50 55 56 58 58 58 57 58 57 57 61 61 66 70 72 73 67 61 61 61 61 60 66 67 68 73 66 68 51 59 65 72 81 80
55 55 51 68 67 80 85 62 54 48 35 29 29 47 55 57 56 56 59 58 56 56 58 60 61 63 66 72 75 77 74 69 69 67 67 65 69 73 72 71 59 63 73 80 86 86 82
63 65 60 68 75 77 87 76 65 54 48 38 34 34 41 56 56 60 61 63 61 59 59 60 60 61 67 72 76 75 81 77 80 78 72 72 70 71 75 75 76 76 84 85 88 96 84
67 73 73 70 78 80 90 84 74 61 55 48 43 38 43 40 43 58 63 64 62 61 60 60 59 60 63 70 73 79 76 71 81 81 81 81 80 78 69 75 74 82 84 85 96 86 80
71 80 84 82 82 84 88 87 80 72 63 59 53 48 46 49 39 35 55 64 64 64 66 62 60 59 65 67 70 71 75 76 76 74 76 78 78 75 70 82 89 80 88 95 88 80 77
74 78 84 89 86 85 94 90 88 82 81 74 66 62 60 59 50 42 39 52 59 69 73 72 63 62 61 67 67 70 72 76 76 80 75 81 74 76 72 79 78 87 91 88 84 79 78

GFSGBSN_prec_cthk_045.txt.gz
RH
48 47 55 57 57 54 59 54 49 48 45 48 51 60 68 69 77 81 79 76 80 79 80 77 71 52 43 61 59 59 65 72 66 46 49 51 51 58 59 51 47 48 46 43 41 41 40
49 48 57 57 54 52 55 50 50 45 49 53 60 73 81 85 78 66 70 73 76 77 80 83 79 63 48 70 72 84 79 68 62 51 49 54 50 52 58 56 47 43 41 39 37 36 35
53 48 52 52 57 54 50 48 47 49 55 58 64 75 87 80 61 70 73 78 81 86 86 81 83 72 57 63 78 93 89 74 61 61 54 59 50 50 46 53 48 45 41 38 34 34 34
54 50 51 45 54 49 51 49 49 51 52 64 78 86 85 53 61 72 85 81 75 81 90 91 78 89 59 60 67 78 77 66 64 68 60 62 61 55 48 49 47 44 43 43 33 31 31
54 50 52 47 50 51 47 45 47 49 59 76 88 95 78 59 61 67 86 86 81 80 88 95 87 87 61 65 78 89 92 77 66 78 68 76 70 64 55 53 56 51 49 45 37 35 32
54 50 51 44 44 51 42 43 46 51 61 77 83 96 95 78 59 63 75 70 69 76 79 85 93 82 64 75 74 91 89 95 71 83 88 91 84 71 60 54 55 56 55 45 36 32 34
51 49 48 37 38 49 41 42 46 50 59 73 74 80 80 98 71 61 72 68 67 83 80 80 80 73 73 71 74 94 86 92 80 89 94 92 82 66 57 53 50 46 45 46 38 34 35
46 50 48 36 32 44 39 41 44 52 60 66 69 79 71 86 90 61 67 74 78 89 81 79 76 78 80 74 91 90 85 98 97 97 96 95 80 66 59 56 49 50 49 48 44 39 36
43 50 48 34 35 41 39 40 46 47 58 59 66 65 55 76 90 71 70 79 81 84 84 76 72 88 77 82 91 85 96 96 97 95 97 95 85 82 71 67 61 59 54 51 48 45 42
45 50 50 35 36 39 36 40 45 45 54 53 65 58 51 62 69 74 75 74 75 74 69 79 88 80 76 87 97 87 96 90 96 98 97 98 94 89 87 79 73 74 61 59 55 53 53
43 50 45 36 36 36 38 39 44 44 51 48 61 71 48 62 68 67 66 67 71 70 90 85 89 80 75 89 90 82 84 92 91 91 91 97 95 97 96 95 85 77 68 66 63 60 57
38 47 48 40 38 32 40 36 41 45 48 48 54 64 55 71 64 67 64 71 84 91 97 95 82 94 82 89 89 77 78 81 89 85 89 91 89 91 93 94 94 83 74 75 72 65 64
36 48 51 47 33 29 36 36 38 45 42 46 51 53 46 60 59 59 62 63 69 79 92 87 93 79 86 94 89 80 88 89 91 95 98 96 90 85 95 97 92 89 91 85 69 71 62
39 49 49 45 32 30 28 34 38 42 43 45 46 52 52 55 61 61 61 59 69 83 86 89 92 83 93 88 93 92 97 90 87 87 93 96 97 86 78 84 91 85 87 84 66 60 54
39 45 48 41 39 30 30 25 28 39 45 46 47 49 53 57 60 56 58 67 77 82 87 84 80 82 87 84 74 88 97 91 84 82 89 91 91 81 78 75 75 85 87 76 77 71 61
43 45 48 40 39 33 37 26 21 33 40 44 49 51 55 59 60 63 63 64 69 77 71 74 81 80 82 84 75 86 95 88 80 75 75 79 87 84 83 79 77 74 74 74 70 61 50
48 45 42 42 38 40 39 34 18 24 34 36 49 55 56 59 56 62 69 76 73 66 65 66 73 75 72 73 72 75 77 82 76 74 64 67 73 85 79 73 72 71 70 67 63 59 44
48 45 43 43 47 44 43 41 22 16 30 33 40 57 58 59 63 68 71 73 73 73 68 61 62 63 67 64 67 71 71 75 69 68 68 68 76 83 80 75 70 71 72 62 62 56 58
46 47 43 44 50 51 54 47 33 12 27 34 39 48 56 56 69 70 66 65 68 65 60 54 58 59 59 60 63 64 64 62 65 63 62 62 68 75 71 69 67 65 62 57 53 53 60
46 48 45 52 49 51 62 54 40 23 18 33 37 46 54 58 66 67 69 65 65 62 58 55 58 58 61 61 57 60 63 63 67 61 61 59 61 55 58 54 57 63 60 57 57 63 55
42 42 45 52 46 50 59 68 47 35 21 29 37 45 53 61 63 66 66 65 67 66 62 61 60 58 60 65 64 60 59 65 62 57 55 55 63 61 55 53 57 59 58 58 58 56 55
41 43 43 47 50 47 58 64 56 43 31 29 40 44 51 58 61 63 62 64 63 62 65 64 67 67 65 64 59 62 61 66 58 55 56 57 66 61 58 55 58 61 58 60 59 57 53
47 47 50 52 54 49 53 65 63 49 42 36 37 44 47 55 59 60 61 61 60 61 61 60 66 68 69 69 65 64 58 55 52 53 57 57 61 62 60 58 63 64 58 56 56 53 54
49 52 55 55 64 58 59 65 66 59 47 45 38 43 48 52 56 59 61 61 61 58 58 60 61 68 72 71 71 68 64 58 56 57 57 60 64 63 65 63 69 48 54 56 52 58 66
55 57 58 54 62 70 63 66 70 70 59 49 45 40 43 50 53 55 59 62 59 58 59 58 58 63 67 72 78 80 74 66 67 64 62 60 65 70 69 68 56 56 60 65 68 74 78
62 63 60 60 63 72 75 70 74 73 73 57 50 44 43 39 47 53 59 61 61 59 59 62 61 61 65 71 75 84 84 73 77 75 69 67 66 69 74 69 71 59 64 72 76 92 88
64 69 62 64 68 72 79 83 78 72 81 69 58 52 47 49 39 42 57 64 64 61 61 63 65 64 63 67 73 80 79 78 81 76 78 79 80 77 76 69 62 56 73 79 93 89 88
76 76 69 68 72 75 76 84 89 85 76 87 77 63 55 52 45 42 38 50 64 67 65 64 67 65 66 67 68 68 73 78 79 78 76 77 78 78 76 76 69 64 81 90 91 86 86
81 76 79 76 75 77 83 88 92 91 86 86 82 77 72 70 60 54 50 46 47 68 72 70 65 64 61 64 65 66 69 72 76 82 77 79 70 71 69 67 62 74 86 91 88 86 83

GFSGBSN_prec_cthk_048.txt.gz
RH
42 43 43 43 43 47 45 45 45 41 44 49 56 62 63 69 80 69 61 69 71 75 83 84 85 89 74 56 54 64 63 64 84 68 53 48 52 63 61 67 58 57 57 52 50 46 43
38 45 43 43 41 46 45 42 45 45 49 53 65 75 80 84 75 56 65 69 78 77 84 84 85 88 81 57 48 74 79 82 79 77 55 55 52 61 64 65 61 52 55 54 53 50 46
42 45 43 44 41 41 48 40 50 47 50 64 80 85 91 89 57 56 66 80 75 80 82 84 79 84 77 54 52 64 61 70 75 77 66 60 55 61 61 65 63 58 51 49 50 45 43
42 45 44 44 39 43 44 43 49 46 55 68 79 87 94 95 63 54 61 77 81 77 82 86 84 81 75 56 63 63 70 75 77 69 72 70 62 61 62 62 58 61 48 45 36 42 42
43 44 44 40 37 47 47 44 45 46 56 66 75 72 81 87 78 55 60 67 68 69 81 93 91 88 77 55 60 92 95 87 81 56 76 82 73 61 65 57 61 59 45 38 37 34 35
43 44 45 39 34 44 44 44 44 46 53 63 60 60 69 79 93 64 61 63 61 62 77 88 95 90 84 61 71 95 90 90 77 66 93 95 86 71 68 58 47 48 50 46 36 36 36
42 41 48 40 37 42 45 41 45 47 52 56 51 58 55 65 94 72 65 66 71 77 84 81 91 95 86 82 74 81 97 89 69 86 89 93 96 76 65 56 50 48 47 40 32 36 34
40 41 49 42 38 38 46 39 45 44 48 54 50 54 54 65 77 73 67 69 77 83 78 77 87 82 93 86 83 81 85 89 88 77 88 95 92 78 71 65 53 47 44 42 42 36 35
41 39 49 47 39 38 47 36 41 45 43 47 46 53 60 60 64 69 74 77 79 76 77 79 80 86 99 90 90 95 96 95 88 88 93 91 86 81 75 66 56 52 46 45 43 43 42
41 42 45 47 40 35 43 37 39 46 46 45 43 50 47 58 58 61 70 74 74 79 85 90 95 98 88 90 96 92 97 97 92 96 97 96 90 79 73 63 57 55 56 52 48 46 45
43 44 45 45 39 33 36 40 37 46 45 49 47 46 50 43 54 54 60 77 82 89 96 91 93 82 87 94 95 94 96 99 98 96 97 97 95 87 77 64 61 63 58 57 54 52 50
42 43 44 45 42 34 28 45 33 40 47 45 45 45 46 49 51 65 73 73 73 76 92 91 88 94 88 95 95 96 97 96 95 93 95 98 98 98 93 85 75 67 64 62 60 59 63
43 42 43 45 41 31 29 40 34 36 39 44 48 45 50 53 53 52 61 64 65 76 88 89 93 88 92 88 86 87 93 87 86 92 93 96 98 96 96 98 93 82 78 84 83 79 60
41 42 43 42 40 33 32 36 36 31 37 42 48 51 55 55 54 53 58 55 62 80 88 87 83 82 88 87 85 78 78 81 76 77 91 96 97 94 96 94 92 97 96 76 68 55 47
41 42 43 40 44 36 31 36 35 23 32 36 52 51 53 53 55 57 61 59 68 73 77 71 67 76 81 77 75 88 90 79 79 76 84 95 97 85 83 82 84 92 97 76 68 62 57
41 42 43 40 42 44 43 39 41 17 27 30 45 48 52 53 53 53 57 67 72 74 70 65 69 71 68 75 74 77 89 85 78 78 78 81 92 81 79 76 76 79 79 84 83 77 64
38 42 41 44 45 42 47 42 49 23 21 28 37 52 50 50 56 56 63 64 64 63 63 65 69 68 70 70 63 70 81 83 75 74 73 75 76 85 80 76 74 74 72 73 67 60 44
37 36 44 49 48 42 41 51 52 37 12 27 33 49 51 52 56 61 72 65 64 64 62 62 62 61 61 63 63 64 75 78 76 72 69 68 75 84 82 75 70 65 60 54 54 60 56
38 37 42 39 39 37 41 49 56 44 23 26 32 42 50 53 61 60 61 67 65 58 54 53 55 55 56 58 59 62 65 72 73 71 70 66 71 82 78 75 71 66 65 63 57 59 59
38 40 42 41 41 40 40 45 52 53 38 22 32 38 45 51 58 60 59 61 60 58 54 54 56 57 57 57 55 59 61 67 66 67 62 58 63 64 56 56 60 68 59 57 58 60 44
39 44 45 45 47 46 44 40 48 56 51 38 34 42 44 56 57 57 61 63 62 60 58 54 55 57 60 62 60 56 60 64 66 65 60 60 69 62 52 53 55 55 54 53 55 50 54
41 43 46 47 50 50 51 48 50 48 56 55 44 42 47 50 54 56 58 62 62 63 62 61 60 62 59 60 57 59 55 58 62 64 56 56 67 63 58 54 52 56 52 52 53 52 50
46 45 47 49 56 53 53 55 53 44 50 60 55 47 45 50 51 54 56 56 57 57 60 61 61 64 65 66 64 61 57 57 58 55 53 54 61 60 57 53 53 51 46 48 49 50 50
54 53 53 52 57 57 57 56 62 54 49 60 62 55 53 50 52 53 56 57 56 56 55 58 61 64 67 66 67 65 62 61 61 56 53 55 56 56 59 57 59 43 50 50 50 48 47
60 62 58 60 62 65 61 60 64 67 58 56 59 61 55 52 52 54 57 58 58 58 56 56 58 62 66 71 72 74 72 67 63 59 57 55 57 63 61 57 47 44 52 56 55 52 56
67 70 68 69 68 71 62 67 68 71 69 66 67 59 61 54 44 54 56 57 57 56 57 59 60 61 62 66 69 75 75 70 72 66 64 62 60 60 67 67 58 53 55 62 66 74 73
71 70 71 71 66 67 74 73 73 77 76 74 77 78 65 60 49 44 50 59 62 60 59 62 65 65 63 63 66 69 71 72 73 70 73 71 71 69 66 67 54 50 62 65 78 79 80
65 67 74 74 75 80 78 76 78 84 86 88 87 81 86 74 57 48 45 41 59 65 64 64 66 67 68 67 63 63 64 66 72 69 72 68 72 73 72 72 66 49 63 73 79 82 83
56 66 78 77 83 87 88 86 88 94 89 92 89 87 84 85 77 64 59 55 49 53 70 69 65 61 64 65 60 60 61 63 65 71 72 73 64 65 63 59 54 61 71 78 85 87 88

GFSGBSN_prec_cthk_051.txt.gz
RH
37 37 39 41 41 41 43 41 44 48 43 46 53 66 77 85 93 84 64 52 61 73 70 71 79 86 86 80 52 67 60 68 63 68 63 60 61 56 61 61 67 66 58 53 50 43 40
35 37 40 41 40 39 43 41 45 49 44 52 58 67 80 88 96 77 59 58 65 71 82 70 78 89 95 87 62 64 79 66 74 76 62 60 58 58 60 66 64 70 68 63 56 52 47
35 36 40 44 39 39 46 43 44 46 41 56 57 65 68 78 92 68 63 59 72 71 75 74 79 89 94 88 72 65 86 70 74 79 71 61 64 69 63 67 69 74 69 66 61 57 52
34 38 41 46 41 37 42 45 43 45 47 50 56 52 55 74 89 70 60 58 62 73 81 79 81 88 88 81 68 91 80 77 70 74 80 68 68 70 72 66 67 67 73 68 58 57 53
35 37 42 46 40 34 43 45 40 50 46 50 54 45 51 54 77 84 57 61 57 56 62 82 86 88 85 74 61 81 80 89 85 89 85 72 69 72 70 69 70 69 64 62 55 48 52
37 38 42 48 42 32 44 45 43 51 47 47 56 47 48 54 73 89 58 59 57 61 69 81 92 90 82 73 68 70 66 79 96 89 75 84 90 82 75 67 56 50 54 50 50 45 42
38 38 41 48 46 36 41 49 41 50 49 47 54 47 51 54 74 76 61 62 70 81 83 83 81 88 84 79 78 60 59 77 83 81 69 85 94 86 61 54 50 47 52 49 53 47 41
39 37 39 46 48 37 34 54 42 45 52 45 51 50 53 48 56 62 69 68 70 72 73 76 81 81 80 95 97 98 94 89 75 68 74 94 94 82 72 65 56 53 54 53 60 53 41
41 39 38 47 51 36 27 55 46 43 52 54 45 51 52 54 63 64 65 65 62 64 79 85 81 80 89 94 96 94 96 89 74 70 74 83 86 85 80 68 61 56 52 51 53 55 43
40 40 38 43 48 34 27 40 53 43 51 52 45 48 51 56 63 80 72 65 66 79 93 93 96 90 86 96 95 94 95 89 76 83 86 89 93 91 81 74 60 63 50 55 56 52 42
39 40 39 39 41 35 26 28 56 42 44 51 50 47 50 50 57 60 69 72 81 89 91 92 95 96 98 92 88 94 96 89 89 86 90 98 94 90 84 79 64 69 55 57 59 52 56
39 38 37 40 36 36 28 29 43 37 39 53 49 51 51 52 56 53 59 58 73 89 94 99 98 95 96 97 97 96 98 96 93 89 94 96 96 94 86 81 75 71 58 56 58 62 62
34 34 38 41 39 40 37 29 38 23 29 43 47 51 53 48 56 55 55 62 73 82 92 93 95 92 97 95 97 97 97 95 95 98 98 98 98 97 94 85 78 69 69 74 76 81 65
33 36 40 42 39 40 36 47 47 20 23 35 47 48 49 51 55 50 54 59 64 78 84 92 96 87 91 85 92 90 88 90 90 85 94 99 98 98 94 90 82 76 70 69 64 61 59
34 37 37 38 39 42 38 41 52 35 14 30 42 45 49 50 52 54 52 56 68 74 72 69 67 72 75 74 78 81 84 82 79 80 87 90 98 96 96 95 94 93 89 65 56 49 47
29 37 34 36 36 34 36 37 50 45 12 28 35 46 49 50 49 52 57 57 63 66 63 58 66 67 67 67 71 73 82 76 79 75 76 83 94 88 86 86 86 90 85 91 77 73 56
31 32 32 35 34 34 35 35 43 53 21 25 33 50 49 49 54 50 57 62 60 60 59 61 62 63 65 66 68 70 76 78 74 75 75 77 78 86 83 80 77 81 82 79 78 68 60
33 31 32 35 35 38 37 34 39 57 39 18 34 52 48 50 55 58 59 53 52 55 55 57 59 60 63 66 65 66 75 75 70 69 70 72 77 82 79 74 71 66 69 70 73 73 65
34 33 34 36 36 39 41 41 34 41 59 33 35 41 47 49 62 55 56 52 57 54 52 53 52 52 54 57 58 57 64 71 71 69 69 65 72 81 77 72 69 68 63 61 60 64 69
35 35 35 37 38 42 42 42 42 36 49 56 37 42 46 52 54 56 51 57 57 53 49 49 51 51 50 50 49 54 57 65 69 68 67 63 62 68 69 66 63 71 61 60 65 67 54
37 38 38 39 41 43 45 44 44 41 37 63 59 44 47 53 54 53 55 53 53 52 49 48 50 51 54 54 51 51 55 59 61 65 65 64 72 68 60 56 58 60 59 58 63 59 61
39 39 45 41 45 48 48 48 43 42 40 49 71 60 44 46 51 52 53 57 55 57 55 52 51 50 52 55 55 57 53 53 58 63 64 60 68 66 64 57 54 58 51 51 52 52 47
42 46 51 46 45 53 51 49 48 44 40 46 61 70 60 48 49 52 57 57 56 54 58 57 57 59 59 60 60 59 56 55 54 59 62 62 64 68 63 56 54 53 41 41 43 44 43
47 54 53 48 52 61 56 51 45 51 47 55 51 70 70 58 50 53 56 58 58 56 55 54 55 60 64 62 62 61 59 57 55 56 57 57 56 57 63 59 61 42 40 39 40 42 42
57 57 59 51 54 58 55 53 56 60 54 56 57 57 73 58 57 53 56 59 61 58 57 56 56 56 58 65 70 69 69 66 62 59 60 54 55 60 62 54 43 36 40 46 51 49 44
52 57 58 51 58 61 60 57 65 67 64 60 60 67 69 75 63 51 58 61 63 60 60 59 59 57 58 61 64 76 74 66 69 68 59 54 54 58 62 64 54 51 49 50 53 60 50
50 49 46 51 57 63 67 63 68 75 74 72 73 75 78 84 71 56 50 60 65 65 62 64 63 63 62 60 62 61 64 64 72 68 70 63 60 63 62 62 49 43 54 56 67 72 68
47 42 50 61 68 69 66 68 76 80 83 81 85 81 84 80 81 74 58 48 50 65 69 69 68 67 68 66 62 57 53 58 62 67 66 65 64 62 61 65 61 47 59 61 64 67 71
39 41 51 58 64 69 63 73 82 83 85 83 88 89 86 85 76 79 76 58 49 47 65 72 72 69 68 65 60 58 55 56 55 60 61 68 60 60 57 56 52 52 58 63 68 72 78

GFSGBSN_prec_cthk_057.txt.gz
RH
30 29 35 40 42 41 36 37 36 43 42 45 45 48 52 48 58 63 86 90 79 69 55 51 60 67 75 75 71 77 58 55 57 66 76 71 47 48 59 60 63 67 66 69 66 70 75
30 29 35 38 42 41 38 32 35 47 46 48 46 47 45 46 57 69 80 65 69 63 58 60 67 72 78 70 80 83 68 54 66 77 80 75 49 48 57 64 57 56 68 73 71 64 66
31 29 33 38 40 41 38 31 37 46 45 49 46 45 42 52 51 62 65 63 61 58 58 62 66 71 80 74 84 83 74 62 82 97 90 75 61 50 52 62 54 57 73 80 75 63 55
30 30 33 38 40 40 37 28 39 47 45 48 45 44 44 52 52 62 60 63 52 51 54 76 72 75 80 73 83 85 88 62 70 86 91 80 64 62 59 64 63 65 66 85 72 68 55
30 31 32 35 36 39 37 27 39 50 47 50 44 41 42 51 53 52 43 46 53 61 58 73 81 83 85 82 78 86 88 67 81 85 90 83 70 62 66 69 78 74 70 72 69 65 58
29 30 31 32 34 38 35 24 32 48 47 53 47 39 41 45 51 46 47 55 65 73 67 89 95 89 89 91 83 76 88 89 77 84 97 91 83 78 70 70 72 68 63 58 60 61 63
29 29 30 31 36 34 31 25 23 44 44 51 51 40 38 46 51 51 46 53 62 75 78 77 86 90 93 85 86 73 87 98 90 97 93 88 78 67 60 61 62 68 68 63 56 57 63
30 28 29 32 35 34 31 31 27 31 37 39 47 45 36 43 49 56 54 55 64 78 79 80 78 81 78 88 90 83 94 97 96 97 96 92 76 63 62 61 67 67 70 64 56 60 58
32 28 29 31 34 33 31 32 38 36 19 32 42 45 41 42 43 48 55 63 75 82 83 78 71 73 73 80 98 94 93 93 91 97 90 80 70 67 64 66 67 64 65 65 62 56 58
31 28 29 33 31 29 29 32 33 44 17 24 36 44 47 46 49 53 54 60 69 82 90 77 78 78 80 83 88 96 98 86 95 91 83 82 68 63 65 68 68 64 60 64 62 61 62
32 29 29 31 28 27 26 27 28 41 21 21 31 42 46 48 48 53 58 64 72 81 89 89 95 91 82 89 82 82 96 91 96 92 78 80 74 71 73 73 76 72 67 67 64 65 64
32 29 30 28 27 27 25 27 26 37 31 19 29 38 43 47 51 56 63 63 75 83 96 97 98 94 88 88 95 95 98 96 92 86 80 78 80 82 77 80 81 76 75 76 73 70 80
32 28 28 26 27 27 28 28 25 31 37 15 28 36 42 45 49 52 57 63 70 82 92 99 98 89 92 95 95 90 82 80 73 83 81 81 82 88 93 88 86 84 81 94 93 87 74
30 28 27 25 26 26 28 28 29 25 36 17 28 34 42 45 46 49 52 60 69 76 88 89 93 92 93 94 93 94 80 80 78 74 76 80 84 86 90 96 91 83 80 81 80 78 66
31 28 28 27 26 25 27 27 28 27 27 34 23 38 40 44 45 48 49 54 65 70 75 82 82 80 82 86 93 92 90 83 73 70 77 88 97 93 98 95 93 92 91 74 75 63 69
30 29 28 27 27 26 27 27 28 27 23 29 33 40 42 41 48 49 49 53 56 61 61 62 65 63 68 72 83 88 87 84 82 78 73 84 88 91 94 95 93 91 85 88 91 86 70
30 30 30 28 27 27 28 29 29 28 26 22 43 42 46 44 51 51 52 55 53 52 54 58 62 59 60 65 69 75 77 74 77 73 73 77 82 92 94 94 94 92 94 85 79 85 85
34 32 31 30 28 28 28 30 31 29 30 25 29 56 43 44 60 57 57 53 51 51 52 54 58 59 60 62 61 70 76 74 72 73 79 81 86 96 93 87 91 88 86 84 89 87 77
35 32 32 31 31 30 29 30 28 30 29 28 34 40 61 46 62 63 53 52 51 51 50 52 54 56 58 60 62 65 72 70 70 75 79 79 85 95 94 89 86 94 88 86 83 82 84
35 33 33 33 32 28 30 30 29 31 30 31 37 42 47 62 51 60 62 57 57 55 54 51 51 52 54 53 54 59 67 67 67 69 70 70 76 82 83 78 81 86 84 84 89 93 80
33 33 34 34 31 26 29 30 30 30 29 32 40 44 47 63 60 56 61 63 61 61 59 52 50 53 57 55 51 52 55 59 62 63 66 70 75 72 72 75 75 70 73 77 76 72 75
31 31 29 33 31 29 30 29 30 32 32 33 43 45 41 49 67 54 58 67 63 59 59 58 56 54 54 56 54 57 52 52 54 56 61 66 74 72 64 63 66 69 63 59 62 63 59
30 29 34 34 30 28 31 32 33 34 32 34 39 47 50 54 62 77 62 61 69 65 61 55 58 59 57 58 57 56 57 56 56 53 56 61 67 69 70 60 60 60 54 57 54 52 51
32 34 35 32 27 30 32 31 31 34 36 38 46 52 55 48 56 61 79 59 66 68 69 63 61 64 63 62 61 59 57 56 58 59 56 63 65 70 74 66 68 43 45 45 47 46 46
34 35 36 31 29 32 32 33 35 39 42 44 49 54 62 63 48 51 66 74 61 68 69 64 60 61 61 61 62 66 68 62 60 57 58 59 66 69 70 69 48 46 46 45 48 44 40
34 35 35 28 30 32 32 34 37 41 44 50 55 59 63 65 71 60 54 70 76 73 72 70 64 57 57 61 63 67 70 66 70 68 60 62 62 66 71 66 61 53 50 48 48 54 44
34 34 30 26 30 31 33 33 39 44 46 54 57 63 64 65 68 73 69 64 75 81 76 76 74 65 62 63 66 65 64 56 66 72 72 72 69 74 69 68 48 42 49 51 61 53 50
33 30 27 27 30 30 30 32 37 45 48 56 64 67 70 72 72 72 77 72 67 69 79 77 80 77 72 69 67 64 60 58 56 54 57 67 74 76 71 73 64 44 51 55 54 57 54
32 29 27 27 27 28 31 33 34 44 48 59 67 71 70 76 76 76 76 75 74 78 69 73 78 74 77 75 67 65 61 58 59 62 54 59 56 68 66 61 51 53 52 53 56 59 61

GFSGBSN_prec_cthk_060.txt.gz
RH
29 29 34 36 37 40 34 28 31 37 45 48 49 43 39 45 49 54 65 70 67 70 71 62 55 52 55 56 50 78 66 59 64 76 97 71 43 41 50 55 62 74 73 79 84 87 85
29 27 29 36 36 41 34 28 32 39 45 50 47 41 37 45 46 52 56 63 63 63 60 55 58 59 65 68 59 84 72 63 62 75 99 81 45 43 46 50 62 66 75 83 83 85 87
29 26 27 32 35 38 36 29 32 41 41 49 46 38 38 46 47 44 46 50 51 50 54 55 61 64 65 70 68 83 81 69 59 73 94 89 60 53 44 52 58 63 82 85 80 77 78
29 28 26 30 32 32 34 29 28 43 39 49 46 38 37 48 47 43 41 44 47 54 55 65 72 70 77 72 78 87 92 73 61 80 85 90 72 68 52 53 63 67 75 85 70 71 73
28 29 26 29 31 33 34 33 28 32 36 46 48 38 36 43 46 48 47 45 49 53 60 79 80 81 82 79 84 89 93 75 67 77 90 96 78 79 61 58 66 73 72 70 69 68 69
29 31 27 29 30 29 31 37 31 33 24 40 48 44 34 41 45 45 52 55 54 62 72 86 87 91 89 89 84 86 79 75 84 90 98 98 86 78 69 62 60 59 62 58 58 62 66
30 31 28 29 29 27 28 33 33 40 19 32 44 45 35 40 49 52 52 61 57 62 68 77 90 89 91 86 86 88 76 84 98 98 98 93 88 72 61 59 51 55 62 62 54 56 64
32 29 28 27 28 26 25 27 28 38 27 24 34 42 41 45 52 56 57 59 69 66 69 76 81 85 88 84 90 86 84 93 98 98 92 97 83 69 66 60 60 61 65 66 59 56 60
33 27 29 28 25 25 25 25 25 32 28 18 26 39 44 48 54 57 60 68 69 68 69 78 80 79 87 85 90 74 66 78 79 90 92 91 82 74 70 66 65 59 62 64 62 59 58
34 28 27 27 25 25 25 26 25 29 32 16 23 37 39 47 51 57 62 65 76 76 78 85 85 83 93 93 96 94 97 90 81 94 92 90 80 77 76 73 70 68 57 60 65 69 65
33 30 26 24 25 24 24 26 24 26 36 15 23 34 40 44 50 53 61 63 76 86 86 89 87 75 91 93 95 98 98 97 92 95 85 92 79 73 70 69 70 68 61 61 63 70 68
33 32 25 26 25 25 24 26 25 24 29 19 22 32 40 42 47 49 57 62 70 82 93 94 89 78 76 86 90 96 98 95 93 92 87 83 79 76 77 75 75 71 67 69 73 75 80
36 32 27 27 25 24 24 26 25 25 23 29 20 32 39 42 45 46 51 58 67 82 88 93 89 85 82 74 85 96 87 92 91 90 90 88 83 75 78 78 77 76 75 91 92 91 80
37 33 29 27 26 24 24 27 26 25 23 20 30 30 37 42 43 44 49 50 67 77 91 90 94 96 89 88 82 90 86 91 85 76 85 83 87 82 74 74 78 80 79 83 86 87 75
36 33 32 27 26 26 24 26 27 24 23 19 27 35 36 39 45 44 42 50 55 67 74 78 73 86 95 86 82 78 71 73 72 71 73 75 80 80 82 84 84 84 89 75 76 72 78
36 34 33 28 27 27 25 26 25 25 25 22 25 40 38 41 48 47 43 50 53 57 62 61 61 60 79 90 84 82 78 69 71 66 63 66 78 82 81 90 95 90 86 87 88 84 75
34 35 34 31 30 29 26 28 24 24 24 23 29 36 48 42 50 47 50 50 49 48 52 55 56 58 62 78 83 85 80 74 66 71 73 77 81 89 91 91 93 95 90 84 83 84 84
35 35 35 33 32 31 26 27 25 23 23 22 28 38 42 53 55 52 51 52 46 47 49 53 54 55 58 58 67 75 77 74 75 75 77 75 81 87 84 83 86 87 87 85 90 85 80
36 37 36 33 34 29 26 27 24 22 21 23 33 35 41 50 55 57 54 50 49 48 48 51 52 53 53 56 61 68 71 73 71 73 75 73 80 91 93 86 86 89 88 85 84 84 83
36 38 36 34 32 29 27 25 23 23 22 26 33 41 40 49 59 58 62 56 52 51 49 49 50 51 53 51 53 61 67 67 72 75 75 75 78 81 82 76 80 84 86 85 86 90 78
36 37 35 33 32 28 27 24 23 23 22 25 33 44 44 49 58 65 67 60 57 59 56 52 52 53 54 52 49 53 59 63 65 65 69 72 77 77 77 76 77 78 80 84 86 80 85
37 37 34 33 31 29 28 25 23 22 21 23 32 40 42 45 52 60 64 72 62 65 61 61 57 58 56 55 51 51 51 55 58 60 64 69 76 74 68 68 71 75 69 74 74 76 75
39 39 35 32 29 31 29 28 26 24 23 25 31 40 46 55 56 57 66 80 69 69 64 62 61 62 61 58 55 55 56 52 51 53 58 63 71 70 68 67 66 64 55 58 59 59 56
41 38 34 33 30 32 31 30 28 27 26 28 32 38 43 47 55 64 60 68 85 69 70 70 65 64 64 65 61 59 58 58 59 60 59 60 63 68 72 68 69 46 46 47 47 48 52
42 35 35 33 31 33 32 31 31 28 29 30 33 38 45 52 55 53 60 59 68 79 69 71 72 70 69 69 70 71 72 65 63 64 64 63 65 71 75 76 56 44 46 49 49 44 43
36 35 34 31 33 34 34 32 33 31 31 32 33 36 44 50 60 59 63 66 64 77 83 74 75 70 68 70 69 72 73 67 70 68 65 65 65 66 76 73 69 49 51 49 48 53 43
32 34 32 30 31 32 33 33 35 34 33 34 38 39 43 48 53 60 67 71 70 69 85 87 78 75 68 69 71 71 68 60 68 71 74 74 72 74 72 72 61 43 45 55 60 50 51
33 32 29 30 30 31 33 34 34 36 35 38 42 44 48 55 54 58 70 73 77 73 71 91 85 86 81 74 71 68 65 61 59 58 61 63 71 78 74 78 73 47 51 55 53 56 55
34 34 30 30 30 30 32 33 34 38 36 39 45 46 51 55 57 65 69 70 75 81 74 72 95 85 87 83 75 74 67 61 59 62 57 58 53 62 66 66 55 56 53 52 52 57 59

GFSGBSN_prec_cthk_063.txt.gz
RH
29 26 25 28 31 32 34 31 29 39 39 44 46 40 35 41 42 40 37 43 49 53 58 61 62 63 64 61 47 67 64 70 83 84 87 91 62 44 53 57 64 76 84 88 91 86 87
30 26 26 28 29 29 33 32 28 37 37 40 48 40 38 45 45 39 41 39 43 44 56 55 56 58 55 55 51 53 83 71 78 70 85 93 63 40 50 59 63 70 78 88 90 89 88
32 28 26 28 28 28 32 34 30 32 32 40 44 40 37 44 46 43 45 41 41 47 52 51 57 57 57 53 57 52 91 71 76 66 87 99 70 47 48 58 62 67 72 85 90 89 84
34 29 26 28 29 25 27 35 35 37 26 37 45 42 39 41 45 50 48 47 47 57 62 75 68 63 60 62 61 55 85 74 66 61 84 97 83 54 52 55 62 71 76 84 85 83 83
34 30 27 28 28 25 25 32 33 40 30 29 41 46 42 43 46 53 59 50 48 55 68 81 79 76 75 78 74 81 91 80 74 68 84 98 89 66 57 54 61 73 78 76 80 79 78
35 31 28 28 27 25 24 29 30 38 36 24 36 41 47 44 53 53 64 55 55 60 65 82 89 82 83 89 88 93 94 85 85 84 98 98 86 75 67 58 58 53 55 60 65 68 71
37 32 28 27 27 25 25 25 28 37 41 26 29 40 47 44 51 59 68 72 63 73 77 82 84 87 90 92 89 90 85 82 78 91 96 98 83 74 62 53 45 48 51 56 54 58 68
38 32 29 27 27 26 24 25 23 32 43 20 21 32 43 44 47 57 66 73 76 83 87 79 85 85 83 91 92 92 78 75 77 82 95 98 84 80 71 62 54 50 57 64 62 58 67
34 32 30 27 27 25 24 25 25 25 35 18 17 28 40 45 48 52 63 69 77 84 94 81 74 75 82 88 92 88 80 86 89 92 97 93 81 80 74 68 61 55 57 63 62 61 64
36 32 31 26 27 26 24 24 25 25 27 30 14 29 37 45 46 53 58 61 68 80 86 95 91 83 86 88 88 86 88 91 98 90 96 94 90 82 76 72 63 63 59 63 65 67 70
36 32 31 27 28 26 24 25 26 25 24 25 16 28 38 41 44 49 57 51 60 78 85 82 85 85 85 78 79 89 91 97 98 97 94 92 84 79 74 63 62 63 58 59 61 64 64
36 34 30 28 29 26 24 25 26 25 23 21 27 26 37 40 42 47 62 62 63 70 89 89 80 75 77 84 90 96 97 94 96 95 94 93 87 81 74 71 65 64 66 65 67 69 76
35 34 30 29 28 27 26 25 26 25 24 21 19 36 34 40 42 44 52 58 62 74 86 94 84 83 89 83 91 96 92 81 87 96 96 94 91 85 81 76 72 71 72 86 86 84 75
35 34 31 29 28 27 26 26 26 25 25 20 21 29 39 40 46 43 47 48 59 64 75 87 87 84 86 90 95 90 88 86 82 85 88 90 89 80 76 73 72 73 73 79 81 81 71
36 35 32 30 30 30 28 26 26 24 24 22 23 29 39 41 46 46 45 48 51 58 62 69 79 80 80 80 84 82 85 89 83 77 78 76 78 76 75 73 74 76 84 71 74 70 75
36 35 34 32 31 32 30 25 26 23 22 21 25 31 36 47 47 48 46 48 51 52 55 57 60 69 79 74 73 78 77 78 75 70 65 66 76 73 74 70 76 78 84 85 82 78 75
36 34 35 34 34 34 28 25 26 23 21 21 29 35 37 42 51 50 51 50 47 48 53 53 53 56 72 77 74 72 73 70 68 71 64 64 65 78 81 82 81 88 88 86 80 76 73
36 35 36 37 35 34 27 26 23 22 22 22 28 40 38 45 49 51 52 51 47 47 47 54 56 51 58 63 73 73 70 64 60 61 61 64 69 81 89 83 81 88 89 85 84 78 78
34 34 36 38 35 32 28 26 23 22 22 23 30 36 39 40 49 54 53 53 50 49 49 52 55 56 55 57 65 73 73 69 63 63 67 68 79 90 90 87 85 90 86 82 81 81 81
32 34 35 37 34 32 27 25 23 22 22 25 29 37 40 44 45 50 56 59 55 51 49 51 56 57 57 58 60 69 72 74 76 74 76 76 78 80 82 76 78 85 82 84 85 90 79
33 34 35 36 34 31 29 26 24 23 22 25 27 34 37 46 50 47 56 62 61 59 56 52 55 57 59 60 58 63 68 73 76 80 84 83 85 83 82 79 77 78 79 83 84 78 83
34 35 36 36 35 33 30 27 25 25 24 24 26 30 32 37 46 51 52 62 65 64 62 62 56 61 60 56 55 56 56 65 69 72 73 75 79 77 70 73 75 77 71 79 81 80 79
33 34 36 34 35 34 29 27 28 27 26 28 29 32 39 42 44 50 56 57 63 68 62 69 70 65 63 63 59 59 56 54 57 61 66 69 74 74 73 72 67 66 60 62 65 67 69
32 35 34 34 34 33 29 27 27 28 28 29 30 33 32 38 43 48 51 56 63 61 79 65 70 70 65 65 62 59 62 61 58 57 57 60 62 67 72 67 71 47 47 50 50 46 53
37 36 35 35 33 32 29 27 28 28 29 29 29 31 34 39 42 46 52 59 62 70 72 81 69 75 74 69 70 69 67 63 62 63 65 64 68 71 72 73 58 47 50 49 50 45 44
40 36 36 34 31 31 29 28 29 31 30 31 33 33 36 39 45 49 52 57 62 73 78 78 85 74 78 77 76 78 77 72 73 70 68 68 67 70 74 72 71 50 53 52 51 55 51
39 36 34 29 31 30 29 28 31 32 31 31 35 36 40 42 43 49 49 55 67 71 73 79 86 87 78 82 76 78 77 68 72 73 77 76 74 76 72 72 59 50 50 55 61 52 57
36 36 32 30 30 30 28 28 32 34 32 33 38 40 42 44 46 50 54 62 73 76 78 85 90 94 86 83 75 73 71 66 65 63 64 67 74 81 76 77 72 53 56 59 52 52 58
40 37 32 31 31 29 28 31 34 33 32 33 38 40 43 45 44 51 55 66 71 73 76 81 89 95 96 89 82 77 69 65 65 67 61 61 56 60 63 63 58 61 63 62 55 55 58

GFSGBSN_prec_cthk_066.txt.gz
RH
35 29 25 24 27 31 31 34 32 31 29 32 40 44 36 43 45 41 45 35 35 38 39 48 56 66 74 76 66 58 65 60 71 92 81 92 85 60 55 59 60 64 73 87 89 88 81
37 31 27 25 27 31 30 31 32 35 30 27 37 44 39 47 45 48 47 41 39 43 46 45 46 59 60 63 58 49 67 75 73 87 79 95 90 64 53 56 60 59 67 78 89 92 86
41 31 29 26 27 31 31 29 29 34 38 25 34 41 43 45 47 50 48 47 47 53 54 62 57 52 60 55 52 52 56 80 83 81 75 94 90 73 53 56 59 65 69 90 94 94 91
43 35 31 28 27 28 31 29 30 33 40 27 30 42 46 46 51 53 54 52 57 55 59 71 74 60 57 59 54 51 52 83 72 79 77 95 96 80 64 56 61 70 71 88 91 94 96
44 38 33 29 27 27 30 28 30 34 42 29 26 40 45 46 49 55 57 55 66 64 70 81 83 76 71 68 61 57 55 84 75 80 82 95 98 80 67 57 67 73 74 74 86 86 86
46 37 33 30 27 27 28 25 28 30 40 31 25 31 43 46 47 57 58 62 71 73 74 83 87 86 84 85 76 74 72 85 86 88 83 94 98 85 79 59 58 60 67 61 67 65 76
46 38 34 31 27 27 27 24 25 25 33 35 22 22 39 46 46 51 57 70 75 78 76 90 91 93 89 93 83 85 97 91 94 88 89 98 98 78 70 53 44 52 60 62 57 61 71
46 40 33 32 27 27 27 25 25 26 26 34 16 19 37 46 48 49 55 68 76 84 82 79 86 83 90 95 97 94 92 88 98 79 87 98 94 81 73 54 52 49 55 61 58 61 70
46 41 34 33 28 28 27 26 26 26 25 26 22 20 36 44 48 54 54 66 73 78 94 87 77 75 83 89 88 90 85 96 89 92 98 95 86 82 74 60 55 51 53 54 56 58 65
47 43 35 32 28 28 27 26 26 26 25 25 24 20 37 41 46 58 60 63 71 76 85 98 93 93 84 80 88 84 79 83 92 98 98 97 84 78 79 65 55 56 49 48 57 62 71
47 43 34 31 29 29 28 27 26 26 25 23 19 29 36 42 44 52 63 61 63 76 79 89 87 86 84 82 78 78 76 70 89 94 96 98 83 84 83 71 64 58 53 53 59 65 64
41 42 34 31 31 30 28 28 27 26 25 24 21 25 34 40 46 49 56 60 64 70 74 83 84 74 77 80 84 82 78 76 82 87 96 96 93 87 84 74 68 62 58 63 71 73 79
43 40 34 32 32 30 29 30 27 26 24 24 22 25 35 38 47 46 50 54 61 69 77 75 81 80 87 91 84 90 87 88 95 98 99 96 97 91 81 75 70 65 66 78 81 81 78
43 38 36 34 33 31 31 30 28 26 25 22 21 25 30 40 45 48 46 49 60 63 74 77 78 79 89 88 88 91 89 97 91 89 90 96 96 85 77 73 70 70 63 69 71 77 68
41 37 36 35 34 33 34 30 26 26 25 21 22 26 31 36 46 47 46 48 53 59 62 70 75 75 80 82 83 84 76 85 84 79 85 90 91 87 82 77 73 77 73 60 63 64 69
40 37 35 34 35 36 35 30 26 23 22 20 25 30 34 35 46 46 46 48 52 55 59 61 65 67 72 73 81 78 76 78 79 78 77 78 86 84 82 78 79 74 68 74 76 73 70
39 37 34 34 36 38 35 31 26 23 23 22 29 34 37 38 44 45 47 50 50 51 53 56 60 65 69 69 76 75 74 78 78 77 69 66 67 78 73 74 76 78 81 78 78 75 72
40 38 34 34 35 38 34 30 26 23 24 22 29 38 40 45 45 46 48 49 48 47 49 54 58 65 68 74 71 69 70 68 68 66 68 69 72 79 74 71 71 72 77 77 86 80 80
41 39 33 32 34 38 34 29 26 24 23 24 30 35 41 44 46 48 46 47 51 51 48 51 56 58 62 65 73 74 70 64 63 63 66 64 74 78 79 78 76 79 75 73 80 81 81
40 37 32 32 34 37 33 30 27 27 24 24 29 36 40 43 48 49 50 53 52 54 50 50 55 60 60 63 69 76 77 73 69 65 62 59 63 62 69 66 74 82 78 83 86 88 82
41 37 33 32 34 36 32 30 28 27 25 24 27 34 38 43 48 48 53 57 59 61 56 52 54 59 63 64 67 71 76 77 81 79 75 70 74 75 73 73 78 79 80 79 86 86 83
41 36 34 34 34 35 30 29 27 27 25 25 25 29 31 36 45 49 55 62 67 66 67 65 59 63 63 64 63 65 66 73 78 83 86 87 88 83 76 76 80 82 81 85 84 82 82
41 37 36 33 34 33 29 28 27 26 24 24 25 28 32 38 39 48 51 54 66 66 73 72 72 67 64 66 63 61 61 60 69 74 78 79 81 79 77 75 72 71 65 68 74 74 76
41 38 37 33 34 31 28 27 28 27 24 23 25 27 27 30 37 44 46 49 57 65 70 77 75 74 72 71 66 63 66 66 61 63 68 71 71 72 74 69 71 53 51 52 56 56 59
40 40 41 33 33 31 29 29 30 28 25 24 25 26 28 33 36 37 42 47 55 62 77 77 82 81 77 74 72 70 69 66 67 66 66 64 66 72 72 71 55 43 50 52 52 50 49
41 42 40 33 33 29 28 31 31 28 27 27 27 28 29 32 38 40 42 45 52 59 71 85 83 86 82 78 77 77 74 70 68 67 67 71 68 71 79 77 71 46 52 52 57 61 59
44 42 35 34 31 29 32 33 31 30 29 29 29 29 31 34 38 40 45 50 55 63 65 75 87 84 87 82 82 82 79 74 77 76 77 81 79 81 81 80 63 52 51 53 62 56 56
45 42 40 35 30 32 31 33 31 31 29 29 29 29 32 34 40 44 49 55 58 62 70 71 86 91 94 93 84 84 79 77 76 73 74 75 81 84 81 82 74 55 57 61 60 57 55
45 43 35 33 30 32 31 33 32 30 30 30 29 31 34 35 40 43 47 49 54 63 67 74 81 95 91 92 91 83 78 75 71 70 64 65 59 61 59 60 55 57 62 63 63 64 61

GFSGBSN_prec_cthk_069.txt.gz
RH
39 36 30 29 29 30 30 29 28 29 37 33 27 33 36 34 43 41 42 42 41 42 40 47 44 63 72 87 79 72 69 55 51 64 75 87 92 79 59 59 61 61 74 73 82 81 83
40 40 33 31 29 32 30 29 29 30 37 36 25 31 37 37 41 46 44 46 49 49 48 55 56 62 58 63 68 62 58 57 54 65 80 88 93 84 73 58 61 60 68 77 81 86 89
40 41 37 32 30 30 30 29 29 31 36 38 27 28 38 39 42 50 49 52 58 52 54 64 70 61 49 55 59 64 53 58 63 79 81 80 96 86 78 61 63 62 66 75 86 85 90
45 42 39 33 31 30 30 28 26 32 33 41 30 27 37 43 44 53 56 58 59 57 59 76 76 64 58 60 60 54 49 57 69 95 85 84 96 91 79 65 60 75 69 76 80 83 88
50 45 43 34 32 29 29 27 26 28 33 38 33 25 29 44 45 50 59 61 63 64 66 76 79 73 69 66 60 54 48 58 76 90 87 79 96 97 81 67 67 75 71 66 74 80 82
53 50 45 36 33 29 28 27 26 27 31 32 39 23 25 44 44 47 58 64 67 68 70 69 78 76 80 72 66 64 52 62 81 90 90 94 98 97 84 70 64 65 64 65 63 74 79
58 50 46 40 35 29 29 27 25 26 28 29 35 19 22 40 44 46 54 65 69 74 65 73 80 82 95 92 72 65 56 73 91 98 94 84 97 90 80 67 56 55 62 61 60 67 80
54 51 47 45 34 31 30 28 26 26 27 26 25 23 24 38 42 46 51 59 68 78 77 72 70 76 84 95 84 85 75 86 92 96 85 96 98 91 83 71 61 56 62 61 60 64 71
64 52 47 45 35 32 31 28 28 26 27 25 24 21 24 38 39 45 47 54 65 71 80 92 93 92 82 91 86 96 86 88 90 87 75 92 94 87 81 76 67 61 56 60 60 64 64
63 54 46 44 35 33 32 28 29 27 27 26 24 20 32 35 39 44 50 52 60 69 78 86 91 89 86 81 88 87 92 95 98 86 80 87 91 85 83 77 69 61 51 51 55 58 66
59 49 41 42 36 33 32 30 29 27 28 26 25 23 29 36 41 44 49 54 60 67 78 78 86 86 81 83 80 90 88 94 84 87 95 93 90 88 85 78 65 54 50 50 52 55 54
56 50 43 41 37 35 32 33 31 27 28 25 24 26 31 40 44 45 48 55 61 64 79 80 85 95 96 80 73 81 86 85 88 92 97 94 92 89 89 75 60 55 55 57 59 58 65
60 50 42 39 38 35 32 33 31 26 26 26 24 28 33 39 44 47 46 50 60 65 68 77 88 89 90 85 70 74 76 89 95 97 99 95 92 91 89 79 70 60 63 73 73 73 67
72 51 39 38 36 34 33 33 30 27 24 24 25 30 36 38 45 47 49 50 59 62 69 73 78 88 90 81 72 70 75 90 84 85 98 99 95 90 85 78 77 66 61 65 71 72 64
72 52 39 36 36 33 34 34 30 28 25 24 27 33 39 40 45 47 50 48 53 58 63 68 71 75 80 81 84 75 80 86 78 83 86 90 97 92 89 86 73 68 68 59 64 62 60
74 56 39 34 35 33 35 34 30 29 26 25 30 36 40 42 44 48 49 49 51 55 58 63 67 67 74 75 82 75 83 84 87 85 81 81 91 87 86 79 76 70 63 68 67 65 62
80 58 38 35 35 34 35 33 30 27 26 25 32 39 42 43 46 48 50 52 55 55 56 56 62 69 69 76 76 71 74 82 81 82 80 78 78 89 81 79 79 75 75 72 67 67 65
83 58 39 35 35 33 33 32 29 27 26 25 29 38 40 43 46 49 51 52 53 55 56 55 61 68 74 74 80 78 76 78 78 74 75 76 78 83 83 78 79 77 74 69 74 72 72
82 54 39 36 35 33 32 31 28 26 25 24 29 33 40 42 44 48 48 51 52 54 56 56 60 62 68 73 72 74 76 75 77 77 74 69 76 80 82 74 73 76 72 69 69 71 74
81 52 39 35 34 33 31 30 28 26 25 25 28 34 38 41 42 46 51 53 54 55 55 57 60 63 62 69 76 80 77 73 72 73 73 71 74 70 71 64 68 75 74 74 73 75 66
82 52 38 36 33 33 31 28 27 25 26 26 26 31 32 38 42 45 50 54 59 62 60 57 56 64 66 67 71 76 80 81 76 76 75 71 72 72 70 68 70 72 78 80 83 76 75
81 55 40 36 35 35 30 28 26 26 26 25 24 28 28 32 39 43 47 56 61 63 66 65 61 61 64 67 65 71 71 74 80 79 76 76 79 72 69 71 74 78 77 79 78 78 76
80 56 41 37 35 34 30 28 27 27 26 25 24 26 29 34 35 41 44 47 59 63 66 66 71 69 64 70 70 67 64 62 69 79 85 88 89 84 81 77 69 67 66 69 72 73 73
77 57 41 39 35 33 30 29 28 27 25 25 24 25 26 30 35 38 40 44 49 58 64 67 72 74 78 74 70 67 65 65 62 69 75 82 84 85 83 76 78 55 53 57 60 59 63
80 57 44 40 35 33 29 28 28 29 27 27 25 25 26 33 34 34 37 44 47 53 66 71 81 79 80 80 77 75 72 67 67 69 65 64 69 75 73 69 56 46 52 55 53 52 52
81 59 44 41 35 32 28 28 28 28 29 28 26 26 27 30 37 36 38 42 46 50 56 70 80 84 83 85 84 85 78 71 70 69 69 70 70 69 77 79 74 52 55 50 53 62 58
81 55 44 41 35 31 28 27 29 31 29 27 26 27 27 30 35 36 40 45 46 50 55 59 74 85 86 87 91 85 82 73 74 73 74 75 79 81 81 80 67 58 55 54 60 55 58
83 56 48 39 35 32 29 26 30 32 30 27 28 27 25 30 35 38 41 44 47 51 55 60 70 82 93 91 88 85 78 79 76 73 77 79 83 87 85 86 79 59 63 64 58 58 59
69 61 48 40 34 32 28 26 32 33 31 29 29 25 26 28 33 37 37 41 45 51 55 61 73 80 88 95 91 87 82 80 79 79 75 76 69 70 67 62 53 54 58 63 64 63 62

GFSGBSN_prec_cthk_072.txt.gz
RH
50 45 37 35 32 30 31 34 28 31 31 33 34 26 30 36 35 40 43 43 47 44 41 43 52 51 61 81 90 92 85 79 57 55 67 78 91 83 65 56 63 68 69 75 77 72 77
54 49 44 40 33 32 30 31 29 31 30 31 38 27 26 37 38 41 50 46 52 50 43 46 57 57 52 58 81 70 72 74 63 60 68 74 83 85 68 59 63 63 65 68 72 70 76
58 55 48 44 38 33 31 29 28 30 31 32 35 31 24 34 40 45 51 49 51 45 46 50 52 52 50 51 58 71 60 63 62 65 76 77 87 89 75 59 59 65 66 67 74 69 76
65 61 52 47 42 34 31 29 28 29 31 32 32 38 25 29 41 43 50 51 52 48 50 54 59 55 49 49 56 57 56 52 56 69 75 79 86 90 84 71 55 71 66 73 74 77 84
66 65 52 48 44 38 33 30 27 26 29 33 33 37 23 27 40 41 49 53 55 51 55 57 64 70 60 53 57 55 52 52 56 72 82 91 89 94 87 79 63 74 64 67 77 75 86
70 63 54 50 47 42 34 31 27 26 28 32 33 33 25 31 40 40 46 52 58 57 58 62 68 75 74 63 62 60 53 47 63 80 85 86 91 97 90 85 66 57 59 64 64 68 76
69 62 58 55 48 43 36 32 28 27 27 31 31 27 28 33 40 39 45 53 61 65 69 73 82 84 90 77 63 64 51 49 85 90 99 91 93 97 77 75 67 58 63 73 62 65 69
70 65 56 54 49 43 36 33 30 27 27 30 27 26 23 35 39 39 44 52 59 64 75 80 85 87 93 85 70 64 52 61 90 97 88 87 96 96 83 80 72 69 59 69 67 63 65
79 67 60 57 46 42 37 34 31 28 28 28 26 26 25 36 37 39 44 51 57 65 71 84 91 85 93 97 90 81 70 89 90 98 89 85 94 95 88 78 70 64 56 61 57 63 64
83 69 61 53 44 42 38 34 30 29 27 28 26 26 28 31 40 43 44 49 55 64 74 88 84 85 88 93 95 88 90 84 85 97 94 90 90 90 87 75 71 69 56 56 56 59 56
89 74 56 54 43 42 38 33 30 30 27 27 27 26 29 32 40 45 44 50 56 62 75 80 86 73 80 88 89 91 92 87 84 78 76 87 91 88 86 77 71 64 56 54 54 51 52
91 78 61 59 47 39 37 34 31 30 27 27 26 27 30 33 42 44 47 50 57 66 79 79 90 73 79 80 85 85 95 95 83 84 88 88 89 89 86 80 73 64 57 53 51 53 58
93 82 67 66 48 36 36 35 33 30 28 25 25 28 33 35 38 45 48 47 64 68 71 79 88 75 72 76 78 84 88 84 83 88 91 91 89 89 84 78 73 66 59 72 69 70 55
93 85 79 68 47 35 35 34 34 32 29 25 26 30 34 38 39 45 46 48 63 61 70 73 82 82 73 68 75 87 87 93 91 92 90 93 95 92 88 78 69 70 60 56 56 56 49
95 88 84 64 47 35 34 35 35 30 29 25 27 32 37 40 41 44 47 51 53 63 63 66 76 77 80 77 76 82 85 90 80 84 89 85 94 94 95 86 75 71 66 51 53 52 49
95 92 87 66 46 35 33 34 34 29 27 24 28 34 39 42 43 47 48 49 50 54 59 63 67 72 72 76 73 74 88 81 76 82 82 79 91 89 89 83 77 69 61 62 60 62 51
96 95 89 69 46 35 33 33 33 28 26 24 31 36 40 42 44 46 49 51 51 55 56 57 60 65 72 74 72 72 79 79 77 83 81 79 80 92 85 83 83 71 66 63 58 56 52
97 94 91 70 48 36 34 33 31 27 27 25 31 36 40 42 45 47 49 48 50 53 56 55 59 66 69 78 73 76 81 82 84 81 77 75 79 89 82 83 80 76 68 63 64 65 59
99 94 91 69 46 37 34 32 30 27 27 26 31 34 39 42 46 45 44 47 48 51 52 55 57 60 66 71 75 76 77 80 85 77 73 73 76 87 88 78 76 77 67 64 63 64 71
94 94 92 66 43 36 34 32 30 27 27 27 30 35 37 42 42 42 45 47 48 51 52 54 58 58 62 70 70 75 78 79 83 81 78 75 75 70 67 62 61 72 66 67 70 75 58
96 97 93 63 40 34 35 32 29 28 27 26 27 28 32 38 41 41 45 49 50 52 54 53 58 59 61 65 72 80 78 74 77 77 74 75 82 75 65 64 66 66 61 61 70 63 66
99 98 94 64 39 34 35 31 28 29 27 26 26 26 27 32 36 41 43 49 52 54 57 58 57 61 62 65 69 73 74 78 80 78 73 73 80 72 70 69 69 69 62 61 65 68 67
98 99 93 63 39 37 34 31 28 29 28 26 24 24 26 33 33 38 39 45 50 54 59 61 63 63 65 69 69 70 68 67 70 75 82 83 78 73 75 69 65 60 56 59 63 64 65
98 99 93 61 41 36 35 33 30 29 27 26 24 24 26 30 33 35 37 39 45 51 56 61 66 64 73 73 70 70 69 66 64 69 79 89 96 95 88 80 82 63 60 57 57 58 60
99 99 89 61 46 36 35 34 32 29 28 27 25 25 24 31 32 35 37 38 42 47 55 60 69 72 74 75 75 72 68 69 68 68 65 69 77 84 86 80 67 58 57 56 54 52 51
98 98 84 60 49 35 36 33 32 28 30 28 26 25 25 28 32 33 33 36 38 42 48 59 69 75 78 80 79 81 75 70 70 70 68 67 65 63 64 66 58 47 52 50 49 50 51
98 98 85 57 51 37 34 32 30 29 31 30 27 26 25 29 34 33 33 36 38 41 43 50 62 74 86 84 91 81 76 74 69 69 70 73 73 72 67 67 55 52 51 54 56 53 51
98 96 77 59 47 37 36 32 30 30 31 31 28 26 25 30 35 34 35 36 39 40 43 48 60 70 79 85 90 83 73 71 73 71 72 71 72 75 72 76 70 57 60 60 56 56 55
96 96 84 58 42 36 32 31 31 34 33 33 29 28 26 26 33 31 33 33 35 40 43 49 60 68 73 81 84 81 73 76 71 74 75 75 69 69 66 62 57 56 56 59 60 61 61

GFSGBSN_prec_cthk_075.txt.gz
RH
64 62 54 54 48 42 33 31 28 26 25 26 30 35 32 23 38 39 40 45 42 47 41 39 41 45 52 66 86 91 94 95 83 60 63 82 83 67 64 67 75 87 84 78 91 85 62
64 62 62 59 55 46 39 33 27 27 24 27 30 32 38 24 33 41 43 48 44 42 42 42 47 47 51 59 70 81 89 88 83 64 69 79 89 75 62 67 68 65 81 80 85 66 65
72 65 62 63 61 46 45 35 28 28 24 26 32 32 36 27 31 42 45 49 46 43 48 49 53 52 51 53 61 74 81 83 81 72 76 77 92 91 79 62 69 69 68 79 73 81 89
82 78 67 64 60 52 47 41 32 28 25 25 31 32 32 28 33 44 45 49 50 51 52 58 61 65 58 47 58 74 67 74 74 77 80 79 90 94 88 78 74 74 71 82 70 86 85
82 84 76 68 61 56 49 44 35 30 27 25 31 31 30 29 34 43 41 49 52 56 61 66 70 72 70 53 63 69 66 63 69 78 73 76 90 97 92 76 80 73 68 69 72 77 79
85 89 81 68 61 54 50 46 36 31 27 26 28 29 27 24 37 43 39 45 54 60 68 76 79 83 80 61 61 65 66 53 62 72 78 82 87 94 92 89 75 67 60 63 66 76 69
84 87 81 69 66 56 53 43 36 32 27 26 28 27 24 23 37 41 39 49 61 69 75 82 80 82 85 63 60 68 60 54 62 72 80 93 84 81 74 81 65 58 53 69 65 73 74
86 89 86 74 67 56 51 42 36 32 27 28 28 27 23 24 33 38 38 50 58 63 75 83 86 83 89 71 61 67 55 59 66 78 80 91 83 81 86 81 82 66 60 71 72 72 73
88 87 91 80 70 51 45 43 36 31 29 28 27 27 23 27 31 39 44 47 54 61 72 84 77 83 85 88 65 62 53 57 66 86 86 93 75 87 95 92 86 64 59 72 72 67 68
87 89 96 87 72 53 51 43 37 31 29 27 27 26 24 29 34 42 45 43 53 60 76 77 73 69 84 96 81 63 65 79 84 81 80 86 85 91 94 80 72 77 65 68 68 75 63
89 90 99 97 79 57 55 44 37 32 30 27 26 24 25 31 36 44 45 44 54 61 78 70 72 67 77 91 89 95 92 85 89 97 81 78 83 97 89 79 74 72 71 69 68 68 61
92 90 94 97 86 65 58 44 37 33 31 27 26 24 28 33 36 40 44 45 55 70 76 74 69 72 71 77 80 86 92 96 91 84 81 81 84 92 90 79 77 74 67 67 66 64 67
93 91 94 99 89 70 61 43 36 35 32 28 25 26 31 34 40 41 44 48 64 69 68 72 69 68 63 66 75 87 93 87 85 86 85 88 88 92 93 81 74 70 67 76 70 74 64
95 93 95 99 92 78 59 41 36 36 31 26 25 28 32 36 37 38 43 49 64 56 66 71 65 71 72 72 81 85 84 82 79 76 79 92 96 90 86 78 75 75 67 61 57 56 46
94 93 96 99 92 83 59 37 35 36 30 25 27 32 36 37 39 39 45 56 54 57 58 67 74 68 72 74 80 83 87 88 81 76 81 82 91 87 85 85 79 81 77 66 62 57 53
90 95 96 99 94 86 60 34 35 35 29 26 31 36 38 39 39 41 45 49 49 51 53 58 74 70 70 73 78 82 90 82 83 87 81 80 95 92 86 84 77 77 76 66 63 65 48
88 96 95 99 98 88 57 34 35 33 28 27 36 40 40 40 41 43 47 50 49 52 51 56 58 63 67 66 70 75 83 77 75 82 81 78 79 93 90 83 81 72 70 68 64 56 56
86 93 95 99 99 88 55 34 36 32 28 29 38 41 41 40 44 43 46 45 47 50 51 53 56 65 66 70 63 68 79 74 71 80 81 79 81 90 85 81 79 77 69 62 63 61 53
88 92 96 99 99 88 56 37 36 32 28 33 39 40 41 42 45 44 40 44 48 49 50 53 54 57 64 71 71 68 73 77 77 78 79 76 83 94 88 82 78 77 72 69 64 70 74
92 89 95 99 99 88 49 38 36 31 29 29 36 41 41 43 40 40 40 43 46 47 49 52 53 51 61 64 69 69 74 80 84 82 79 75 76 80 80 76 68 75 65 67 71 76 60
96 86 96 99 98 80 42 36 35 30 29 30 30 31 35 39 37 37 38 44 48 47 48 51 55 54 57 63 67 71 72 76 81 83 81 78 87 82 71 69 70 71 69 67 73 64 71
96 90 97 99 98 74 38 39 34 30 30 31 31 27 28 31 32 37 39 43 47 51 50 50 51 55 57 60 64 75 74 73 75 77 77 76 83 77 72 68 68 70 62 61 60 59 61
96 89 98 99 96 70 37 36 34 31 30 31 26 24 25 31 30 35 37 44 46 48 52 53 54 55 60 65 68 67 70 69 74 78 78 81 78 79 76 66 63 61 52 53 56 55 56
96 93 97 99 92 62 38 35 37 33 29 29 25 25 27 30 29 33 34 38 44 48 52 55 56 56 64 67 65 64 66 65 64 65 74 85 87 88 84 74 77 55 48 48 48 49 47
96 95 99 99 93 63 40 36 33 40 31 29 26 25 26 30 30 32 34 37 43 47 52 53 58 58 63 67 66 68 67 69 63 60 59 68 83 88 88 76 61 55 52 53 51 46 45
96 97 99 98 84 56 40 44 43 41 31 30 29 26 27 28 30 31 34 36 38 41 48 52 56 59 64 70 70 68 71 65 68 67 63 60 63 72 75 80 68 56 53 51 50 50 50
97 98 99 97 78 56 45 41 42 43 35 32 30 27 28 30 32 31 31 33 35 36 40 47 56 62 65 68 78 78 73 67 69 68 72 72 69 70 72 75 60 52 51 50 54 57 53
99 97 99 92 75 56 47 39 37 42 33 31 31 28 27 31 33 33 33 33 33 36 37 40 53 58 68 75 76 79 75 69 70 68 73 73 75 74 72 82 71 57 56 58 63 59 54
99 92 98 89 74 55 46 36 37 36 34 33 31 29 28 29 33 31 29 29 32 35 39 42 51 56 60 69 73 73 74 76 72 74 70 72 72 74 71 71 65 59 62 62 61 61 61

GFSGBSN_prec_cthk_078.txt.gz
RH
74 71 72 68 65 60 55 51 42 32 27 27 25 30 31 35 29 25 40 37 44 41 44 42 45 50 44 53 62 81 96 96 94 95 88 71 81 72 69 68 81 92 87 77 81 92 82
83 77 77 81 70 66 61 54 47 37 29 28 26 30 31 33 28 27 38 39 46 44 45 48 53 55 51 53 54 79 92 97 96 84 91 73 81 78 65 68 77 83 85 85 80 78 82
83 81 78 82 81 72 65 55 48 42 31 29 27 28 31 32 27 31 39 40 46 47 51 56 61 59 63 48 46 76 84 91 97 80 87 78 80 90 79 71 68 72 80 82 90 86 82
87 82 83 85 87 78 70 62 50 45 33 30 28 28 31 31 26 33 40 37 45 50 55 63 63 63 75 50 44 74 81 84 84 86 80 89 82 84 84 78 68 78 80 86 90 85 79
81 84 85 86 89 84 71 63 56 46 34 31 28 28 28 26 23 32 38 35 44 52 58 68 67 72 79 61 47 72 72 88 79 81 90 89 96 88 89 85 73 82 86 78 86 86 78
78 83 86 85 87 86 76 65 53 43 35 31 28 28 26 24 22 32 34 35 45 54 65 72 73 77 84 69 47 66 60 67 79 78 86 94 96 95 94 92 83 74 77 76 73 81 77
54 77 84 86 94 88 81 68 48 42 37 31 29 28 27 22 24 32 35 39 54 67 71 63 72 72 84 66 49 63 63 51 61 73 89 89 96 95 93 90 74 64 59 62 59 72 77
47 70 78 87 88 94 88 73 54 46 38 31 30 28 27 23 27 31 34 43 50 58 68 65 69 78 80 60 57 65 53 57 59 75 73 82 89 87 93 89 90 87 71 70 66 74 76
46 48 75 86 92 96 93 78 56 52 38 32 29 28 25 25 29 32 38 43 46 53 66 67 67 79 84 61 57 57 56 59 55 79 72 79 75 80 84 86 92 91 73 65 83 71 74
47 49 67 82 92 95 97 85 61 54 38 33 29 28 24 28 35 37 40 41 45 54 72 67 66 75 85 71 64 50 55 55 51 76 82 96 82 73 75 83 88 83 66 62 69 82 80
50 51 58 79 92 96 99 91 67 57 39 35 30 28 24 30 35 39 41 41 47 58 76 65 67 66 77 78 74 79 73 66 58 73 81 77 80 80 81 81 85 78 71 76 74 72 74
51 52 57 79 92 97 99 94 72 59 40 36 31 26 27 32 37 37 40 42 50 68 72 66 63 65 73 83 87 86 93 85 79 78 83 83 83 85 83 84 84 80 78 82 81 79 84
51 56 58 80 93 95 99 96 76 56 39 36 30 26 30 35 39 37 40 46 61 67 65 67 61 58 62 73 81 98 89 93 91 99 89 86 94 93 92 83 79 77 88 89 90 87 77
51 63 61 79 94 98 99 98 79 51 38 36 30 29 32 37 37 37 40 49 58 55 66 68 63 60 67 76 80 88 96 85 80 74 75 84 91 94 90 83 78 73 69 78 70 72 65
56 71 72 86 94 97 99 98 78 51 36 35 31 33 36 37 39 39 43 51 58 56 59 67 69 66 67 72 76 81 79 76 72 71 78 79 91 92 86 81 80 78 77 68 70 58 63
56 77 84 91 95 98 99 99 79 48 36 33 35 37 40 40 40 40 44 50 48 50 52 59 81 71 68 67 74 82 80 71 68 72 68 67 84 84 83 83 81 82 75 77 75 75 59
62 76 86 96 94 99 99 99 76 42 37 34 39 43 42 41 41 44 43 46 46 46 51 58 62 65 64 69 75 76 81 75 72 75 73 74 77 86 87 86 80 81 90 77 72 74 80
62 84 88 98 97 99 98 98 70 40 38 35 43 48 43 41 46 44 44 41 44 46 49 52 55 63 64 65 69 72 76 71 74 78 78 79 88 91 89 86 85 84 79 79 85 75 67
67 84 97 97 98 99 99 97 67 39 39 35 45 47 43 41 46 44 39 39 44 46 48 52 53 58 63 69 70 67 70 74 65 75 81 79 87 95 93 87 84 84 78 72 69 71 73
65 94 98 97 99 98 99 96 67 39 40 34 44 45 45 46 43 45 40 40 43 43 45 48 50 52 61 67 69 72 68 75 74 75 79 78 82 84 89 79 78 79 71 72 81 86 69
64 95 97 98 99 97 99 95 62 49 36 35 39 42 36 41 39 37 38 40 43 42 45 47 50 52 59 65 67 70 74 74 81 81 79 79 87 81 73 76 78 72 70 72 76 69 76
73 96 98 99 99 98 98 87 46 48 34 33 35 35 37 37 33 34 36 39 41 45 44 45 49 50 54 61 62 73 66 72 75 80 81 84 91 81 78 74 74 73 70 67 65 64 64
87 98 98 97 98 98 96 75 41 48 33 32 35 32 28 33 31 35 36 37 41 44 46 50 47 48 52 59 64 65 70 74 75 75 76 79 85 88 85 72 70 71 60 61 59 57 58
90 98 96 98 98 98 92 55 46 44 34 31 32 28 29 31 31 33 36 37 40 44 47 51 50 51 56 57 59 62 63 66 70 73 75 84 86 89 91 79 84 60 54 53 55 55 58
86 96 98 97 99 98 84 47 49 40 34 31 31 27 29 32 32 33 34 37 37 44 48 51 52 52 54 55 59 63 64 63 64 65 68 71 81 89 91 90 73 64 59 54 53 52 47
98 99 98 99 98 96 80 46 51 39 39 34 32 31 29 31 33 31 33 36 39 44 49 51 53 52 54 59 62 67 72 64 70 67 64 66 71 80 84 84 79 70 64 56 53 59 58
93 95 98 99 98 93 69 43 44 46 38 31 33 31 30 31 33 34 33 35 33 37 44 47 49 53 54 56 64 72 72 69 73 71 75 73 72 75 74 77 64 55 51 53 59 67 62
91 97 98 98 98 91 65 49 59 54 40 34 35 32 30 31 34 34 32 32 32 33 37 41 52 54 57 60 64 65 70 71 67 65 69 72 77 74 70 77 74 53 51 52 58 57 56
98 98 98 98 97 85 59 62 60 57 40 32 33 31 29 29 35 33 31 32 30 34 35 42 48 50 54 60 62 66 64 65 64 69 69 73 70 77 73 71 62 60 59 57 59 61 62

GFSGBSN_prec_cthk_081.txt.gz
RH
78 85 80 84 84 82 83 78 67 57 50 41 30 30 33 31 31 29 26 33 40 43 40 50 48 51 51 55 48 52 77 92 81 83 75 94 80 77 84 58 80 87 81 91 88 83 85
55 69 86 83 84 85 86 86 76 64 54 49 32 32 32 32 33 27 29 36 39 42 44 53 54 53 55 59 40 56 79 95 92 77 85 93 82 78 76 65 79 75 79 81 93 93 85
47 49 60 80 84 85 88 90 85 70 53 45 34 33 31 32 32 27 30 39 39 43 47 56 54 55 64 58 40 59 81 95 98 85 89 90 80 86 87 69 71 82 82 79 92 87 95
44 48 46 56 78 85 88 89 90 75 55 40 34 33 30 31 28 22 30 39 34 42 50 59 52 60 70 62 46 65 81 95 90 90 96 87 76 84 89 74 68 80 81 92 87 95 91
48 47 45 43 56 80 86 92 96 82 64 44 34 34 31 30 26 22 31 34 35 42 55 55 59 64 70 70 44 59 80 84 86 93 94 83 83 90 91 84 75 84 95 95 93 92 93
45 48 46 44 45 57 83 91 96 91 72 50 35 34 31 29 25 25 31 33 36 46 60 55 64 67 70 64 43 66 68 75 76 80 84 94 80 91 92 84 90 89 88 88 89 91 93
41 46 50 48 44 50 60 91 94 96 78 54 37 35 30 28 25 29 32 36 46 57 60 54 64 66 63 47 47 68 63 65 69 72 82 93 96 81 84 87 95 85 81 79 80 83 81
20 39 50 52 49 45 51 80 94 99 84 67 42 35 30 28 27 30 32 39 42 51 57 59 66 66 62 43 50 60 58 54 60 75 85 93 98 86 85 88 89 86 79 80 78 85 82
7 14 40 53 51 51 48 63 94 98 90 72 48 35 32 27 29 32 35 40 40 46 57 62 64 64 55 51 48 53 55 48 52 66 77 86 96 94 91 90 88 82 72 71 71 84 92
15 6 16 42 54 50 50 54 90 96 96 77 52 36 33 28 32 35 38 40 39 49 66 61 63 67 63 58 51 45 52 53 52 65 75 84 88 89 90 92 86 88 75 74 76 78 91
16 13 7 24 53 50 54 50 83 97 97 80 57 37 32 29 33 36 39 41 40 54 71 60 60 69 73 68 69 58 56 52 51 69 72 76 86 85 87 85 83 88 73 73 78 86 84
21 17 12 12 48 59 54 52 77 95 98 80 59 37 31 32 35 37 39 39 47 63 66 67 61 64 78 85 94 91 93 67 63 77 85 92 80 77 81 84 85 82 77 78 82 87 91
24 18 17 14 37 62 55 58 74 96 98 80 56 36 33 34 36 37 39 44 55 65 61 68 60 61 75 84 87 87 82 73 77 87 88 92 93 91 87 89 85 88 85 97 98 96 82
33 30 26 24 33 63 62 63 77 97 98 80 51 35 35 36 38 36 40 48 55 48 60 68 61 63 69 77 86 86 86 83 84 87 90 96 94 89 87 88 85 83 86 84 88 90 73
49 51 41 34 40 75 62 66 83 96 96 76 47 38 39 38 38 38 45 49 49 52 54 66 68 69 69 72 76 84 81 79 80 82 87 89 97 91 87 81 78 86 86 65 71 64 71
82 77 60 46 61 78 66 71 88 93 95 71 43 42 42 42 40 40 46 45 47 49 52 58 78 69 70 71 76 81 88 76 74 72 80 76 94 91 83 80 78 78 75 78 80 75 67
89 80 71 52 85 85 67 81 90 95 90 70 43 45 46 44 40 44 44 45 45 47 53 56 68 71 61 67 76 77 75 66 62 67 68 69 76 88 87 81 80 79 82 75 74 83 83
97 96 78 81 86 89 74 89 91 97 86 64 45 50 50 46 42 43 41 43 44 47 51 52 54 64 63 67 75 78 72 68 68 62 66 70 76 87 85 84 80 79 80 81 87 76 77
97 88 72 89 98 92 82 96 92 97 80 53 48 51 52 45 45 43 41 42 45 48 49 50 51 58 66 66 74 75 74 71 67 68 71 69 79 88 89 82 79 81 78 78 77 76 74
96 82 79 96 98 90 98 98 97 95 69 52 45 53 52 48 43 45 43 42 46 46 47 46 48 54 61 69 69 71 70 70 67 69 72 72 78 80 82 74 77 81 76 77 79 86 73
89 75 82 96 91 99 98 98 99 87 62 61 43 44 38 42 39 42 44 40 43 45 44 45 48 54 60 63 67 72 73 74 71 71 72 78 86 82 78 81 82 80 75 75 79 72 76
81 76 91 98 96 98 99 99 97 84 53 55 40 42 41 37 36 41 46 42 41 42 41 44 49 53 55 61 64 68 68 73 78 80 82 83 92 84 78 73 73 76 73 70 71 74 73
71 78 89 95 95 98 98 99 95 82 59 44 40 37 35 36 36 37 38 40 42 42 43 44 47 53 57 62 64 66 67 70 74 78 81 84 89 91 90 80 75 73 66 65 63 61 62
64 85 84 86 97 98 98 99 91 79 53 38 37 36 34 33 34 33 34 38 43 42 42 46 46 50 56 57 57 59 61 65 68 74 78 86 88 88 92 83 90 65 58 56 57 57 58
67 88 91 85 95 98 98 98 88 68 43 34 35 35 32 34 33 35 39 41 43 43 44 46 45 50 55 55 58 62 65 64 66 67 72 78 87 93 91 87 73 67 64 61 58 57 55
61 79 83 97 99 98 98 94 89 58 41 33 39 37 32 33 35 35 37 38 41 43 46 46 49 50 51 56 56 60 67 63 70 68 64 68 76 81 86 82 74 62 64 66 61 67 62
74 82 93 97 98 99 99 88 72 55 38 35 40 37 32 32 35 33 34 36 37 41 46 46 48 50 51 55 61 61 61 59 72 73 73 73 70 74 80 79 67 58 56 54 58 63 66
77 88 93 97 98 98 97 76 61 51 43 41 38 38 36 34 37 35 33 34 33 36 40 42 47 48 53 55 57 61 64 61 59 63 67 67 70 73 74 80 80 68 66 67 68 66 66
76 87 97 98 98 98 96 72 57 63 47 41 38 38 34 31 38 37 34 35 34 34 35 39 42 45 48 52 56 61 59 61 59 61 58 63 60 67 71 78 76 69 70 73 72 73 73

GFSGBSN_prec_cthk_084.txt.gz
RH
47 47 48 50 58 66 74 81 88 86 90 84 58 34 32 33 38 36 34 30 34 39 40 39 46 44 42 46 48 38 50 77 86 87 93 79 98 85 72 72 66 80 90 79 93 89 88
45 47 47 49 54 57 62 71 82 89 86 92 70 43 32 34 36 35 33 33 36 38 39 42 48 42 47 53 47 42 69 91 95 84 86 85 95 87 70 74 62 73 85 76 89 94 89
41 44 46 46 50 55 55 62 71 80 89 92 82 59 33 35 35 31 29 33 38 34 40 46 44 47 52 55 51 45 79 96 92 76 77 84 94 93 73 76 56 80 95 88 87 93 96
28 35 43 50 50 50 54 54 64 69 81 89 89 68 40 35 35 30 27 33 32 35 42 46 46 52 55 60 46 50 82 94 92 73 78 90 91 86 84 83 61 82 94 97 97 96 93
18 24 32 40 54 53 50 54 58 62 76 84 85 78 56 33 34 30 30 31 32 35 48 45 53 54 54 52 41 57 79 89 94 90 97 88 95 89 86 90 76 83 98 93 94 89 95
20 19 17 24 38 54 57 53 56 59 70 81 86 86 61 35 33 30 32 31 33 39 51 51 55 58 51 44 43 59 69 76 88 94 93 88 88 88 93 92 89 77 92 91 90 89 90
23 20 13 9 16 33 54 59 59 58 66 79 87 77 71 43 33 33 32 34 41 50 51 52 53 50 46 40 51 57 62 65 74 89 92 88 92 92 92 91 82 74 74 83 85 87 94
24 23 22 15 7 12 33 62 58 61 64 75 86 79 79 57 33 34 31 36 38 45 49 52 55 51 45 49 52 53 61 56 65 76 83 94 88 94 91 88 86 80 73 85 85 85 90
18 21 20 19 17 6 15 44 67 63 61 72 81 78 82 63 35 33 34 37 37 41 50 55 55 56 48 52 53 48 57 51 58 68 78 96 90 90 90 94 92 87 88 79 88 94 91
16 13 11 11 16 13 7 27 67 61 65 76 81 81 77 69 36 37 38 37 37 41 59 55 57 65 62 57 55 45 51 50 53 70 83 90 95 89 84 90 89 87 87 85 85 92 96
25 22 23 13 10 18 9 13 51 62 73 73 78 80 77 64 38 36 38 38 38 48 59 58 57 68 79 76 63 49 50 50 50 61 81 93 93 93 87 85 85 91 85 80 85 91 84
43 41 34 29 16 13 18 10 38 70 70 71 78 77 76 59 39 37 40 38 42 58 60 64 58 64 80 84 92 80 72 55 53 66 89 89 84 90 85 86 87 93 83 83 88 97 94
62 56 53 45 31 17 22 13 36 69 73 72 80 77 77 58 39 38 39 39 51 61 53 62 58 61 76 83 85 75 68 64 70 81 91 93 90 92 90 85 89 94 85 97 98 98 86
79 75 68 64 51 40 30 21 43 74 76 76 78 79 76 48 41 39 40 47 55 47 54 56 57 61 72 77 80 74 75 82 79 80 94 92 95 91 93 95 96 91 83 85 90 91 78
93 86 77 81 79 66 44 30 56 74 80 76 81 79 82 44 42 41 44 48 46 47 49 58 63 69 70 68 76 80 77 83 78 80 89 88 92 88 91 89 85 91 82 74 75 75 82
90 78 82 96 88 69 49 35 76 79 73 78 81 77 82 47 44 46 46 42 45 46 48 53 66 65 71 75 75 76 76 77 78 86 86 83 91 86 83 79 77 76 78 80 82 77 70
81 80 92 98 98 80 56 54 85 87 77 85 84 73 79 50 46 49 46 42 43 45 48 51 70 70 63 72 78 76 75 72 76 81 77 82 83 85 80 81 79 79 79 75 71 76 72
70 84 92 95 96 87 70 89 88 82 83 88 79 83 80 50 51 46 42 39 41 45 49 50 58 64 58 67 73 74 69 67 67 70 73 73 74 85 80 75 76 75 75 72 79 73 78
69 79 86 94 97 84 98 98 95 81 81 84 78 89 67 54 52 45 41 44 42 46 48 50 49 61 63 68 76 76 71 65 60 63 67 70 74 81 79 76 73 75 73 73 72 74 76
67 75 88 90 89 94 97 98 92 88 83 81 80 92 59 56 49 42 46 44 45 46 45 46 46 53 62 68 71 74 75 72 71 72 72 71 78 77 81 75 76 79 74 74 78 87 77
62 72 76 87 93 93 98 97 89 88 89 86 89 62 46 52 47 44 46 42 46 47 44 46 47 52 58 69 69 72 71 73 71 71 69 73 81 82 77 79 78 77 74 76 76 72 79
57 57 77 93 99 97 98 82 94 97 96 89 84 44 44 41 40 43 47 43 43 42 42 44 46 51 59 60 64 69 70 72 69 69 68 73 84 79 77 74 76 76 74 74 74 72 74
55 65 74 92 98 98 96 98 98 97 95 90 64 38 33 42 41 43 44 41 40 39 44 43 45 51 58 61 62 64 64 67 71 74 77 80 82 83 85 77 73 72 68 67 64 65 66
53 60 79 98 98 96 96 97 98 97 95 82 51 35 33 43 40 39 40 41 42 39 42 46 47 49 55 58 60 62 63 66 69 69 72 78 82 83 86 77 84 65 64 63 65 63 62
55 63 87 98 97 95 97 98 98 97 93 75 40 34 30 37 36 38 39 43 45 45 48 46 47 47 51 54 61 63 65 63 66 69 72 74 81 84 84 81 69 66 66 65 62 64 61
48 61 86 95 95 97 97 98 98 98 85 63 38 37 31 32 36 37 41 42 45 47 49 49 50 49 50 53 56 62 67 60 66 65 67 71 72 74 81 81 76 60 57 58 60 68 67
49 68 92 97 96 98 98 98 98 94 79 53 49 40 31 32 38 39 42 44 44 44 48 48 50 51 49 51 58 59 58 55 65 66 68 70 72 76 79 77 68 57 52 49 53 52 58
50 76 90 94 97 98 97 98 97 91 60 43 47 36 32 35 41 39 39 40 39 40 43 44 49 49 51 51 54 56 61 57 58 59 63 65 71 72 74 77 70 52 53 56 58 59 60
64 87 89 91 97 97 97 97 96 69 50 43 50 36 32 33 41 40 40 39 38 39 42 44 42 44 44 46 49 53 56 58 55 64 57 59 55 59 62 60 54 56 59 61 60 59 60

GFSGBSN_prec_cthk_087.txt.gz
RH
33 37 42 43 48 49 54 60 61 63 68 74 79 79 77 73 57 36 34 35 33 37 43 41 41 45 40 42 43 42 39 48 67 80 84 90 59 84 92 78 76 71 60 73 94 90 76
28 30 30 34 41 49 51 52 59 65 64 71 73 85 76 72 68 45 31 32 35 41 40 41 41 44 43 49 48 42 46 68 92 91 91 88 62 82 93 80 70 67 64 92 90 92 85
19 21 21 23 29 34 49 52 54 54 62 72 72 79 80 71 65 60 31 32 38 43 38 43 42 45 50 49 48 35 60 87 87 88 84 84 77 86 93 76 72 77 70 92 95 92 94
20 19 21 21 21 25 33 44 54 52 59 68 65 78 81 75 66 63 44 33 38 37 38 42 42 47 47 46 41 41 70 87 89 77 81 83 93 96 91 75 74 79 86 98 94 92 95
25 25 22 22 22 22 23 28 41 60 59 61 71 77 81 78 73 61 54 35 38 37 41 45 46 48 44 42 36 48 69 76 90 75 75 88 95 98 88 75 79 78 79 93 97 86 95
28 27 29 27 24 23 22 21 24 37 63 60 70 75 84 78 76 60 64 37 38 37 47 48 50 51 43 39 38 46 62 70 90 91 85 91 98 95 84 82 85 82 76 95 98 95 96
29 30 28 29 28 26 20 19 19 24 50 67 78 68 88 77 79 68 64 46 41 45 51 45 47 47 44 40 42 46 58 66 80 93 98 89 94 98 84 80 77 68 77 93 95 96 96
30 24 22 25 26 25 25 22 13 15 29 64 70 75 85 78 81 69 62 53 39 40 46 47 49 47 46 46 43 44 55 58 72 83 81 84 89 93 93 85 84 83 75 85 91 92 91
26 24 19 18 18 22 24 21 18 10 19 46 74 86 87 76 82 67 67 50 40 39 47 50 52 52 50 51 46 44 52 57 64 77 81 88 88 89 97 87 87 88 81 74 75 89 89
26 24 23 21 19 18 18 24 20 12 12 28 74 86 89 82 77 73 66 49 39 39 55 52 56 58 59 55 50 41 51 53 56 69 87 81 85 89 90 93 91 90 83 77 85 86 96
41 38 34 32 31 27 24 22 23 17 12 21 74 85 85 90 84 74 66 50 37 44 60 55 55 60 66 70 58 46 47 50 55 66 82 89 94 93 91 93 93 91 85 89 82 86 93
45 49 57 61 58 50 38 33 27 22 14 20 72 82 83 78 86 76 72 48 40 53 62 59 57 58 71 80 89 69 56 52 56 70 88 92 88 86 86 92 87 91 93 91 93 96 96
58 70 79 78 72 64 55 42 36 31 19 24 75 77 79 83 89 76 70 46 48 60 49 57 58 61 69 78 76 74 66 53 66 85 92 89 91 84 87 85 87 95 88 98 98 98 88
77 86 88 96 95 79 59 57 51 44 27 30 80 76 84 91 90 75 65 46 55 44 52 49 55 63 69 76 70 63 59 68 79 86 93 91 92 95 85 87 93 91 79 87 94 93 84
93 95 94 85 82 76 74 90 77 56 31 54 87 84 77 89 90 73 64 49 42 45 46 56 58 66 71 69 70 72 77 76 79 86 92 95 96 89 91 87 90 92 82 71 73 77 81
96 97 92 80 76 80 90 97 72 59 33 78 87 85 82 91 90 77 60 40 40 46 48 54 60 64 71 74 72 76 80 72 79 91 88 89 96 90 93 87 89 81 74 75 77 81 72
98 96 82 76 81 90 95 91 77 62 49 85 87 87 76 93 91 83 56 38 37 46 48 53 62 66 66 70 74 71 69 69 81 86 87 83 81 90 88 89 85 80 75 76 77 80 74
99 88 69 78 85 93 97 95 87 67 63 90 87 79 85 95 92 79 52 33 40 48 51 51 62 65 63 69 65 68 69 73 75 76 82 79 83 88 83 78 78 79 79 79 80 77 78
99 77 72 72 87 93 96 92 78 80 91 91 88 89 92 97 88 72 42 35 44 49 53 54 59 62 60 67 73 65 65 69 66 66 67 64 68 77 74 70 73 77 75 74 72 74 77
90 68 68 68 85 95 95 92 82 91 90 89 89 89 94 95 83 52 39 41 44 48 53 53 50 60 63 69 73 68 67 63 58 60 60 60 65 63 66 59 65 74 72 73 72 77 70
81 63 59 64 85 97 94 94 83 91 88 82 87 89 93 85 75 48 36 45 45 51 51 51 48 52 61 71 74 77 72 71 69 68 68 67 71 70 68 71 68 69 68 71 72 71 77
72 62 55 70 92 94 97 95 91 98 95 98 92 93 89 79 50 40 40 47 44 48 48 48 47 50 55 62 65 71 73 76 73 70 68 69 76 70 71 70 72 69 67 68 71 72 71
54 56 62 79 95 95 95 96 98 98 98 93 94 88 77 59 46 42 41 45 45 47 48 47 47 52 54 57 61 64 66 68 68 68 71 72 75 76 78 74 71 70 65 66 66 64 62
51 57 62 83 98 98 97 91 96 98 91 94 95 86 53 47 43 38 41 47 45 45 45 47 48 49 55 57 57 60 62 65 69 72 70 76 78 80 83 78 81 64 61 59 61 60 58
49 50 64 79 96 97 97 93 95 96 94 96 94 68 38 41 39 41 46 50 48 47 48 49 50 51 54 55 57 62 65 62 66 70 71 73 77 78 82 82 68 59 57 58 60 61 60
45 54 66 89 97 96 94 95 98 95 96 94 80 51 32 33 40 43 48 48 50 50 51 51 53 51 52 55 55 59 64 58 64 65 69 71 70 71 78 82 72 55 54 55 54 57 59
43 49 69 93 98 98 98 98 96 97 97 87 62 37 29 31 40 43 45 48 49 49 52 52 52 52 49 52 57 56 56 54 63 63 59 68 71 73 74 75 59 51 52 50 51 46 53
40 62 84 93 95 96 98 98 96 95 90 65 41 33 29 33 43 41 41 45 46 47 50 49 52 50 52 53 53 54 53 52 55 56 58 60 67 71 72 74 64 50 51 51 51 54 55
61 82 92 89 92 95 97 97 96 94 79 60 42 31 31 31 42 43 44 48 46 45 45 47 44 46 46 47 48 50 52 53 52 58 55 58 54 58 60 56 51 53 52 54 57 59 61

GFSGBSN_prec_cthk_090.txt.gz
RH
26 26 28 26 28 30 32 37 43 50 52 56 59 63 72 80 78 70 66 59 60 49 42 48 45 45 42 38 36 39 39 34 51 69 79 81 84 77 69 86 88 95 70 58 59 75 91
25 26 26 24 23 25 27 25 34 44 46 47 54 57 69 72 83 79 68 64 59 62 48 45 48 46 43 43 39 39 32 55 74 79 87 88 92 73 73 87 98 82 68 58 59 69 83
28 27 27 25 23 24 25 24 27 37 44 47 49 58 63 74 76 85 71 67 58 65 55 44 48 45 42 39 38 35 49 69 76 73 83 93 94 70 73 91 88 76 77 63 63 74 91
38 35 36 32 27 25 27 25 23 22 39 46 55 55 55 74 75 92 73 64 65 65 59 47 48 46 41 35 38 44 55 70 76 64 78 88 88 72 90 95 85 80 85 84 74 71 96
39 37 35 38 38 33 30 31 27 19 19 33 54 55 60 66 72 93 84 68 70 64 59 53 50 48 41 35 39 42 54 66 77 65 73 84 82 80 93 95 94 83 85 89 79 82 97
40 39 37 37 35 36 36 31 30 28 17 18 38 61 56 65 71 87 87 76 68 61 58 56 52 48 39 36 41 41 51 61 75 71 70 88 95 96 98 91 93 82 83 83 79 90 96
45 45 43 39 38 35 35 34 30 27 21 16 23 54 55 66 69 78 84 84 73 65 61 52 44 44 40 41 43 45 48 54 68 75 90 94 98 99 93 82 79 77 74 83 94 93 96
44 47 45 43 41 38 32 28 27 24 21 17 16 34 63 60 77 85 87 86 73 63 61 51 47 48 42 44 47 44 44 51 62 76 82 90 98 94 89 86 79 75 78 85 91 96 96
45 46 44 40 38 35 34 33 30 30 24 16 13 21 52 63 78 82 87 83 75 65 62 52 51 50 51 48 47 48 45 52 60 75 79 85 87 91 93 90 86 81 71 72 83 90 90
46 45 43 38 37 39 40 41 39 34 36 21 15 15 46 62 79 85 91 85 79 67 70 57 56 57 59 54 52 49 45 46 53 74 80 82 82 92 97 88 93 84 77 72 77 80 88
59 54 49 49 50 51 57 63 61 52 43 36 19 15 41 58 78 89 96 88 77 76 67 56 56 60 66 69 60 48 45 48 53 66 83 90 82 90 97 92 92 91 81 81 75 85 85
58 54 51 55 70 78 82 81 81 68 54 45 30 19 28 55 77 95 96 91 79 80 61 59 55 61 71 78 83 70 49 50 56 73 89 92 85 89 94 93 92 90 86 87 82 84 92
52 47 54 77 90 90 89 78 82 73 55 43 41 27 28 51 83 89 93 88 89 78 55 58 58 62 73 73 69 72 58 52 68 91 96 88 90 87 90 93 96 89 98 97 97 98 91
50 54 79 91 96 97 88 84 76 75 57 48 46 32 28 55 86 82 98 94 87 60 59 48 55 65 74 67 56 60 57 58 80 95 87 89 86 93 87 87 86 96 91 96 94 92 89
56 78 91 95 98 94 84 81 86 82 82 63 53 38 46 67 85 96 97 97 71 61 47 51 58 64 72 68 63 61 69 78 83 90 92 92 93 88 88 85 89 87 88 76 81 78 87
66 93 91 97 96 85 78 83 91 94 90 77 64 65 64 87 94 98 97 90 70 47 48 48 56 63 74 63 66 70 77 77 83 91 89 86 92 98 88 92 87 81 72 78 80 84 72
83 95 89 97 85 68 69 83 93 98 93 76 72 63 81 89 90 93 95 92 68 49 46 49 59 67 70 63 65 69 73 80 88 88 86 82 85 92 83 93 86 80 77 76 74 78 72
95 95 90 94 75 67 75 80 91 94 93 77 74 72 85 86 86 91 97 88 55 48 47 49 59 67 69 63 66 74 73 80 85 85 84 77 78 88 85 82 82 81 74 69 72 72 77
98 97 96 89 65 69 78 90 95 96 89 69 68 84 88 93 89 93 95 80 56 49 49 50 61 67 65 62 65 65 68 75 75 77 79 71 76 82 76 69 67 70 71 72 68 69 75
99 97 94 75 60 67 70 94 89 92 71 67 81 88 88 89 90 95 95 68 54 49 49 50 59 64 68 66 64 66 69 73 71 69 68 62 64 61 68 58 65 71 70 68 67 75 69
82 59 72 60 58 71 91 98 90 62 53 67 82 86 82 82 94 96 81 58 49 49 46 51 55 63 67 74 66 66 67 67 63 60 60 63 71 72 73 71 67 62 64 70 71 65 70
66 64 60 54 69 87 93 98 76 53 55 80 82 83 91 97 93 92 69 56 45 46 45 50 49 58 66 72 72 68 66 65 59 62 65 68 76 69 70 69 68 65 64 65 66 66 65
56 49 57 65 88 86 98 91 86 60 78 89 92 96 90 96 92 71 55 52 45 45 48 48 48 52 64 68 70 70 69 69 68 66 67 67 70 71 72 69 66 66 63 63 62 61 59
49 60 66 76 93 97 91 92 85 76 88 94 95 94 92 94 88 48 44 49 46 44 47 50 51 56 62 64 64 63 64 68 69 70 67 71 73 75 76 67 69 60 60 58 58 57 58
52 57 63 90 99 91 92 87 81 79 80 97 96 92 87 72 51 46 44 49 47 48 49 49 52 56 58 60 63 65 66 63 65 69 70 69 72 74 78 76 61 57 56 56 57 56 59
48 51 63 84 93 91 86 76 77 80 94 96 89 85 80 57 46 45 46 45 48 49 50 54 55 56 57 58 56 58 62 58 65 66 69 68 68 68 69 77 66 56 54 53 50 56 61
36 40 68 81 84 92 87 82 89 91 90 89 85 77 65 42 42 45 44 46 46 46 50 54 54 55 52 53 56 55 53 52 58 59 58 67 65 69 63 63 60 52 53 49 54 51 57
28 58 70 80 89 93 96 97 94 91 88 88 84 68 42 37 42 42 43 46 45 44 46 50 52 52 52 54 52 52 50 51 52 52 53 54 60 64 63 64 59 45 44 47 49 53 53
52 72 73 82 86 88 93 95 93 91 89 85 70 50 35 33 41 44 46 48 47 45 46 47 45 47 47 49 48 50 50 49 50 55 50 54 49 53 53 48 44 44 44 45 48 50 52

GFSGBSN_prec_cthk_093.txt.gz
RH
29 30 30 30 29 28 28 27 25 23 23 35 47 45 49 56 58 63 65 70 72 71 61 59 68 67 60 52 39 36 35 32 37 55 61 67 74 82 78 70 68 71 60 63 69 68 66
36 36 35 34 32 32 31 29 28 26 24 27 38 47 47 51 60 64 70 69 70 72 68 72 64 71 65 52 41 34 34 38 55 62 64 67 74 88 87 71 69 78 77 75 83 68 63
45 43 40 40 40 39 36 33 31 30 27 20 29 40 50 58 55 61 66 60 67 82 76 67 60 73 63 48 37 35 38 45 59 62 61 69 84 99 90 71 79 84 92 89 86 69 66
50 51 50 49 48 46 43 40 37 33 31 25 19 26 45 56 50 67 60 65 68 75 78 68 67 74 60 46 35 37 36 48 63 60 62 72 86 95 84 79 93 96 98 96 79 66 73
54 53 52 50 50 49 48 48 47 39 33 29 24 22 29 46 68 67 66 68 62 73 82 70 76 76 59 41 33 36 37 49 64 65 68 79 84 86 81 89 98 95 95 89 90 66 72
56 55 53 51 52 52 52 52 51 47 40 33 26 22 23 43 60 69 67 69 70 75 81 75 76 78 54 40 35 37 41 53 62 72 73 85 88 86 89 97 96 87 86 88 85 75 75
60 57 56 56 58 61 62 60 54 48 43 35 25 20 15 34 56 70 68 71 72 81 83 73 76 72 57 43 38 40 43 50 60 74 83 86 96 90 93 91 95 84 78 83 89 84 81
63 63 63 62 62 62 57 56 55 48 42 36 26 22 15 32 43 64 67 71 79 86 85 77 74 72 56 43 40 41 44 50 59 73 80 84 88 91 93 88 90 85 77 90 94 89 81
69 66 66 65 60 57 53 49 49 47 46 38 31 24 16 36 45 53 66 69 79 85 88 79 73 68 58 51 43 47 46 49 60 72 84 80 80 93 93 86 87 86 78 83 92 85 81
63 68 70 66 59 57 47 56 63 65 66 56 44 32 27 31 55 51 64 70 81 89 91 79 76 70 60 56 50 49 49 48 51 75 79 84 77 93 94 91 95 88 79 75 78 79 86
72 72 67 63 58 49 64 78 95 93 86 79 69 49 37 35 49 55 56 74 88 90 95 80 73 63 63 61 62 51 50 52 55 75 82 84 81 93 90 97 92 88 81 77 76 77 78
76 71 62 58 55 75 88 93 88 95 83 79 61 56 47 41 46 53 53 78 86 97 90 82 69 65 67 71 73 68 49 51 58 79 92 83 81 93 87 95 94 94 89 83 78 73 84
75 67 61 59 79 93 92 98 92 95 82 81 67 57 53 47 41 47 58 82 96 96 77 79 67 64 66 54 65 66 50 54 75 93 94 80 83 92 94 98 92 93 92 89 85 80 87
71 64 56 72 96 98 97 97 90 82 81 86 77 63 53 40 37 47 60 89 97 81 79 67 60 66 67 52 54 56 51 73 87 92 86 82 83 92 94 94 96 98 89 80 81 81 88
66 54 63 95 97 97 96 94 73 75 81 91 80 66 50 36 45 49 67 93 89 83 68 64 60 66 60 60 53 57 69 84 89 92 87 90 89 90 91 91 93 84 86 72 71 73 79
52 60 91 98 98 95 89 76 74 86 95 95 85 68 50 53 55 60 79 87 95 78 66 57 56 63 62 64 59 73 80 82 87 84 89 85 92 95 92 90 87 83 76 78 81 81 79
68 88 96 97 95 97 88 74 78 87 94 97 82 69 75 73 68 75 83 97 93 76 65 54 62 66 58 63 62 76 84 85 90 89 91 87 84 93 84 89 86 79 76 73 72 74 69
87 96 96 96 96 91 80 75 79 89 90 90 84 79 77 78 72 79 96 97 91 75 63 57 66 64 60 58 66 81 85 89 89 83 85 80 84 87 91 80 79 79 73 64 69 70 69
76 76 76 79 90 86 71 77 82 92 90 88 82 71 68 74 77 89 96 96 90 74 58 59 67 62 59 60 68 75 80 83 84 83 80 74 82 85 77 72 71 70 67 64 64 65 70
71 78 66 67 75 65 66 84 93 95 84 80 74 68 75 78 85 91 98 97 83 62 60 63 67 64 58 63 63 70 76 78 77 79 74 66 68 61 63 61 67 70 68 64 64 69 69
57 54 53 56 60 65 88 99 99 87 77 68 66 66 78 80 91 97 96 94 63 59 62 62 64 65 61 63 66 70 74 70 70 68 63 62 70 74 73 70 66 65 65 67 65 58 60
51 60 66 75 83 85 90 94 80 64 52 59 64 71 83 96 95 97 98 81 53 57 62 59 60 65 65 62 58 67 68 66 64 59 64 64 72 64 65 66 66 62 63 64 62 63 61
49 58 73 85 85 80 89 84 61 52 47 55 67 77 84 94 98 98 87 71 50 54 60 59 54 62 68 67 61 60 61 62 60 60 65 62 66 67 70 65 61 61 61 63 65 65 62
41 52 69 94 98 85 77 74 59 56 68 75 78 81 89 96 95 82 59 56 48 53 57 59 53 55 64 67 68 64 63 64 64 66 64 66 67 68 70 62 63 56 57 57 58 60 62
35 42 59 71 76 73 68 58 59 65 74 79 86 91 91 87 84 66 50 49 52 54 57 55 52 55 58 61 64 67 67 65 66 70 67 64 66 69 72 71 56 54 54 53 54 57 58
28 37 68 68 66 66 60 55 53 68 79 88 92 86 84 61 55 46 46 53 54 54 55 53 54 57 57 58 57 58 62 57 62 62 61 60 59 59 62 69 55 49 49 49 47 52 55
22 57 64 63 59 58 58 60 65 70 81 78 77 74 71 53 47 45 49 54 54 52 52 52 54 56 57 56 57 56 54 51 58 58 61 59 57 58 57 59 51 46 45 43 46 44 49
34 60 63 64 62 60 62 64 69 72 78 80 69 61 52 42 45 46 48 51 50 49 46 49 54 54 57 58 55 53 50 51 50 49 52 50 58 61 59 58 52 40 41 41 39 42 43
51 58 64 69 69 68 69 71 72 74 75 76 73 64 51 37 44 49 49 49 48 45 45 48 47 49 51 51 50 51 49 50 50 53 48 51 45 48 47 43 38 39 39 39 40 41 44

GFSGBSN_prec_cthk_096.txt.gz
RH
42 50 51 50 50 48 44 40 37 35 35 33 32 31 36 42 48 55 53 62 57 61 53 53 63 77 60 57 57 52 42 37 34 46 53 57 59 63 62 58 60 56 56 56 50 48 67
51 54 51 54 53 53 51 46 42 38 35 34 34 32 34 42 50 54 59 59 65 56 56 54 73 63 67 69 56 50 43 39 40 52 56 56 60 66 70 77 81 71 67 60 60 55 62
57 60 59 57 56 59 57 54 51 44 41 39 38 33 25 32 42 57 65 69 70 60 62 58 59 65 69 66 57 48 44 37 47 59 57 59 67 80 80 91 84 71 67 78 70 61 72
62 61 62 58 61 63 61 58 61 57 52 46 40 35 28 26 39 55 63 69 71 71 59 61 56 59 70 68 56 47 41 39 51 58 58 59 69 77 85 78 71 75 91 85 70 67 74
62 64 64 66 66 63 63 61 63 62 62 57 44 37 30 27 41 59 63 81 74 68 69 67 62 76 79 67 53 43 37 46 56 62 67 67 68 71 76 73 72 82 97 97 90 78 81
70 68 75 73 68 68 71 75 74 75 73 70 50 40 32 25 37 53 68 72 70 74 75 67 67 80 79 69 47 40 43 47 58 67 70 75 79 80 77 81 82 93 83 79 83 82 80
76 74 76 75 81 85 84 82 79 77 72 69 61 46 36 28 36 46 54 68 72 79 70 73 72 75 76 63 50 41 49 49 58 67 74 76 80 84 85 80 84 95 90 84 94 84 74
83 81 78 79 81 84 83 80 73 64 56 49 50 41 30 26 34 43 44 66 74 75 74 68 76 83 76 64 45 43 52 54 55 65 72 77 77 80 94 85 85 92 85 87 93 93 72
80 81 84 85 83 86 81 74 60 49 58 70 72 65 43 40 53 70 59 68 76 68 74 71 81 79 78 66 51 50 57 51 51 68 72 71 70 90 86 83 90 84 76 85 92 91 79
87 82 85 89 88 79 66 59 64 82 85 92 91 88 70 55 52 61 64 61 63 68 73 76 84 78 74 64 55 54 55 46 49 71 72 72 77 86 85 85 90 78 71 79 92 86 81
95 87 82 80 80 71 62 80 95 94 93 85 88 86 78 69 55 49 70 56 56 70 83 82 85 75 66 58 54 54 50 50 56 74 78 71 81 91 86 93 96 80 72 76 79 79 74
94 84 76 77 73 76 84 93 98 93 92 88 92 81 63 59 62 59 56 66 58 79 88 94 81 72 67 66 74 63 48 51 59 78 82 78 84 93 93 93 97 86 74 80 81 73 80
96 77 74 81 86 92 96 97 97 89 83 90 94 85 68 58 72 68 54 66 71 76 79 90 74 68 62 65 69 55 45 59 77 93 85 76 91 90 93 98 97 90 77 82 77 77 89
81 67 82 94 92 95 98 98 92 84 74 82 89 83 73 63 61 68 56 71 76 79 87 80 71 70 58 58 59 53 55 69 82 87 76 78 87 96 88 97 96 94 82 74 66 69 83
49 71 89 92 90 92 98 98 87 66 80 86 95 94 78 66 59 60 61 66 80 92 80 77 69 70 66 53 56 62 70 82 80 87 84 87 98 94 96 96 97 90 78 61 63 64 71
51 69 86 87 93 95 93 88 80 75 85 92 92 84 73 66 50 60 64 61 93 87 80 66 67 64 56 53 62 70 75 76 86 84 88 88 97 94 94 89 89 84 69 67 62 66 72
55 67 74 70 84 93 90 86 88 86 91 88 88 76 65 68 59 67 68 77 97 85 74 66 66 64 58 63 69 74 75 81 90 90 90 89 89 95 91 93 91 80 73 66 59 58 54
54 62 54 58 70 80 82 86 86 86 84 83 88 88 80 78 73 69 74 92 97 78 70 72 72 62 56 63 71 76 75 88 92 88 85 84 86 91 87 86 83 78 71 60 60 60 61
51 64 61 58 58 65 72 81 78 88 87 78 87 81 79 79 77 73 94 97 93 70 69 75 77 63 53 66 77 81 82 82 79 78 76 73 78 81 77 73 72 71 70 62 57 58 66
50 61 80 79 76 83 92 94 95 95 79 69 70 74 77 78 80 88 98 97 86 63 69 76 73 62 57 65 71 77 81 80 78 77 74 63 61 60 63 66 68 67 66 62 59 63 53
48 60 72 82 82 83 90 96 96 84 71 61 65 70 72 76 90 96 97 97 60 64 68 73 71 62 57 62 68 73 72 74 70 65 63 61 70 65 60 61 62 59 59 57 61 57 58
44 53 55 83 87 82 87 77 64 63 60 49 53 65 89 81 96 97 98 75 52 60 65 70 71 63 59 57 60 65 63 62 58 56 60 59 69 66 64 56 54 59 59 58 56 55 56
38 40 47 69 78 72 61 57 38 38 43 43 56 75 88 97 98 97 87 65 50 60 61 65 68 64 59 59 58 60 59 55 56 52 57 55 56 57 60 56 52 48 51 54 55 55 54
23 33 59 67 61 57 50 52 48 48 57 59 68 79 85 94 88 69 66 61 59 60 59 62 62 64 67 64 58 57 57 57 56 57 58 55 55 59 60 54 56 51 51 51 51 51 51
19 40 55 53 51 50 42 42 50 58 67 70 74 78 86 84 69 62 54 56 54 58 62 61 57 61 65 67 63 58 57 56 58 60 59 56 54 57 59 56 51 49 48 48 46 47 49
23 49 52 47 45 40 37 44 52 60 73 76 78 79 68 48 42 46 47 50 53 57 60 58 56 55 58 60 59 60 56 56 57 60 57 54 50 49 55 54 48 44 45 46 43 42 44
33 51 52 51 46 40 38 46 53 62 68 71 71 69 55 39 38 41 41 48 51 54 57 57 56 56 52 53 53 49 46 48 51 53 53 51 50 51 48 49 41 40 41 40 40 37 40
38 51 55 54 53 46 48 49 56 62 63 65 60 52 44 40 37 38 41 49 49 50 50 51 54 50 50 55 50 47 43 45 45 45 46 45 47 47 47 48 44 36 39 37 33 37 38
40 48 52 55 56 54 54 53 57 63 68 66 63 56 45 39 38 38 42 43 47 45 47 48 46 46 48 49 46 46 43 44 43 40 44 46 40 41 39 35 30 34 34 33 34 36 38

GFSGBSN_prec_cthk_099.txt.gz
RH
51 54 58 62 60 61 60 61 59 53 47 42 44 38 37 37 39 52 53 63 63 59 63 55 48 53 60 54 52 53 48 48 44 42 53 55 53 55 56 53 50 50 42 44 39 39 43
61 66 68 69 66 63 70 69 68 63 64 55 47 43 40 32 32 50 56 68 69 73 62 63 56 64 61 53 50 45 48 46 46 49 53 56 52 54 61 60 62 60 63 55 52 47 50
67 70 70 72 72 73 74 74 73 70 70 67 60 51 40 34 30 34 52 76 83 83 79 75 73 66 63 56 53 54 50 49 46 48 54 56 56 64 68 66 66 71 63 58 51 54 56
73 74 75 79 85 83 79 77 77 82 83 78 76 63 47 40 33 37 45 68 78 76 78 72 80 73 64 59 56 58 57 49 43 47 53 60 58 67 73 66 66 67 63 66 64 62 65
80 82 83 76 83 85 89 88 86 87 86 89 86 77 61 48 37 49 70 64 86 70 87 88 81 76 70 61 61 61 46 48 50 51 59 66 67 70 75 76 72 64 70 74 86 75 69
87 88 86 84 83 85 89 92 96 94 94 93 87 81 69 48 39 44 62 89 93 82 83 86 77 74 79 74 66 49 46 48 47 59 64 73 80 80 74 80 73 73 78 74 95 80 69
95 93 91 86 84 91 95 96 93 93 94 90 90 84 81 58 45 50 60 65 95 85 87 75 77 77 71 68 60 56 49 49 49 60 66 77 81 78 76 75 73 73 70 78 95 95 72
96 94 93 89 86 87 90 94 93 90 88 81 67 76 75 57 37 38 59 73 73 65 73 75 78 79 80 74 64 53 48 52 52 60 72 81 78 70 81 88 73 70 71 78 84 87 77
96 95 92 94 88 82 87 96 98 95 83 83 88 95 96 79 66 84 84 78 60 72 77 73 74 81 78 74 65 54 49 53 49 57 72 79 71 78 83 77 76 74 78 84 93 90 83
98 98 98 83 59 72 87 95 92 90 95 98 97 98 95 80 69 75 92 96 83 76 73 71 76 81 77 76 64 50 49 49 45 60 73 68 71 79 81 83 81 84 75 85 93 98 95
97 99 68 54 74 89 94 94 93 94 98 98 94 96 86 83 82 67 70 83 62 66 78 84 82 84 80 64 50 48 51 49 60 72 73 73 74 84 87 97 92 82 73 89 82 83 95
96 78 47 66 85 88 94 96 96 98 98 87 89 93 79 70 71 65 68 67 60 80 86 88 87 78 62 57 57 53 45 48 58 73 78 75 79 84 90 92 94 90 81 82 84 86 97
80 43 61 67 82 83 90 94 96 91 88 85 85 94 75 65 70 68 59 73 75 83 82 88 80 66 60 61 71 57 48 63 73 93 79 76 84 85 90 96 94 94 81 95 95 91 96
43 44 62 52 66 86 85 89 90 80 72 75 85 86 83 72 67 70 68 82 87 67 87 87 70 57 59 62 66 57 63 77 76 79 74 83 91 89 93 93 94 94 95 97 77 88 94
38 55 66 53 62 66 70 82 82 70 75 79 87 84 79 64 53 64 66 81 92 93 85 80 62 58 57 60 65 64 73 77 75 75 86 80 94 89 97 95 92 81 81 70 71 69 71
43 66 76 66 68 75 83 85 84 83 86 87 90 89 79 63 54 60 65 88 96 92 84 69 69 63 58 62 67 78 75 72 77 78 84 95 97 94 96 96 87 86 69 75 69 73 76
44 64 78 84 71 69 82 77 81 80 86 84 81 70 64 66 51 60 72 99 98 89 76 71 65 59 56 62 76 72 71 74 81 88 91 93 98 95 94 88 87 80 68 58 56 60 61
45 58 69 88 82 87 86 80 83 84 76 75 75 70 58 57 57 66 91 96 97 79 72 68 68 66 70 76 74 73 77 80 83 89 95 91 87 97 85 78 75 73 66 57 56 54 56
39 50 57 84 80 90 91 88 76 66 71 76 76 74 67 64 68 85 97 97 84 75 79 75 71 67 72 76 77 77 82 82 81 83 83 79 80 90 78 72 72 66 60 53 53 58 62
32 38 48 67 76 78 79 82 71 54 55 57 64 69 71 82 86 89 96 88 71 72 80 76 66 63 70 73 72 75 74 78 77 75 68 64 69 76 79 79 75 69 57 50 55 59 48
30 26 38 57 63 60 59 63 61 48 41 45 55 70 80 88 88 91 83 79 61 71 78 72 62 63 69 70 71 73 71 72 68 60 58 57 66 66 58 58 61 64 61 53 53 49 55
21 23 44 48 47 47 46 47 47 46 50 65 75 76 83 86 90 91 76 64 59 68 74 70 64 59 60 66 71 67 63 57 56 55 55 57 65 60 54 50 50 53 55 54 52 48 48
19 33 46 42 42 37 34 30 38 50 53 66 78 86 87 87 81 81 64 53 58 62 68 63 63 57 58 61 61 60 56 53 51 53 47 47 53 60 57 49 49 50 49 48 48 49 47
20 42 46 43 39 37 36 35 42 48 59 70 78 83 75 65 61 58 59 49 53 59 62 61 60 58 57 58 57 55 54 54 52 49 51 51 49 51 56 50 57 47 45 45 45 45 45
26 42 44 41 38 39 39 48 52 53 57 68 70 62 52 50 48 52 51 48 51 52 58 60 60 60 58 53 53 52 52 51 50 52 53 51 50 52 57 48 43 42 43 43 43 42 42
34 40 38 41 41 40 42 45 56 56 62 64 67 56 43 38 39 43 44 45 45 50 53 56 54 60 60 57 54 55 51 53 51 52 50 48 47 47 49 51 45 39 38 39 37 37 38
36 43 41 35 37 39 42 45 51 57 59 59 58 45 34 31 35 39 39 39 44 46 49 49 51 54 53 53 53 50 47 45 47 47 47 48 46 48 45 47 36 33 35 34 36 39 35
32 42 45 38 39 40 42 46 49 52 51 49 43 35 32 30 32 35 37 40 42 45 47 47 51 50 49 53 49 44 38 39 39 39 41 40 43 44 43 45 42 31 34 32 32 34 34
27 39 43 46 41 44 46 47 50 49 51 50 46 41 32 32 30 33 36 38 40 43 47 47 50 49 49 50 43 42 40 37 37 36 37 40 36 41 37 36 32 29 32 31 31 31 33

GFSGBSN_prec_cthk_102.txt.gz
RH
63 66 68 70 72 77 77 80 83 83 81 80 78 74 67 56 50 41 45 63 57 83 71 76 62 60 61 61 53 46 41 43 38 36 47 56 56 52 53 47 48 46 40 39 40 38 35
69 73 76 77 76 84 85 87 88 86 83 88 87 81 79 65 54 42 39 59 67 80 79 79 69 63 69 68 59 53 45 44 41 44 50 57 54 52 48 47 47 44 44 45 45 45 39
77 80 84 87 88 83 86 84 85 86 84 86 92 86 83 75 55 42 37 45 68 90 86 77 80 98 88 77 64 57 48 42 43 50 55 57 54 53 51 49 52 53 49 51 49 47 45
88 92 92 91 88 86 83 82 83 83 89 90 93 91 85 82 69 47 40 41 70 85 86 97 84 90 91 80 67 58 52 50 48 54 53 55 54 53 54 55 53 54 58 63 51 51 61
94 92 91 85 84 82 79 77 76 78 82 89 95 96 90 81 70 55 71 76 72 84 82 87 81 91 86 84 70 66 57 53 53 52 57 60 58 56 59 65 64 66 71 68 62 65 73
93 92 90 88 85 92 83 78 76 82 87 92 94 98 95 82 75 53 63 95 98 92 94 88 95 98 91 78 73 66 52 49 53 61 65 63 60 64 70 73 74 79 78 67 63 69 92
96 96 96 96 92 98 72 63 70 84 98 97 94 97 92 83 78 54 55 74 93 98 98 94 90 80 78 76 70 62 52 53 56 57 62 64 64 69 63 63 66 69 73 71 60 75 86
97 98 98 96 94 76 67 78 85 90 96 96 90 87 86 82 81 60 45 82 75 86 96 97 97 89 80 76 76 63 51 55 59 60 60 69 66 66 65 72 80 81 75 71 69 84 78
99 96 93 75 64 54 72 82 91 93 87 86 89 92 94 94 83 81 65 62 92 83 83 82 85 84 80 80 73 60 51 57 57 54 51 70 67 62 77 83 82 72 76 77 90 91 84
98 92 58 56 52 56 73 80 86 93 85 82 86 95 98 91 76 80 98 96 84 73 95 80 76 76 83 83 75 62 52 58 48 45 54 66 62 71 79 85 80 81 78 81 96 98 98
89 51 55 69 50 58 62 69 75 80 79 85 83 95 94 82 88 82 90 98 96 90 88 76 80 91 84 78 64 53 51 52 48 62 66 67 74 83 84 86 85 80 83 87 90 96 98
63 41 70 74 57 60 61 67 70 72 71 75 78 83 77 80 72 80 87 85 79 75 96 96 89 86 70 63 50 53 47 43 54 68 66 69 73 82 86 86 83 83 84 80 83 94 98
39 42 69 81 71 78 83 83 70 60 60 69 79 82 65 73 81 66 64 66 80 97 94 90 84 69 69 60 66 52 42 55 69 85 78 72 78 83 83 88 89 89 96 97 98 98 98
33 46 67 84 70 83 84 74 67 66 65 66 76 71 58 63 69 60 61 87 98 95 98 85 72 62 74 61 64 56 58 66 74 78 92 90 94 85 88 93 93 96 95 98 97 97 98
33 43 63 81 76 79 79 75 77 71 74 75 67 65 61 54 63 71 93 96 94 98 94 76 62 57 62 64 60 61 69 82 81 82 97 90 96 90 92 88 90 93 92 82 98 89 97
31 41 56 67 67 70 60 60 62 67 71 66 65 67 63 51 55 71 91 94 98 93 87 77 68 56 59 59 64 70 71 79 85 80 85 94 95 94 92 87 83 83 74 84 89 96 97
29 37 49 63 57 59 54 49 50 50 53 54 55 52 57 49 51 74 90 94 96 88 77 75 73 64 56 60 75 90 77 81 86 91 94 95 99 98 88 84 80 74 68 71 73 74 80
26 35 46 60 57 58 50 42 38 39 40 42 45 49 52 50 68 84 93 92 91 76 68 66 72 67 65 70 74 77 83 86 89 94 97 94 96 96 82 74 73 70 61 60 78 71 72
28 34 43 55 58 58 55 49 45 42 43 47 48 51 57 70 84 90 93 86 79 70 74 77 72 72 74 81 81 80 84 86 85 85 84 82 82 92 83 74 69 65 58 54 63 68 66
26 30 45 54 56 60 61 63 64 57 56 65 76 78 79 84 85 76 73 70 73 69 74 76 66 66 75 75 75 79 80 82 77 73 74 77 77 86 85 77 71 67 57 55 59 66 61
18 36 46 47 50 56 61 66 63 63 62 65 74 74 78 81 74 68 65 63 63 65 69 68 63 70 71 71 73 76 71 68 61 61 59 62 73 74 65 62 62 60 56 53 55 54 64
18 39 42 43 43 46 51 58 61 59 58 55 56 61 65 71 65 60 59 56 58 61 65 63 67 63 68 71 73 66 61 61 58 53 54 56 63 59 56 56 58 59 59 56 55 53 53
20 39 39 40 40 38 37 44 48 52 53 59 53 51 53 58 63 53 49 50 53 57 59 59 59 62 63 63 59 55 52 51 50 49 48 53 58 60 56 47 48 55 51 52 53 54 52
22 36 39 36 34 36 30 31 36 42 46 47 48 45 47 54 53 49 44 46 49 52 55 56 55 55 56 53 53 51 48 47 44 46 46 48 48 54 59 51 61 48 43 44 46 48 48
26 32 37 34 31 35 30 30 37 43 48 46 42 42 43 43 45 44 39 42 43 47 50 51 52 51 51 51 50 49 49 49 47 44 45 45 48 51 59 54 40 42 41 42 44 43 42
24 35 32 34 33 36 39 37 39 45 49 46 37 34 36 40 38 41 39 37 39 42 46 48 46 48 47 47 46 49 54 47 45 45 42 41 41 46 51 53 46 40 37 36 36 40 38
17 35 33 35 36 36 40 44 48 50 50 46 40 35 31 31 33 38 39 36 37 39 43 42 44 48 47 50 51 51 49 42 47 43 42 44 44 47 48 49 40 34 32 32 37 40 36
9 34 37 34 34 35 37 42 48 50 50 44 36 29 29 29 31 34 35 37 36 39 40 39 42 42 43 47 46 44 39 39 37 35 36 39 43 47 43 46 45 30 30 31 33 32 31
8 32 38 43 38 39 43 45 44 44 48 47 43 33 30 31 28 30 34 36 38 39 41 39 41 43 44 47 44 39 41 37 34 37 37 37 36 41 38 38 32 30 29 29 32 31 31

GFSGBSN_prec_cthk_105.txt.gz
RH
71 79 86 92 96 95 96 92 93 92 91 91 89 92 94 92 92 76 63 52 57 76 86 84 86 85 82 65 60 55 48 48 44 37 39 41 42 46 46 46 45 44 38 38 38 37 36
84 91 95 94 95 92 89 86 82 80 82 80 88 90 88 91 89 84 62 52 57 82 80 87 97 74 75 67 59 62 58 52 45 39 42 44 46 51 48 46 46 40 41 38 37 39 40
87 87 88 90 91 91 92 90 84 80 73 72 77 84 77 83 86 82 69 52 51 69 88 75 96 83 82 85 74 74 67 57 49 42 49 52 53 52 49 49 47 47 46 40 39 38 40
87 86 84 87 94 96 93 89 92 82 84 85 85 82 81 80 81 75 67 52 49 77 85 91 98 96 85 93 89 82 70 60 48 49 53 54 51 51 51 49 49 48 47 49 40 45 46
81 81 91 99 97 94 89 88 71 64 71 82 84 96 93 90 90 76 60 91 62 86 91 97 98 97 92 92 87 81 72 63 60 56 59 58 56 56 55 54 54 53 58 56 49 48 51
77 90 96 98 88 76 85 57 61 69 82 88 90 98 98 97 96 78 60 92 91 85 99 95 90 94 91 93 86 83 72 69 66 65 67 61 62 59 59 60 59 57 60 55 57 53 63
86 90 90 62 58 67 59 55 61 74 92 93 98 98 97 96 87 77 70 86 99 97 95 96 94 86 92 92 78 72 66 66 63 66 62 65 65 61 58 60 58 59 60 61 56 61 76
83 78 50 50 71 76 59 56 63 79 87 88 88 90 91 88 80 72 71 70 91 97 98 97 98 91 89 87 79 70 61 57 58 59 60 69 66 59 61 65 68 66 71 68 61 71 84
71 51 49 63 84 72 66 65 64 73 82 86 80 84 85 85 78 80 73 68 98 92 94 99 98 98 93 84 80 72 59 63 68 67 60 61 55 58 65 74 77 72 70 70 77 75 82
62 37 51 66 81 72 84 73 63 64 71 79 75 79 80 78 75 83 70 74 90 87 96 94 90 93 86 81 82 68 56 66 62 53 50 53 60 63 70 75 76 76 71 78 85 90 92
38 40 48 63 63 80 80 69 57 60 63 65 69 78 78 76 79 91 89 79 84 77 95 94 87 83 84 88 80 74 60 60 52 51 59 61 72 73 77 74 78 74 77 80 86 94 98
29 41 51 60 55 61 64 56 49 56 65 67 62 68 71 65 73 81 91 89 80 97 93 90 86 94 90 75 63 53 51 46 49 64 65 63 63 69 74 74 78 79 83 86 88 94 98
28 40 51 57 52 54 55 60 57 55 67 70 60 63 69 71 75 75 84 86 94 97 97 95 92 75 67 63 62 46 45 59 69 78 71 68 69 72 75 81 85 90 95 96 98 98 97
29 40 49 52 52 49 50 53 53 54 55 58 52 52 56 63 55 58 75 94 93 96 94 84 72 75 73 69 64 48 58 69 75 78 87 84 81 80 84 86 92 92 98 98 97 97 98
30 40 46 55 51 46 47 49 48 46 48 50 50 48 44 46 70 83 85 92 97 98 88 69 70 68 66 61 57 66 71 77 80 80 91 87 89 81 84 86 89 95 99 97 98 98 97
29 41 46 53 53 50 45 49 44 41 43 46 44 45 46 56 75 77 82 89 95 89 76 76 72 60 65 68 68 76 74 79 86 86 88 90 94 89 86 87 85 92 93 97 96 97 96
26 41 44 52 51 50 49 46 48 44 38 41 43 46 45 53 67 75 85 93 94 84 73 75 69 63 64 76 84 88 88 89 90 96 95 96 93 89 87 84 78 86 85 84 79 84 90
21 32 45 50 51 50 51 48 47 49 50 48 50 55 51 67 72 81 88 89 75 68 68 69 66 67 71 73 83 91 94 93 93 92 97 92 90 89 77 68 71 73 78 73 84 76 82
19 35 44 49 51 53 45 47 49 46 51 52 50 59 64 67 78 79 77 66 66 65 67 69 68 68 70 78 84 86 88 84 86 89 84 82 83 84 73 64 63 69 65 66 70 77 79
18 38 41 45 48 49 46 44 43 43 48 53 58 60 62 63 63 61 63 65 67 68 64 65 66 68 69 73 75 77 75 73 74 74 77 79 77 75 79 73 69 66 62 60 64 76 78
15 36 37 39 44 46 44 42 41 40 45 53 59 55 55 59 54 53 58 61 63 64 59 61 64 65 66 73 68 64 63 66 66 64 62 64 73 72 62 62 60 59 58 57 57 64 70
13 33 37 36 38 41 42 39 40 38 40 45 50 53 51 48 48 49 51 54 56 56 54 59 61 60 61 63 61 60 57 55 55 56 55 58 65 60 58 56 54 58 57 56 56 56 59
13 29 35 35 33 34 36 36 35 38 40 44 46 48 50 46 45 44 43 46 50 50 53 55 57 54 52 52 48 47 46 45 44 44 48 49 55 59 58 51 53 58 58 56 55 55 54
11 30 31 33 30 30 28 32 33 36 45 45 49 50 50 49 45 40 37 40 42 44 46 48 49 48 48 47 45 44 44 43 41 43 43 46 47 54 56 50 59 46 44 48 51 50 50
9 31 29 27 30 30 30 32 33 36 42 44 41 41 45 46 44 40 38 39 39 40 40 40 42 43 44 45 46 47 47 44 43 40 39 40 45 48 55 55 41 41 40 41 43 45 47
12 27 32 27 32 33 34 33 38 41 35 36 37 38 40 42 42 40 40 39 39 40 41 39 37 38 38 41 41 42 47 39 40 38 38 37 38 45 47 50 44 37 36 35 35 40 38
19 16 32 28 32 35 40 38 40 45 43 35 30 32 34 37 35 39 39 40 41 41 43 40 39 42 41 44 46 46 44 37 39 37 36 38 39 43 46 49 39 33 33 33 35 30 33
26 14 28 35 29 29 35 41 44 48 48 41 31 25 30 35 34 37 38 39 39 42 43 38 38 40 41 44 44 44 39 37 36 32 33 35 41 43 43 45 42 30 31 32 30 31 30
33 18 23 33 38 30 31 38 43 43 45 46 47 31 26 31 36 37 37 36 41 44 44 40 41 42 42 45 45 42 41 38 36 36 33 34 32 36 36 35 28 27 26 26 29 29 30

GFSGBSN_prec_cthk_108.txt.gz
RH
66 69 70 73 78 82 88 93 94 92 90 87 88 92 90 90 93 90 90 85 74 59 66 74 85 83 85 82 72 72 61 53 47 42 40 39 40 42 42 40 40 40 38 40 37 34 32
63 67 70 79 81 92 97 97 96 94 94 85 76 89 92 87 90 93 81 75 69 69 79 73 87 90 91 96 86 80 57 58 51 47 44 45 46 47 45 46 45 41 40 37 37 34 34
61 70 74 75 82 87 84 90 80 92 78 72 62 68 72 93 94 90 78 62 59 62 81 98 99 97 97 95 83 75 65 64 55 49 50 49 52 51 49 50 47 45 45 44 39 39 38
63 62 72 69 59 50 55 64 74 62 57 59 66 67 65 96 94 91 73 54 49 53 74 98 94 89 98 91 83 87 82 72 60 56 55 56 56 56 54 51 46 48 50 54 39 41 41
60 64 63 40 50 66 86 84 69 61 65 68 84 81 77 86 95 88 72 68 59 53 78 98 97 91 98 92 92 91 87 68 59 59 62 61 58 56 53 54 52 52 55 57 51 43 46
64 58 42 45 63 84 91 76 74 65 72 80 95 98 98 95 95 84 71 89 94 84 97 96 94 98 98 94 92 91 81 76 69 70 67 63 60 57 55 58 57 54 58 53 51 42 44
53 36 45 60 78 75 88 81 74 72 76 79 85 96 97 98 90 88 89 91 98 97 98 98 97 96 95 96 95 91 82 77 72 71 68 65 61 58 56 57 59 62 63 59 51 47 49
43 37 49 69 65 69 80 76 71 66 77 81 71 81 88 83 83 77 80 89 94 98 98 98 95 93 94 91 85 74 70 69 69 65 60 64 62 55 59 63 65 66 64 56 52 52 62
32 41 53 59 58 57 61 58 63 64 74 73 72 75 81 72 73 68 69 85 91 95 98 98 98 96 94 91 84 79 68 67 60 59 58 62 53 58 59 61 67 67 67 63 65 59 67
26 38 54 58 50 52 51 51 63 65 66 71 74 72 76 78 75 65 71 80 95 94 97 97 98 99 94 86 83 72 63 65 63 60 60 60 55 55 58 63 67 72 65 66 69 77 79
30 36 49 56 47 49 51 48 64 67 64 69 70 71 71 82 82 76 75 77 80 92 94 96 93 93 88 85 75 69 60 62 63 58 58 55 59 71 74 73 73 73 71 73 76 84 90
30 33 47 50 41 44 45 44 54 64 63 67 66 61 65 80 79 72 66 74 77 85 94 97 92 87 83 75 74 68 63 60 47 55 58 61 62 66 68 74 77 72 81 82 89 93 92
31 33 41 45 37 38 39 40 44 53 50 49 59 65 67 67 72 74 76 74 87 87 92 92 90 89 74 65 54 44 46 49 62 75 70 69 71 70 74 78 77 89 93 93 94 97 96
33 31 35 40 38 34 35 37 43 45 45 47 48 51 55 64 71 78 84 82 83 92 93 86 71 65 66 64 53 48 55 71 75 78 83 85 79 78 83 84 89 89 94 98 95 97 97
32 33 33 33 36 32 33 37 35 39 40 39 40 51 64 65 68 72 72 81 91 88 76 69 74 68 66 59 60 69 76 78 85 83 90 86 81 79 85 86 88 91 98 98 98 98 98
29 34 31 34 31 34 34 33 39 37 37 38 36 46 54 60 63 65 72 81 78 69 68 65 63 59 67 68 72 79 81 88 94 93 92 90 90 88 90 89 90 93 96 98 98 97 95
28 42 35 29 32 32 34 36 36 39 43 46 43 51 57 64 66 68 73 76 71 69 67 67 65 66 73 80 86 90 94 93 94 96 94 93 93 89 91 88 86 95 98 95 89 89 97
24 42 40 31 30 31 31 35 31 35 36 36 35 53 61 61 66 68 70 69 68 63 63 63 65 67 74 83 94 96 94 91 90 90 91 90 89 89 79 75 79 85 86 82 83 91 89
17 37 41 35 27 27 29 32 31 30 34 34 44 51 52 54 61 59 58 60 62 62 60 63 68 73 75 78 82 82 85 83 86 86 84 85 81 82 71 68 74 80 78 75 78 80 87
11 34 39 40 33 26 26 28 32 30 35 44 45 48 47 50 54 57 57 55 55 59 65 67 69 68 67 68 66 71 72 73 74 76 74 71 72 74 77 75 74 73 70 67 70 81 86
10 28 34 37 40 29 25 26 29 33 38 41 47 50 51 53 51 54 57 56 55 59 60 61 62 64 60 64 60 63 61 60 61 59 61 60 66 66 60 63 62 60 63 62 67 70 75
11 22 28 33 33 34 24 24 25 29 36 41 45 49 48 44 48 52 52 53 53 53 52 54 56 55 54 56 56 55 53 50 51 51 52 54 59 56 52 50 53 54 54 54 55 55 61
18 15 26 28 30 29 31 24 24 26 32 38 43 46 44 44 45 48 47 48 50 51 50 50 49 44 46 46 46 46 44 44 42 44 46 46 49 52 47 47 47 47 48 48 48 49 51
30 12 25 23 27 26 27 29 24 23 29 31 39 44 45 45 44 46 44 45 48 49 50 47 45 41 41 40 40 40 39 40 38 38 41 43 46 49 51 46 47 39 42 43 45 44 44
41 18 23 23 23 24 28 32 30 25 26 28 29 33 38 42 43 39 42 43 43 42 44 44 42 41 40 40 39 39 40 38 36 36 35 38 43 45 51 52 37 34 35 39 39 40 39
49 26 23 29 23 26 28 32 34 37 33 25 25 27 30 36 38 39 41 41 42 42 42 40 39 38 37 38 37 37 41 36 36 34 34 35 37 40 46 46 40 29 30 32 34 38 36
55 36 25 28 28 25 30 34 37 38 42 37 27 22 25 26 29 34 39 42 43 44 45 42 40 40 40 43 43 43 40 36 36 36 33 36 39 41 43 46 35 28 30 30 34 26 29
62 44 28 26 30 30 26 32 39 40 45 42 33 30 21 25 27 27 31 38 41 44 49 43 41 41 43 45 46 44 42 36 36 31 30 33 39 42 43 44 36 26 29 30 26 26 26
69 53 37 29 27 33 34 27 31 35 39 43 41 41 31 25 25 27 29 29 31 38 43 48 45 45 46 48 48 45 42 40 37 35 30 36 30 34 35 33 25 24 23 23 24 26 27

GFSGBSN_prec_cthk_111.txt.gz
RH
53 62 60 63 71 64 62 65 66 88 98 97 96 91 81 71 85 87 89 84 86 90 64 76 98 97 96 86 79 72 69 64 46 41 40 40 38 38 38 39 36 37 35 33 32 32 30
52 52 61 52 42 44 55 62 69 77 89 78 88 84 72 62 71 84 85 82 80 79 85 75 83 90 95 93 83 87 78 69 61 53 47 44 44 43 43 44 42 42 40 37 34 32 33
50 51 37 40 61 67 79 92 91 85 79 71 71 70 60 56 59 78 87 85 75 72 79 80 89 99 92 93 92 94 84 77 62 54 52 50 48 46 47 48 47 44 43 39 34 34 36
43 29 41 55 62 66 85 89 83 80 74 64 63 71 79 70 59 81 93 85 66 65 60 90 96 94 98 94 96 94 91 77 64 58 54 54 53 54 53 52 51 49 46 49 36 39 40
35 34 46 56 55 60 71 79 74 74 72 73 75 93 98 90 66 94 95 77 71 55 53 98 98 98 98 98 98 95 85 77 70 65 62 55 56 56 56 55 52 51 53 50 44 39 42
30 42 51 43 43 50 52 60 62 62 75 72 78 94 98 98 90 96 83 73 86 63 92 98 98 97 98 97 95 94 89 81 73 68 64 61 60 59 54 55 56 54 57 52 51 43 46
31 42 44 36 38 42 45 57 58 62 71 65 69 88 96 90 92 85 80 95 94 87 95 98 98 97 98 96 96 96 86 80 77 72 71 70 65 60 58 57 58 58 60 57 51 49 56
31 42 37 32 35 38 42 57 59 58 63 63 69 74 75 89 89 88 83 93 97 98 98 98 98 96 97 96 95 93 84 78 77 76 70 66 62 55 58 61 59 58 60 56 53 53 59
30 38 33 30 32 32 42 57 55 58 61 61 66 72 64 68 70 84 96 95 99 97 97 98 98 98 95 90 83 82 79 74 70 63 61 61 55 58 59 58 61 58 63 59 61 56 55
29 35 30 28 28 28 36 47 54 57 54 58 62 67 59 54 57 69 91 98 96 96 96 99 98 98 94 89 85 77 74 69 61 62 61 59 56 57 58 57 59 63 57 59 58 73 73
29 34 29 25 24 27 30 39 48 53 53 54 61 64 59 59 68 75 83 88 86 85 85 96 95 94 91 87 80 72 64 64 64 60 61 59 57 60 64 62 64 65 66 72 77 84 87
29 32 30 23 24 24 29 34 35 44 52 54 54 56 58 57 62 67 73 74 80 75 93 97 96 95 88 77 71 62 60 60 57 57 57 55 50 54 56 59 67 70 78 87 89 92 92
28 28 31 24 21 25 26 30 33 36 44 48 49 52 53 59 59 64 68 78 75 86 95 95 91 83 73 69 63 56 54 52 62 68 63 59 61 61 65 71 73 85 93 91 87 94 93
29 32 30 28 20 21 25 28 28 31 40 51 54 56 60 62 62 62 67 66 77 89 87 83 72 66 62 53 45 44 55 61 64 68 72 74 68 73 77 80 86 91 93 96 93 95 95
28 35 30 29 21 19 22 26 31 37 36 45 52 54 56 57 60 62 64 75 82 76 65 65 69 61 57 54 57 65 70 72 75 73 82 82 75 77 83 84 88 90 98 95 96 97 97
28 31 34 28 29 20 19 22 26 28 33 39 50 60 61 60 59 51 46 61 67 64 61 59 58 54 62 65 68 75 79 86 90 88 88 88 87 80 87 88 90 94 94 95 96 96 96
18 28 32 30 25 27 20 19 21 24 25 31 42 52 56 51 47 41 53 62 63 63 66 71 70 70 75 84 86 92 95 92 92 91 89 88 90 82 86 89 91 96 97 97 95 92 96
13 28 29 34 28 25 24 20 20 21 23 27 39 46 49 49 49 52 58 61 60 62 68 73 77 75 79 89 97 98 97 90 87 86 86 86 85 85 77 78 84 90 91 90 94 89 91
18 24 28 30 34 26 23 23 22 20 23 29 35 39 42 41 52 55 56 57 63 68 70 73 75 78 78 82 87 91 86 80 81 83 81 77 77 82 69 69 76 81 80 81 85 82 88
27 14 29 29 30 31 23 22 23 22 24 28 31 39 38 41 49 55 60 61 64 67 69 68 70 67 67 70 72 75 74 74 76 74 70 68 69 70 75 74 75 74 71 74 80 84 84
40 12 27 29 28 28 24 21 20 23 24 27 32 37 40 46 49 52 58 63 64 65 62 62 60 63 61 62 63 66 64 61 61 61 61 58 60 62 57 58 62 67 70 67 73 75 74
58 21 20 26 27 25 27 22 19 23 25 24 31 35 37 40 44 48 48 53 59 61 59 58 57 57 55 55 54 54 53 51 51 51 52 52 55 52 46 49 52 52 55 58 62 62 67
65 37 16 23 23 24 25 29 20 22 24 25 27 30 31 37 39 42 47 48 49 53 53 55 51 49 48 47 47 46 45 44 44 44 46 47 49 51 45 45 44 41 44 46 46 46 50
68 51 24 22 19 20 24 27 28 23 23 24 25 29 29 33 35 36 39 41 46 49 51 47 47 46 42 41 40 40 40 41 41 40 41 43 44 48 49 42 39 31 38 40 42 41 41
73 57 37 23 20 18 21 28 31 34 28 23 21 24 29 32 31 33 34 35 38 39 43 43 42 43 42 41 39 38 37 34 35 36 38 38 42 42 47 47 32 29 32 36 39 38 37
78 67 48 34 23 20 22 26 34 35 36 35 26 22 23 28 31 29 31 33 34 36 37 36 38 39 39 39 38 38 38 36 34 32 34 36 36 39 42 42 31 22 26 29 30 35 28
78 75 57 46 32 24 22 25 30 37 37 37 36 29 24 23 24 29 31 30 32 35 37 38 35 35 38 41 45 47 42 37 38 36 33 35 36 39 42 46 31 23 25 26 32 24 23
79 78 66 54 43 31 28 27 26 31 39 41 36 34 33 24 23 24 27 30 30 32 36 35 36 39 38 41 46 46 45 41 40 34 32 33 37 40 43 44 35 25 27 27 23 23 22
82 79 73 61 54 40 33 33 33 28 34 38 40 40 40 33 24 24 24 27 29 31 33 35 33 33 35 42 45 45 44 43 41 41 32 35 34 34 37 31 25 24 24 23 24 23 23

GFSGBSN_prec_cthk_114.txt.gz
RH
39 27 35 41 43 45 57 80 88 92 93 88 94 94 91 89 87 81 90 92 94 88 87 73 79 85 87 96 96 86 77 78 61 46 42 38 36 34 34 36 36 36 34 33 31 30 30
26 31 36 39 39 42 48 73 79 81 82 85 82 80 77 75 66 64 76 85 87 83 82 77 90 93 96 95 97 93 87 76 59 50 45 41 38 37 40 43 42 43 41 37 34 31 32
25 37 36 37 37 38 49 57 67 69 72 72 68 64 62 62 53 54 61 83 82 74 72 78 86 98 99 98 98 97 83 75 73 62 55 52 49 45 46 47 47 45 42 38 35 35 34
30 34 34 34 33 36 53 55 54 66 70 67 67 76 78 79 77 53 68 86 88 69 62 75 89 98 98 94 96 91 83 84 76 68 63 58 53 50 49 49 48 48 45 44 38 40 38
32 31 31 30 28 40 52 53 56 66 66 58 69 77 79 70 83 65 74 91 85 63 73 80 93 97 98 98 95 97 94 87 81 70 63 58 55 55 54 52 50 51 55 50 42 36 38
33 30 27 27 29 39 45 52 54 60 64 60 69 83 91 82 72 79 88 94 80 72 84 91 98 97 98 98 96 93 90 82 78 73 67 63 60 59 56 55 55 54 53 49 50 42 43
30 32 26 26 23 36 42 51 54 51 58 58 60 76 90 91 93 86 84 86 82 88 98 98 98 99 98 98 95 93 90 86 84 80 77 72 66 63 58 54 53 53 51 50 43 47 49
33 32 27 25 21 28 35 42 52 52 50 55 56 61 74 81 83 82 82 84 90 96 98 99 98 98 98 98 97 92 89 86 86 83 74 66 63 55 54 55 56 56 54 51 45 49 54
33 32 25 25 22 24 31 35 41 44 45 55 58 60 65 74 89 93 88 96 98 98 97 99 98 98 98 96 97 94 87 77 75 70 65 59 56 53 53 56 59 58 58 54 56 53 55
29 33 28 23 22 24 26 28 35 43 46 46 50 57 68 69 81 92 95 97 96 92 93 99 98 98 96 86 90 85 80 74 68 62 58 54 50 52 55 56 57 62 55 58 57 64 70
31 30 28 23 22 26 25 29 30 31 41 44 44 53 61 72 76 83 86 86 82 79 83 96 97 96 90 86 79 76 71 64 62 55 52 52 52 55 58 58 59 61 60 64 73 82 83
28 32 27 27 20 22 29 27 33 40 44 46 46 48 55 63 67 70 70 71 70 66 88 95 96 93 83 77 73 65 60 56 53 53 53 52 49 49 51 54 58 59 69 79 84 85 89
24 31 27 26 24 21 21 28 32 43 44 48 52 51 50 53 60 65 65 64 65 78 89 86 82 74 68 64 58 57 55 51 58 61 62 56 56 56 59 63 65 79 89 84 79 90 89
24 27 32 24 26 24 22 24 29 37 44 49 50 54 55 55 54 58 58 59 68 80 77 67 64 58 54 50 43 49 55 59 59 63 67 67 61 63 70 74 79 86 90 92 91 91 90
20 22 30 27 23 25 20 19 22 25 32 43 46 49 45 46 48 49 55 60 70 64 59 60 58 51 52 52 57 62 63 65 63 67 70 69 69 71 77 80 83 88 93 93 94 93 97
22 23 27 32 22 22 23 19 18 21 25 33 35 38 38 39 38 36 40 58 65 63 62 62 60 58 66 68 68 72 71 74 77 76 78 79 85 78 83 85 90 91 91 95 98 96 96
32 20 23 29 26 20 21 20 18 18 25 30 31 33 37 37 38 38 56 70 74 75 77 81 77 74 78 86 86 85 85 81 83 86 88 88 90 82 88 91 96 97 98 98 98 96 96
51 20 24 25 31 20 18 19 18 20 24 28 30 37 35 34 40 52 63 70 76 82 83 85 88 84 84 95 95 92 91 88 85 87 86 84 88 90 83 80 83 89 93 94 95 97 91
66 30 22 23 27 26 17 16 20 20 21 23 26 30 33 34 46 53 56 63 70 77 82 82 84 85 83 83 84 88 87 82 84 85 85 81 82 85 68 70 75 77 79 81 87 87 91
73 46 18 25 24 29 21 16 17 20 20 21 24 30 32 36 46 47 53 58 62 65 68 69 71 70 73 76 76 78 77 73 73 75 74 72 71 72 77 76 75 77 74 77 86 88 90
77 61 29 21 22 24 28 19 18 20 21 22 23 30 31 40 42 46 48 52 55 58 58 59 60 63 64 64 63 65 64 63 62 60 61 59 59 61 59 60 65 64 69 72 78 76 77
77 70 45 19 20 20 24 27 20 19 20 23 24 27 29 34 37 39 44 46 49 51 52 53 53 53 53 55 56 56 54 52 51 49 48 50 51 49 45 45 48 48 53 57 61 66 68
76 76 59 33 20 18 20 26 26 20 20 22 24 24 25 30 32 35 38 40 41 42 43 44 44 45 45 45 45 45 46 46 47 47 45 46 48 48 41 39 39 39 39 44 46 47 52
77 78 70 50 27 19 17 24 29 26 21 21 22 26 26 27 29 30 33 35 38 38 40 39 38 38 38 38 37 38 40 41 42 42 41 42 45 48 49 39 40 25 34 36 40 39 41
80 76 75 63 42 22 16 19 29 31 30 24 23 22 27 28 29 28 29 30 32 34 36 36 36 35 35 33 32 34 34 32 35 35 37 40 42 43 46 46 26 24 27 32 35 32 33
78 79 75 70 59 35 22 20 23 31 34 34 32 25 23 25 26 27 28 29 32 31 32 31 32 32 33 33 33 34 35 35 35 33 33 37 37 40 43 40 22 17 23 26 28 33 25
74 83 78 72 68 53 33 23 23 25 34 37 36 34 30 24 21 24 27 28 27 31 33 32 32 33 33 36 40 42 39 35 40 36 30 34 37 40 41 45 30 22 24 26 30 21 20
74 85 81 75 72 66 51 35 28 26 25 31 38 37 36 35 23 22 24 27 28 29 32 32 33 34 36 36 41 42 42 38 38 33 30 32 35 39 42 46 36 22 26 27 24 22 22
78 87 84 82 71 72 67 50 39 34 32 29 32 35 39 43 38 29 22 24 27 28 31 33 34 34 34 37 39 39 40 40 37 39 30 35 29 29 31 26 19 20 19 21 22 22 23

GFSGBSN_prec_cthk_117.txt.gz
RH
27 28 27 29 29 38 48 50 52 59 71 79 85 85 88 96 97 92 89 96 95 95 85 82 72 93 96 97 94 86 88 82 66 53 48 43 39 36 36 35 33 32 32 32 30 28 27
29 27 27 25 33 37 42 45 52 62 66 66 60 66 69 77 84 82 81 85 94 96 88 84 71 91 94 97 96 93 99 93 74 58 47 44 41 36 36 38 35 38 38 36 33 31 31
26 26 32 31 34 34 38 47 52 52 53 57 62 63 64 64 67 66 64 80 89 87 79 82 81 98 96 96 96 94 96 74 70 61 51 45 42 39 39 42 42 42 40 37 35 34 33
26 26 31 32 37 38 39 43 48 47 52 65 66 69 61 58 72 58 64 69 85 79 69 70 92 98 98 95 95 98 82 78 79 73 63 57 50 47 47 47 46 46 42 39 38 39 37
27 23 31 31 35 36 40 42 43 43 48 61 81 85 71 75 77 67 61 70 81 70 61 70 81 96 98 99 98 95 84 80 76 74 68 63 56 53 52 51 48 49 50 51 44 40 40
28 23 29 31 36 35 39 40 42 45 47 52 68 83 91 91 79 75 74 78 84 71 70 85 85 96 99 99 97 91 87 83 82 75 73 68 62 59 55 52 45 56 56 52 48 40 38
30 23 25 32 36 36 35 38 38 43 46 49 59 64 76 80 83 85 83 80 81 77 78 86 91 98 98 98 97 95 87 80 79 76 76 69 63 60 56 55 53 55 52 49 42 37 40
28 25 25 29 34 35 33 39 45 42 47 54 58 64 70 73 81 82 82 82 91 98 97 98 98 98 98 97 95 93 87 82 81 82 74 65 63 57 56 55 54 53 53 49 41 42 47
27 27 24 26 28 33 37 39 42 47 45 52 59 62 70 74 67 82 86 96 97 96 96 98 98 98 98 96 95 92 86 83 80 75 67 60 59 54 52 51 52 51 51 49 51 47 47
29 25 22 24 22 26 35 44 47 49 49 54 58 63 68 73 84 88 93 96 95 91 91 99 98 97 97 94 92 85 78 73 71 62 58 53 49 47 50 50 52 53 48 52 56 63 66
26 29 21 22 23 22 28 39 47 50 54 52 60 61 67 71 77 80 80 77 74 72 85 96 97 93 89 86 80 78 72 67 61 57 53 49 50 51 54 51 52 52 53 59 65 74 79
22 31 26 19 23 26 26 29 39 46 53 55 51 53 55 57 63 64 63 63 61 67 90 97 92 86 81 78 73 63 59 55 51 49 49 49 46 47 47 49 55 55 63 69 74 74 81
20 24 30 19 19 22 24 22 27 34 44 50 54 52 51 52 55 58 58 56 61 77 87 81 80 73 65 61 59 56 53 51 55 57 59 55 55 53 55 61 61 71 77 78 73 83 81
23 23 29 23 18 19 20 19 22 27 33 38 42 43 45 49 50 51 53 53 64 72 69 66 66 61 58 54 50 53 55 58 56 60 63 63 57 59 64 68 72 77 81 87 87 85 83
46 19 26 27 18 18 19 18 19 21 24 29 36 36 34 36 36 37 37 51 65 61 59 56 52 48 51 52 54 56 57 58 56 64 66 64 69 68 76 79 80 88 90 88 93 90 94
68 21 22 29 19 17 17 17 20 23 23 25 30 35 33 34 35 36 38 56 64 63 64 65 60 60 64 63 61 63 64 68 72 74 73 80 84 76 82 88 89 93 93 97 96 95 91
73 48 19 25 28 16 16 16 19 19 21 21 24 27 33 34 42 47 57 72 76 75 74 75 74 72 76 82 81 82 81 79 81 85 88 89 89 82 91 93 96 97 98 97 98 98 95
75 64 23 20 27 22 15 16 18 17 18 19 20 29 28 33 42 54 66 71 74 78 78 77 77 72 76 84 83 87 90 86 85 86 87 89 94 94 84 83 87 92 95 95 96 96 95
75 72 50 18 21 26 18 15 17 17 17 17 20 24 26 27 44 51 56 63 68 70 70 72 72 71 71 76 80 84 84 80 82 83 83 80 81 84 69 73 78 82 82 86 86 90 90
74 75 65 33 18 21 25 18 16 18 18 16 19 26 25 28 36 41 48 55 58 61 62 63 66 68 70 73 72 71 72 69 67 69 69 69 67 71 80 73 75 77 76 77 81 89 83
71 75 75 55 25 17 23 24 17 18 19 18 19 24 27 33 35 36 40 45 50 54 54 56 54 57 58 59 57 59 57 55 55 53 57 58 57 57 55 54 55 61 63 69 74 72 70
67 72 76 70 47 20 17 24 24 17 18 20 20 22 24 30 34 33 35 39 42 44 46 45 47 48 45 45 44 47 47 47 45 45 46 49 50 46 42 39 43 44 44 52 56 57 56
65 70 76 73 64 38 17 19 26 24 18 18 21 21 21 27 28 32 32 34 35 37 38 40 40 40 38 39 39 38 39 39 40 41 41 42 45 46 42 36 34 34 33 42 43 42 45
67 68 73 76 68 59 31 15 23 29 25 21 20 23 23 24 27 27 29 31 32 33 34 35 36 36 35 35 33 33 35 36 38 39 40 38 41 45 47 36 31 21 29 33 36 35 37
68 67 72 75 71 68 50 24 17 25 31 29 26 21 22 27 27 26 26 28 29 30 31 32 32 34 34 32 32 30 30 29 33 36 40 39 39 40 43 44 25 18 23 30 34 29 31
69 70 70 76 74 71 65 45 25 21 27 34 33 33 28 21 23 25 27 27 28 30 29 27 28 28 30 32 32 31 31 32 32 31 33 38 39 40 45 40 24 13 20 24 26 31 23
69 72 71 75 77 73 70 62 44 29 24 27 33 35 32 34 22 21 25 28 28 29 31 30 30 31 32 35 38 41 38 35 37 34 31 38 41 43 43 43 28 18 21 24 28 17 19
69 70 73 74 79 74 73 71 62 47 34 28 27 30 34 35 34 29 22 22 27 30 31 31 34 33 36 38 39 39 41 38 39 34 33 33 39 42 43 46 34 18 22 23 19 19 21
71 70 75 75 82 81 74 72 72 64 50 41 33 32 29 31 33 36 36 29 21 24 29 30 31 35 36 38 40 42 42 43 40 39 32 36 30 29 33 29 22 22 19 18 17 17 18

GFSGBSN_prec_cthk_120.txt.gz
RH
22 22 32 35 39 38 38 41 43 44 57 61 61 65 73 94 95 96 91 90 94 87 74 76 76 87 95 97 97 92 88 75 62 49 42 38 36 35 35 37 35 31 31 28 26 24 24
21 24 34 37 42 40 41 43 46 52 62 73 72 62 58 73 88 88 87 96 98 86 71 69 74 81 96 97 97 95 97 89 67 54 48 43 39 36 36 38 33 33 32 31 29 29 28
22 23 33 39 43 46 45 44 48 51 59 71 83 59 52 62 68 80 82 95 92 79 65 77 75 96 97 98 93 98 93 84 78 66 52 44 39 37 36 39 37 36 33 32 33 34 33
21 21 29 39 41 47 53 50 53 53 58 66 83 76 64 65 65 68 74 85 80 72 63 83 86 89 98 98 97 98 84 75 71 65 59 53 43 40 43 41 41 38 36 34 34 35 37
23 21 24 34 42 47 52 49 52 58 58 61 77 82 76 71 63 65 69 76 76 71 61 84 93 94 98 98 98 95 83 76 72 66 62 58 52 52 50 45 43 42 41 44 39 38 38
25 21 23 30 38 44 52 52 50 57 64 63 74 86 72 70 61 74 68 69 72 69 70 78 95 97 98 98 96 92 83 78 73 70 66 63 60 57 52 49 45 44 44 42 41 40 39
26 22 20 27 36 42 51 52 51 54 66 71 73 79 78 69 65 70 69 67 68 63 67 82 95 98 97 98 97 94 89 82 75 67 67 67 67 70 62 55 52 50 47 45 40 40 40
26 20 20 22 30 40 48 53 53 55 61 70 72 75 77 83 72 64 62 64 66 70 77 87 93 97 98 98 95 88 82 78 76 73 68 65 64 57 55 54 53 53 48 43 37 36 38
27 19 17 19 25 33 40 46 51 55 58 66 74 80 84 85 90 88 85 86 79 82 81 92 98 98 98 97 95 89 85 81 76 70 62 61 60 55 52 51 51 46 41 38 39 37 37
27 23 16 16 21 27 33 39 41 46 55 59 65 75 83 83 88 87 87 89 88 84 87 98 98 98 98 93 90 86 82 77 71 65 60 56 54 50 49 47 44 43 39 42 44 50 53
21 27 19 15 17 20 23 28 35 36 40 46 52 62 70 70 71 72 71 73 74 71 83 97 97 93 91 89 81 79 75 69 64 59 55 53 50 48 47 44 43 43 43 47 50 57 66
24 28 20 18 16 17 19 22 29 32 34 38 45 47 50 55 57 58 59 63 61 70 89 95 89 86 81 78 74 66 63 56 52 49 47 43 41 40 39 39 43 46 52 56 62 70 73
41 22 28 17 16 15 16 19 23 27 31 32 33 38 45 49 49 49 51 53 63 72 83 77 73 65 61 58 56 54 51 48 51 53 49 41 42 43 44 49 53 59 70 75 73 80 74
67 29 27 22 18 15 15 17 18 22 29 33 33 33 33 34 38 43 43 45 57 64 66 61 61 56 52 49 47 49 50 50 49 47 49 53 51 49 56 59 67 73 77 85 87 79 81
73 48 23 28 17 17 14 18 20 21 24 28 31 33 33 35 29 27 33 49 52 51 50 50 47 43 48 50 50 51 51 51 52 54 58 55 58 59 70 76 80 89 93 92 98 89 92
74 68 39 22 27 16 15 16 18 19 21 25 28 30 36 38 39 35 34 52 54 53 53 52 47 48 50 52 52 54 57 59 59 61 60 69 78 71 79 90 93 96 96 98 98 92 84
72 70 60 31 22 23 14 16 16 17 18 20 24 28 33 39 45 45 56 66 65 64 62 62 57 58 59 63 61 63 63 65 72 76 76 81 87 83 89 91 93 98 98 95 94 93 82
64 73 68 53 22 24 20 14 15 16 15 17 20 28 30 32 45 49 59 64 68 69 70 68 67 66 72 72 72 76 77 78 80 84 89 90 89 88 78 79 83 87 88 84 87 90 86
59 70 70 65 47 17 24 17 15 15 15 15 18 22 24 28 44 48 52 57 62 65 68 69 71 70 70 75 77 77 78 77 78 78 76 75 80 81 67 72 74 77 76 77 79 82 84
50 65 71 69 64 35 16 24 15 15 15 15 16 23 22 26 34 39 46 50 53 58 60 62 64 65 65 65 65 62 60 60 61 62 65 68 63 57 56 58 63 67 65 68 74 80 70
48 59 68 70 68 61 23 18 24 14 15 15 16 21 23 27 29 31 35 39 43 45 49 52 50 52 53 50 49 47 48 47 48 48 51 53 53 49 43 42 45 49 50 54 64 60 62
54 56 62 68 68 69 52 17 22 24 14 17 18 19 22 26 28 28 29 33 35 36 35 36 38 39 39 38 37 38 40 40 39 41 43 46 48 43 36 33 38 39 35 39 46 48 48
56 60 62 64 70 69 69 42 15 24 22 16 17 18 19 25 26 25 24 27 29 31 33 33 31 32 32 31 32 33 35 35 37 38 39 40 42 43 39 30 30 27 23 28 35 38 36
55 62 65 66 68 70 70 66 32 19 25 23 21 19 20 21 23 23 24 25 27 28 30 30 33 32 28 31 31 30 30 31 33 36 38 37 37 39 39 30 30 19 24 24 28 29 30
55 59 67 66 66 69 70 69 57 32 20 27 26 25 23 20 22 22 24 25 26 27 28 29 29 31 32 29 27 23 24 26 29 34 37 39 38 34 34 31 18 14 18 25 27 22 24
61 62 65 70 67 68 69 69 67 56 34 24 29 32 29 29 21 21 23 25 25 25 25 26 27 29 32 32 30 29 22 26 26 28 33 39 40 38 37 36 20 11 17 21 24 23 20
64 63 68 70 68 68 67 71 71 67 56 38 28 28 30 32 30 29 27 24 26 26 26 27 28 31 33 34 36 34 29 32 30 29 33 38 40 43 40 37 21 15 18 22 23 15 18
67 67 70 72 71 69 68 70 73 71 68 59 46 32 28 26 27 30 32 28 27 26 26 27 31 33 35 38 37 35 38 34 34 30 29 29 31 35 40 43 33 19 23 23 21 20 22
77 76 73 73 74 71 72 70 74 74 74 71 65 54 39 32 28 26 27 30 32 30 25 27 27 29 31 34 35 36 37 37 32 26 28 30 23 22 26 23 20 20 22 22 22 23 23